ECMWFNIL_850_thetae_000.txt.gz
Theta_e
306 306 306 306 306 305 305 304 303 302 302 302 302 301 300 299 298 297 296 296 295 295 295 295 295 295 295 295 294 294 294 294 294 294 295 295 293 291 290 289 289 288
307 307 306 306 306 306 305 304 303 303 302 302 301 301 300 299 298 297 297 296 295 295 295 294 294 294 294 294 294 294 294 294 294 294 294 294 293 291 289 289 288 288
308 308 307 307 307 307 306 304 303 303 302 302 301 300 299 299 298 297 297 296 295 295 295 294 294 294 294 294 294 294 294 294 294 294 294 294 293 291 289 289 288 288
309 308 308 308 307 307 305 304 304 304 303 302 301 300 299 298 298 297 297 296 295 295 294 294 294 294 294 294 294 294 294 294 294 294 294 294 292 290 289 289 288 288
309 309 308 308 307 306 305 305 305 304 303 302 301 299 298 298 297 297 296 295 295 294 294 293 293 294 294 294 294 293 293 293 294 294 294 294 292 290 289 289 288 288
309 309 308 308 307 306 305 305 304 303 303 302 300 299 299 298 297 296 296 295 294 294 293 293 293 293 293 293 293 293 293 293 293 293 293 293 291 289 289 288 288 287
309 309 308 308 307 306 306 305 304 303 302 301 300 299 299 298 297 296 295 295 294 294 293 293 293 293 293 293 293 293 293 293 293 293 293 293 290 289 289 288 288 287
309 309 308 307 307 306 306 305 304 303 302 300 300 299 299 297 296 296 295 295 294 294 293 293 292 293 293 293 293 293 293 293 293 293 293 292 290 289 288 288 287 287
310 309 309 308 307 306 306 305 304 303 302 300 300 299 298 297 296 295 295 294 294 294 293 292 292 292 292 293 293 293 293 293 293 293 292 291 290 289 288 288 287 287
310 309 309 308 308 307 307 306 304 303 302 301 300 298 297 296 295 294 294 294 294 293 293 292 292 292 292 292 292 292 292 292 292 292 292 291 289 288 288 288 287 287
310 310 309 309 309 308 307 306 305 304 302 301 300 298 297 295 294 294 294 294 294 293 293 292 292 292 292 292 292 292 292 292 292 291 291 290 289 288 288 287 287 286
310 310 310 310 309 309 308 307 306 304 303 301 300 298 297 295 294 294 293 293 293 293 292 292 291 291 292 292 292 292 292 292 291 291 290 289 288 288 288 287 287 286
310 310 310 310 309 309 308 307 306 304 303 301 299 298 297 295 294 294 293 293 293 292 292 291 291 291 291 291 291 291 291 291 291 290 289 289 288 288 287 287 286 286
310 310 310 309 308 307 306 306 305 304 302 300 299 298 296 295 294 294 293 292 292 292 291 291 291 291 291 291 291 291 291 291 290 290 289 288 288 287 287 286 286 286
310 309 309 308 307 306 305 305 305 304 302 300 298 297 296 295 294 293 293 292 291 291 291 291 290 290 290 291 291 291 291 290 290 289 288 288 287 287 286 286 286 285
310 309 308 308 306 306 305 304 304 303 301 300 298 297 295 294 294 293 292 292 291 291 290 290 290 290 290 290 290 290 290 290 289 288 288 287 287 286 286 285 285 285
310 309 309 308 307 306 304 303 302 301 300 299 298 296 295 294 293 293 292 291 291 290 290 290 289 289 289 289 290 290 289 289 289 288 287 287 287 286 286 286 286 285
309 309 308 308 307 305 304 302 301 300 299 299 297 296 295 294 293 292 291 291 290 290 289 289 289 289 289 289 289 289 289 288 288 287 287 287 287 286 286 286 286 285
309 308 308 307 307 305 303 301 300 300 299 298 297 296 294 293 293 292 291 290 290 289 289 289 289 289 289 289 289 289 288 287 287 287 287 286 286 287 286 285 285 285
308 307 307 306 306 304 302 301 300 300 299 298 296 295 294 293 292 292 291 290 290 289 289 288 288 288 288 288 288 288 287 286 286 286 286 286 286 286 286 285 285 285
307 307 306 305 304 303 302 301 300 299 298 297 296 295 294 293 292 292 291 290 290 289 288 288 287 287 287 287 287 287 286 286 286 286 286 286 286 286 286 286 285 285
306 305 305 304 304 302 301 300 299 299 298 296 295 294 293 292 292 291 291 290 289 289 288 287 287 287 287 287 287 286 286 286 286 286 286 287 287 287 287 286 285 284
305 304 304 304 303 302 301 300 300 298 297 296 295 293 292 292 291 291 290 290 289 288 287 286 286 287 287 286 286 285 285 286 287 287 287 287 288 288 287 286 284 284
303 303 303 303 303 302 301 300 299 298 297 295 294 293 292 292 291 290 290 289 289 288 287 286 286 286 286 286 286 285 286 286 287 288 288 287 288 288 286 285 284 283
301 301 301 301 301 300 300 299 298 297 296 294 293 292 292 291 291 290 289 289 288 287 286 286 286 286 286 286 285 285 286 287 287 287 287 287 287 287 285 284 283 282
300 300 299 299 299 298 298 297 296 295 295 293 292 292 291 291 290 289 289 288 288 286 286 285 286 286 286 286 285 285 286 287 287 287 287 287 287 285 284 283 283 282

ECMWFNIL_850_thetae_003.txt.gz
Theta_e
308 308 307 307 307 306 306 306 306 306 306 306 306 306 305 304 304 302 301 299 297 296 295 295 295 295 295 295 295 295 295 295 295 295 295 295 295 295 295 295 294 294
308 307 307 307 306 306 306 306 306 307 307 307 307 306 305 304 303 302 301 300 298 296 295 295 295 295 295 295 295 295 295 295 295 295 295 295 295 295 295 295 294 294
308 308 307 307 307 307 307 307 307 307 307 307 307 306 306 305 303 302 301 300 299 297 296 295 295 295 295 295 295 295 295 295 295 295 295 295 294 295 294 294 294 293
308 308 308 308 308 308 307 307 307 307 307 307 307 307 306 305 304 302 301 300 299 298 296 295 294 294 294 294 294 294 294 294 294 294 294 294 294 294 294 294 294 293
309 308 308 308 308 308 307 308 308 308 308 308 308 307 306 305 304 302 301 300 299 298 297 295 294 294 294 294 294 294 294 294 294 294 294 294 294 294 294 294 294 293
309 308 308 308 307 307 307 308 308 308 308 308 307 306 306 305 304 303 301 300 299 298 297 296 294 294 293 293 293 293 294 294 294 294 294 294 294 294 294 294 294 293
310 310 309 308 307 307 307 307 307 307 307 307 306 306 306 305 304 303 302 300 299 298 298 297 295 294 293 293 293 293 293 293 294 294 294 294 293 293 294 294 293 293
311 311 310 309 308 307 307 307 308 308 307 306 306 306 306 305 304 303 302 300 299 298 298 297 296 295 293 293 293 293 293 293 293 293 293 293 293 293 293 293 293 292
310 310 309 309 309 308 308 308 308 308 307 307 306 306 305 305 304 303 302 300 299 298 297 297 296 295 294 293 292 293 293 293 293 293 293 293 293 293 293 293 293 292
310 310 309 308 308 309 309 309 308 308 307 307 306 305 305 305 304 303 302 300 299 298 298 297 296 295 294 293 292 292 292 293 293 293 293 293 293 293 293 293 292 291
311 310 309 308 308 309 309 309 309 308 308 307 307 306 305 305 304 303 302 301 300 299 298 297 296 295 294 293 292 292 292 292 293 293 293 293 293 293 293 292 291 290
311 310 310 309 309 309 309 309 309 309 308 308 307 307 306 305 304 304 303 303 302 300 299 298 296 295 294 293 293 292 292 292 292 292 292 292 292 292 292 291 290 290
311 311 311 310 310 309 309 307 307 308 308 308 308 307 306 305 305 305 304 304 303 301 300 298 297 296 294 294 293 292 292 291 292 292 292 292 292 291 291 290 290 289
311 312 312 311 310 308 307 306 306 306 306 307 307 306 306 305 305 304 304 303 301 300 299 298 297 295 294 294 293 293 292 291 291 291 291 292 291 291 291 290 289 289
311 311 311 311 309 307 307 306 305 305 305 305 305 305 305 303 302 301 301 300 299 298 298 297 296 295 294 294 293 293 292 291 290 291 291 291 291 291 291 290 289 289
309 309 309 309 308 307 306 305 305 304 304 304 304 304 302 301 300 299 298 298 297 297 297 297 296 295 294 294 293 293 292 291 290 290 291 291 291 291 290 289 289 288
307 307 307 307 306 306 305 305 304 304 304 303 303 302 301 300 299 298 297 297 297 297 297 296 296 295 294 293 293 293 292 291 290 290 290 290 290 290 289 289 288 288
307 306 306 306 305 304 304 304 303 303 303 303 302 302 300 299 298 298 297 297 296 296 296 295 295 294 294 293 293 292 291 290 290 290 290 290 290 289 289 288 288 288
306 305 305 305 304 303 303 302 301 302 302 302 302 301 300 298 298 297 296 296 296 296 295 295 294 293 293 293 292 292 291 290 289 289 289 289 289 289 288 288 288 287
303 303 303 303 302 302 302 301 300 300 300 300 300 299 298 298 297 296 296 296 296 295 295 295 294 293 293 292 292 291 290 289 289 288 288 288 288 288 288 287 287 287
300 300 300 300 300 300 300 300 299 298 298 298 298 298 298 298 297 296 296 296 295 295 294 294 293 293 292 292 291 290 290 289 288 287 287 287 287 287 287 287 286 287
299 299 298 298 298 298 298 298 298 297 297 297 297 296 296 296 296 296 296 295 295 295 294 293 293 292 291 291 290 290 289 289 288 287 287 287 287 287 286 286 286 286
298 298 297 297 297 297 297 297 297 297 296 296 296 296 296 296 296 295 296 296 296 294 294 293 292 292 291 290 290 289 289 288 287 287 286 286 286 286 286 286 286 286
297 297 297 297 297 296 296 296 296 296 295 295 295 296 296 296 295 295 295 296 295 294 294 293 292 292 291 290 289 288 288 288 287 287 286 286 286 286 286 285 286 286
297 296 296 296 296 295 295 295 295 295 295 295 294 295 295 295 294 294 295 294 294 294 293 292 292 291 290 290 289 288 288 287 287 286 286 286 286 286 285 285 285 285
296 296 295 295 294 294 294 294 293 293 294 294 294 294 293 293 294 294 294 293 293 292 292 291 291 291 290 289 288 287 287 287 286 286 286 286 286 286 285 285 286 285

ECMWFNIL_850_thetae_006.txt.gz
Theta_e
308 307 307 308 308 308 308 308 308 308 308 308 308 307 307 307 306 306 306 305 304 303 302 300 299 297 296 295 295 295 295 295 295 295 295 295 295 295 295 296 295 295
308 308 307 307 307 307 307 307 307 307 307 307 307 307 306 306 306 305 305 305 304 303 302 301 299 298 297 296 295 295 295 295 295 295 295 295 295 295 295 295 295 295
309 308 308 307 307 307 307 307 307 307 307 307 306 306 306 305 305 305 305 304 304 303 302 301 300 298 297 296 295 295 294 294 295 295 295 295 295 295 295 295 295 295
308 308 308 308 307 307 307 306 306 306 307 306 306 306 305 305 305 304 304 304 303 303 303 302 300 299 297 296 295 294 294 294 294 294 294 295 295 295 295 295 295 295
307 308 308 308 307 307 307 306 306 306 306 306 306 306 306 305 304 304 304 303 303 303 302 302 301 299 298 297 295 294 294 294 294 294 294 294 294 294 295 295 295 295
307 307 307 307 307 307 307 306 306 306 306 306 306 306 306 305 305 304 304 303 303 302 302 302 301 300 299 297 296 294 294 294 293 293 294 294 294 294 294 294 294 294
307 306 306 306 306 306 307 307 306 306 306 306 306 305 305 305 305 304 304 303 302 302 302 302 301 300 299 298 296 295 294 293 293 293 293 294 294 294 294 294 294 294
305 306 306 306 306 306 306 307 307 307 306 306 306 305 305 305 304 304 304 303 302 302 302 302 301 301 300 299 298 296 294 294 293 293 293 293 293 294 294 294 294 294
303 304 304 305 306 306 307 307 307 307 307 307 307 307 306 305 305 304 304 303 303 302 302 302 302 301 300 299 298 297 296 295 294 293 293 293 293 293 294 294 294 294
305 304 303 303 304 305 307 308 308 307 307 307 307 307 307 306 306 305 304 304 303 303 302 302 302 301 300 300 299 298 297 296 294 293 293 293 293 293 293 294 294 294
307 306 305 304 304 304 305 306 306 306 306 306 306 307 307 306 306 307 306 305 304 304 304 303 302 301 301 300 299 298 297 296 295 294 293 292 293 293 293 293 293 293
306 305 305 305 305 305 305 305 305 304 304 304 304 305 305 305 305 306 306 307 307 306 304 304 302 301 301 301 300 298 298 297 296 294 293 292 292 292 293 293 293 293
305 304 304 304 304 305 305 305 304 303 303 303 302 302 303 304 304 304 305 306 306 306 306 305 303 302 301 301 300 299 298 298 297 296 294 293 292 292 292 292 293 293
304 304 304 303 303 303 303 304 304 303 303 302 302 302 302 302 302 303 303 303 303 304 305 304 303 302 301 300 300 299 299 298 298 297 296 294 293 292 292 292 292 292
303 303 303 302 301 301 302 303 303 303 302 302 301 301 301 301 300 300 300 300 301 301 301 302 303 303 302 301 300 300 299 299 298 297 296 295 294 292 291 291 292 292
301 301 301 300 300 300 300 301 301 301 301 301 301 300 300 299 299 298 298 299 299 299 299 300 301 303 302 301 300 300 299 299 298 297 296 295 294 293 292 291 291 291
300 300 299 299 298 298 298 299 299 300 300 300 300 299 299 298 298 298 298 298 297 297 298 299 300 301 301 300 299 298 298 298 297 296 295 295 294 293 292 291 291 291
299 299 298 298 297 297 297 297 298 298 298 298 298 298 298 297 297 297 297 296 296 296 297 297 298 298 298 298 297 296 296 296 296 296 295 295 294 293 292 291 290 291
297 298 298 297 296 296 296 296 296 296 297 297 297 297 297 297 296 296 295 295 295 295 295 296 296 296 296 296 296 296 295 295 295 295 295 294 294 293 292 291 290 290
296 296 297 297 296 295 295 294 295 295 295 295 296 296 296 296 295 295 295 295 295 294 294 294 295 295 295 295 295 295 295 295 294 294 294 294 294 293 292 290 289 290
295 295 295 295 296 295 295 294 294 294 294 294 295 295 295 295 295 295 295 295 294 294 294 294 295 295 294 294 294 294 294 294 293 293 293 293 293 292 291 290 289 289
294 294 294 294 295 295 295 294 293 293 293 293 293 294 294 294 294 294 294 294 294 294 294 294 294 294 294 293 293 293 293 292 292 292 292 292 292 291 290 289 289 289
293 293 294 294 294 294 295 295 293 292 292 292 292 293 293 293 293 293 293 293 293 293 294 294 294 294 293 293 292 292 292 292 292 292 292 291 291 291 290 289 288 288
292 292 293 293 294 294 294 295 294 293 292 291 291 291 292 292 292 292 292 292 292 293 293 293 293 293 292 292 292 292 292 292 292 291 291 291 291 290 290 289 288 287
291 291 292 293 293 294 294 294 294 294 292 291 290 291 291 291 291 291 291 291 292 292 292 292 292 292 292 292 292 291 291 291 291 291 291 290 290 290 289 288 287 286
290 290 291 292 292 293 293 293 294 294 293 292 290 290 290 290 290 290 290 291 291 291 291 291 291 291 291 291 291 291 291 291 291 291 291 290 290 289 288 287 286 286

ECMWFNIL_850_thetae_009.txt.gz
Theta_e
303 303 304 304 304 305 305 305 305 305 306 306 307 307 308 308 308 307 307 306 305 305 304 302 301 301 300 299 298 296 296 296 296 296 296 296 296 296 296 296 296 296
303 303 303 303 303 303 304 304 304 305 305 306 306 306 306 307 307 307 307 306 305 305 304 303 302 301 300 299 298 297 296 295 295 295 295 295 296 296 296 296 296 296
302 302 302 303 303 303 303 303 303 304 304 305 305 305 306 306 306 306 306 306 306 305 304 304 302 301 300 299 298 297 296 296 296 295 295 295 295 296 296 296 296 296
301 301 301 302 302 302 303 303 303 303 303 303 304 304 305 305 305 305 305 305 305 305 304 304 303 302 301 300 299 298 297 296 296 295 295 295 295 295 295 296 296 295
300 300 300 300 301 302 302 303 303 303 303 303 303 303 304 304 305 305 305 304 305 304 304 304 303 303 302 300 299 298 297 296 295 295 295 295 295 295 295 295 295 295
301 300 300 299 300 300 301 302 302 303 303 303 303 303 303 303 304 304 304 304 304 304 304 304 303 303 302 301 300 299 298 296 295 295 294 294 294 294 294 295 295 295
303 302 302 301 300 299 300 300 301 302 302 303 303 303 303 303 303 303 303 303 304 304 304 304 303 303 302 302 300 300 298 297 296 295 294 294 294 294 294 294 295 295
303 303 303 303 302 301 300 299 300 300 301 302 302 303 303 303 303 303 303 303 303 303 303 303 303 303 302 302 301 300 299 298 297 295 294 294 294 294 294 294 294 294
302 303 303 304 304 304 303 301 300 299 299 300 301 301 302 302 303 303 302 302 302 302 302 303 303 303 303 302 302 301 300 299 298 296 295 294 294 294 294 294 294 294
301 302 302 302 303 304 304 303 302 300 298 298 298 299 300 301 301 301 302 302 302 302 301 301 302 302 303 303 302 301 300 299 298 297 296 295 294 294 294 294 294 294
300 301 301 301 302 303 304 304 303 302 300 298 297 297 297 298 299 300 300 301 301 301 301 301 301 301 302 302 302 302 300 299 299 298 297 296 295 294 294 294 294 294
298 299 299 299 300 301 301 302 303 303 302 301 299 297 297 297 297 297 298 299 300 300 301 301 301 300 300 301 302 302 301 300 299 298 297 296 295 295 295 294 294 294
296 296 297 297 298 299 299 300 301 302 302 302 300 299 299 297 296 296 297 297 298 299 299 300 300 300 300 300 300 300 301 301 300 299 298 297 296 295 295 294 294 293
294 294 295 295 296 297 298 298 299 300 301 301 301 300 299 298 297 296 296 296 297 297 298 298 298 299 299 299 299 299 299 300 299 299 298 298 297 296 295 294 293 293
293 293 294 294 295 296 296 297 298 298 299 300 301 301 299 298 297 296 295 295 296 296 296 296 297 298 298 298 298 298 299 299 299 298 298 298 298 297 295 294 293 292
292 292 293 293 294 294 295 295 296 297 297 298 298 299 299 298 296 296 295 295 295 295 295 295 296 297 297 297 297 297 298 298 299 298 297 297 297 297 296 295 293 292
290 291 292 292 293 293 294 294 294 295 296 297 297 297 298 297 296 296 295 295 294 294 294 294 295 296 296 296 296 296 296 297 297 298 298 296 295 295 296 295 294 293
289 289 290 291 291 292 293 293 293 294 295 296 296 297 296 296 296 296 294 294 293 293 294 294 294 295 295 295 295 295 295 295 296 297 297 297 296 294 294 294 294 293
288 288 289 289 290 290 291 292 293 293 294 294 295 296 296 296 296 295 294 293 293 293 293 293 294 294 294 294 294 294 294 294 295 295 296 297 297 295 293 292 292 292
287 287 288 288 289 289 289 290 291 292 293 293 294 295 295 296 295 294 294 293 292 292 292 292 293 293 293 293 293 293 293 293 294 294 295 295 296 296 295 293 292 292
285 286 286 287 287 288 288 288 289 290 291 292 293 293 294 295 295 294 293 292 292 291 291 292 292 292 292 292 292 293 293 293 293 293 294 294 295 295 294 294 293 293
285 285 285 285 286 286 287 287 287 288 289 291 292 292 293 294 294 294 293 292 292 291 291 291 291 291 291 291 292 292 292 292 292 293 293 293 294 294 293 293 293 293
285 285 285 285 285 285 285 286 286 286 287 289 290 291 292 293 293 293 293 292 291 291 290 290 290 290 290 291 291 291 291 291 291 292 292 292 293 293 293 292 292 292
285 285 285 285 285 285 285 285 285 285 286 287 288 289 291 292 293 293 293 293 292 291 290 290 290 290 290 290 290 290 290 290 290 291 291 292 292 292 292 291 291 291
285 285 285 285 285 285 285 285 285 285 285 285 286 288 289 291 292 293 293 293 292 291 290 289 289 289 289 289 289 289 289 289 289 290 290 290 291 290 290 290 290 290
285 284 284 285 285 285 284 285 285 285 285 285 285 286 287 289 290 292 293 293 292 291 290 289 289 288 288 288 288 288 288 289 289 289 289 289 289 289 289 289 289 289

ECMWFNIL_850_thetae_012.txt.gz
Theta_e
300 300 300 300 300 300 300 301 300 301 301 301 301 302 302 303 303 303 303 303 304 304 304 303 302 301 300 300 299 299 298 297 296 296 296 296 296 296 296 297 297 297
300 300 300 300 300 299 300 300 300 300 300 300 300 301 301 301 302 302 302 302 303 303 303 303 302 301 300 300 299 299 298 298 296 295 295 296 295 296 296 296 296 297
302 302 301 301 300 300 299 299 300 300 300 300 300 300 300 300 301 301 301 302 302 302 302 302 302 302 301 300 299 299 299 299 298 296 295 295 295 295 296 296 296 296
302 302 302 302 301 301 300 300 300 300 299 300 300 300 300 300 299 300 300 301 302 302 302 302 302 302 302 301 300 299 299 299 299 297 296 295 295 295 295 295 295 296
300 301 301 302 302 302 301 301 301 300 299 299 299 299 300 300 299 299 299 300 300 301 301 302 301 301 301 301 301 300 300 299 299 298 297 296 295 295 295 295 295 295
298 299 299 300 300 301 301 302 302 301 301 300 299 298 298 299 299 299 299 299 299 300 300 301 301 301 301 301 301 301 301 300 300 299 298 296 295 294 294 294 294 295
297 298 298 298 299 299 300 300 301 301 301 301 300 299 298 297 298 298 299 299 299 299 299 299 300 300 301 301 301 301 301 301 301 300 299 298 296 294 294 294 294 294
298 297 297 298 298 298 298 298 299 300 301 301 301 300 299 298 296 297 297 298 299 299 299 299 299 299 299 300 300 301 301 301 301 301 300 299 297 295 294 294 294 294
297 298 298 298 298 297 297 297 297 298 299 299 300 300 300 299 298 297 296 297 297 298 298 298 298 298 299 299 299 300 300 301 301 301 301 300 299 297 295 294 293 293
294 296 297 297 298 297 297 296 296 296 297 298 299 299 299 299 299 298 297 296 296 296 297 297 298 298 298 298 299 299 299 300 300 301 301 301 300 299 297 295 294 293
293 293 294 295 296 296 296 296 296 295 295 296 297 298 298 298 298 298 298 297 297 296 296 296 296 297 297 297 298 298 299 299 300 300 300 300 300 300 299 298 296 294
291 292 292 292 292 293 294 295 295 295 295 295 295 295 296 297 297 297 298 298 297 297 296 296 295 296 296 296 297 297 298 298 298 299 300 300 300 300 299 299 298 297
289 289 290 290 290 290 291 292 292 293 294 294 294 294 294 295 296 297 297 297 296 296 296 295 295 295 295 295 296 296 296 297 297 298 299 299 299 300 299 298 298 298
287 287 287 288 288 289 289 290 290 291 292 293 293 294 294 294 294 295 296 296 296 295 295 295 294 294 294 294 294 295 295 296 296 297 297 298 298 299 299 298 298 298
287 287 287 287 287 287 288 288 289 289 289 290 291 292 293 293 294 294 294 295 295 295 295 294 293 293 293 293 293 294 294 294 295 295 296 296 297 297 297 297 298 298
287 287 287 287 286 286 287 287 287 288 288 288 288 289 290 291 292 293 293 294 294 294 294 294 294 293 293 292 292 292 293 293 294 294 295 295 296 296 297 297 297 297
286 286 286 286 286 286 286 286 286 286 287 287 287 287 288 288 289 291 292 293 293 293 293 293 294 294 293 291 291 291 292 292 292 293 293 294 295 295 296 297 297 297
286 286 286 286 286 286 286 286 286 286 286 286 286 286 286 287 287 288 289 290 292 293 293 293 293 293 292 291 291 291 291 291 291 292 292 293 294 294 295 295 296 296
286 286 286 286 286 286 286 286 286 286 286 286 286 286 286 286 286 286 286 287 289 291 292 293 294 293 292 291 291 290 290 290 291 291 291 292 293 293 294 294 295 296
286 286 286 286 286 286 286 286 286 286 286 286 286 286 286 286 285 285 285 285 286 287 289 291 293 293 292 292 291 290 290 290 290 290 290 291 292 292 293 293 294 294
285 285 285 285 285 286 286 286 286 286 286 286 286 286 286 286 286 286 285 285 285 285 286 288 291 292 293 292 291 290 289 289 289 290 290 290 290 291 291 292 292 293
285 285 285 285 285 285 285 285 285 286 286 286 286 286 286 286 286 286 285 285 285 285 285 286 287 290 292 292 291 290 289 289 289 289 289 289 290 290 290 291 291 291
284 284 285 285 285 285 285 285 285 285 285 285 285 286 286 286 286 286 285 285 285 285 285 285 286 287 289 292 292 290 289 288 288 288 289 289 289 290 290 290 290 291
284 284 284 284 284 285 285 285 285 285 285 285 285 285 285 286 286 285 285 285 285 285 285 285 285 285 286 289 292 291 289 288 288 288 288 288 289 289 289 290 290 290
283 284 284 284 284 284 284 284 284 285 285 285 285 285 285 285 285 285 285 285 285 285 285 284 285 285 285 286 289 291 291 288 287 287 288 288 288 288 289 289 289 289
283 283 283 284 284 284 284 284 284 284 285 285 284 285 285 285 285 285 285 285 285 285 285 284 284 285 285 285 286 290 291 290 288 287 287 288 288 288 288 288 289 289

ECMWFNIL_850_thetae_015.txt.gz
Theta_e
302 302 303 303 303 303 302 302 301 300 300 300 299 299 299 299 299 299 299 299 300 300 299 299 299 300 300 300 301 301 301 299 297 297 297 297 297 297 296 295 295 295
300 300 301 301 302 302 302 303 302 302 301 300 300 299 299 298 298 299 299 299 299 299 299 299 299 299 299 300 300 300 300 299 298 297 296 296 297 297 296 296 295 295
299 299 299 299 300 300 301 302 302 302 302 302 301 300 300 299 299 299 299 299 298 298 299 299 299 299 299 299 299 299 299 299 298 297 296 296 296 296 296 296 295 294
297 298 298 298 298 298 299 299 300 301 301 301 301 301 301 300 300 299 299 299 299 298 298 298 298 299 299 299 299 299 299 299 298 297 296 296 296 296 296 296 295 295
295 296 296 296 297 297 297 298 298 298 299 300 300 301 301 301 300 300 299 299 299 298 298 297 297 297 298 298 299 299 299 299 299 298 297 297 296 296 296 296 295 295
294 294 294 294 295 295 296 297 297 297 297 298 298 299 300 300 300 300 300 299 298 298 298 297 297 297 297 297 298 298 299 299 299 299 298 298 297 296 296 296 295 295
292 292 293 293 293 293 294 295 295 296 296 297 297 298 298 299 299 299 299 299 299 298 298 297 297 297 296 296 296 297 297 298 298 298 298 299 298 297 296 296 295 295
291 291 291 291 292 292 292 292 293 293 294 295 296 296 297 297 298 298 298 298 298 298 298 297 297 296 296 296 296 296 296 296 297 297 298 299 299 299 298 297 296 295
290 290 290 290 291 291 291 291 291 291 292 292 293 294 295 295 296 297 298 298 298 297 297 297 296 296 296 295 295 295 295 295 295 295 296 297 298 299 299 298 297 297
290 290 289 289 289 290 290 290 290 290 290 291 291 292 292 293 294 295 296 297 297 298 297 297 296 296 295 294 294 294 295 295 295 295 295 295 296 297 297 298 297 298
289 289 289 288 288 288 288 289 289 289 289 289 289 290 290 291 291 292 293 294 295 297 297 297 297 296 295 294 294 293 293 294 294 294 294 294 295 295 296 296 296 297
287 288 288 288 288 287 287 287 287 288 288 288 288 288 288 289 289 289 290 291 292 293 295 296 297 297 296 295 294 294 293 293 293 293 294 294 295 295 295 295 295 296
287 287 287 287 287 287 287 287 287 286 287 287 287 287 287 287 287 287 288 288 289 290 291 293 294 295 296 296 295 295 294 293 293 293 293 294 294 295 295 295 295 295
287 287 287 287 287 287 287 287 287 286 286 286 286 287 287 287 286 286 287 287 287 287 288 289 290 291 293 294 295 295 295 294 294 293 293 293 294 294 294 294 295 295
287 286 287 286 287 286 286 286 286 286 286 286 286 286 286 286 286 286 286 286 286 286 286 286 287 288 289 290 292 293 294 294 294 294 294 294 294 294 294 294 294 294
286 286 286 286 286 286 286 286 286 286 286 286 286 286 286 286 286 286 286 286 286 286 286 286 286 286 286 287 288 290 291 293 294 294 294 294 294 294 295 295 295 294
286 286 286 286 286 286 286 286 286 286 286 286 286 286 286 286 286 286 286 286 286 286 286 286 286 286 286 286 286 286 287 289 292 293 293 293 293 293 294 294 295 294
286 286 286 286 286 286 286 286 286 286 286 286 286 286 286 286 286 286 286 286 286 286 286 286 286 286 286 286 286 285 285 286 288 290 292 293 293 293 293 293 293 293
286 286 286 286 286 286 286 286 286 286 286 286 286 286 286 286 286 286 286 286 285 285 285 286 286 286 286 286 286 286 285 285 285 287 290 292 293 293 292 293 293 293
285 285 285 285 285 285 285 285 285 285 286 286 286 286 286 286 286 285 285 285 285 285 285 285 285 285 285 286 286 286 285 285 285 285 286 289 291 292 292 292 293 292
284 284 284 285 285 285 285 285 285 285 285 285 285 285 285 285 285 285 285 285 285 285 285 285 285 285 285 285 285 285 285 285 285 285 285 286 288 290 292 292 292 292
284 284 284 284 284 284 284 284 284 284 284 284 284 285 285 285 285 285 285 285 285 285 285 285 285 285 285 285 285 285 285 285 285 285 284 284 285 287 290 291 292 291
282 282 282 282 282 282 283 283 284 284 284 284 284 284 284 284 284 284 285 285 285 285 285 285 285 285 285 285 285 285 285 285 285 284 284 284 284 285 287 289 291 291
281 280 280 280 280 280 280 281 281 282 282 283 283 283 284 283 283 283 284 284 284 284 284 284 284 285 285 284 284 285 284 284 284 284 284 284 284 284 285 287 289 291
280 279 279 278 278 278 278 278 278 278 278 279 279 280 282 283 282 282 283 283 283 284 284 284 284 284 284 284 284 284 284 284 284 284 284 284 284 284 284 285 287 290
279 278 278 277 277 277 277 276 276 276 276 277 276 276 278 279 280 280 281 282 283 283 284 284 284 284 284 284 284 284 284 284 284 284 284 284 284 284 284 285 286 288

ECMWFNIL_850_thetae_021.txt.gz
Theta_e
295 294 294 294 294 294 294 294 294 295 295 296 296 296 297 298 298 299 299 299 299 300 300 300 300 299 299 298 298 298 298 298 298 298 298 298 298 298 299 298 298 297
292 292 292 292 292 292 292 292 292 292 293 293 293 293 294 294 295 296 296 297 298 299 299 299 300 300 299 299 298 298 298 298 298 298 297 297 297 297 298 298 298 297
290 290 290 290 290 290 290 290 290 290 290 291 291 291 291 292 292 292 293 293 295 296 297 298 299 299 299 299 299 298 298 297 297 297 297 297 297 297 297 297 297 297
289 289 289 289 289 288 288 288 289 289 289 289 289 289 289 289 290 290 290 290 291 292 293 294 295 297 298 299 299 299 298 298 297 297 297 297 297 297 297 296 296 296
288 288 288 288 288 288 288 288 288 288 288 288 288 288 288 288 288 288 289 289 289 289 290 290 291 292 293 295 296 298 298 298 298 297 297 297 297 296 296 296 296 296
288 288 288 288 288 288 288 288 288 287 287 287 287 287 287 287 287 287 287 287 287 288 288 288 288 289 289 290 292 293 295 296 297 297 297 297 297 296 296 295 296 296
288 288 288 288 288 288 288 288 288 288 288 287 287 287 287 287 287 287 287 286 286 287 287 287 287 287 288 288 288 289 290 291 293 294 296 297 297 297 296 295 294 294
287 287 287 287 287 288 288 288 288 287 287 287 287 287 287 287 287 287 287 287 286 286 286 286 286 286 287 287 287 287 288 288 289 290 291 293 294 296 297 296 295 294
287 287 287 287 287 287 287 287 287 287 287 287 287 287 287 287 287 287 287 287 287 287 287 286 286 286 286 286 286 286 287 287 287 287 288 288 289 291 293 294 295 296
287 287 287 287 287 287 287 287 287 287 287 287 287 287 287 287 287 287 287 287 287 287 287 287 287 286 286 286 286 286 286 286 286 286 286 287 287 288 288 289 291 293
287 287 287 287 287 287 287 287 286 286 286 286 286 286 286 286 286 286 286 286 286 286 286 286 286 286 286 286 286 286 286 286 286 286 286 286 286 286 287 287 287 288
287 287 287 287 287 287 286 286 286 286 286 286 286 286 286 286 286 286 286 286 286 286 286 286 286 286 286 286 286 286 286 286 286 286 286 286 286 286 286 286 286 286
287 287 287 286 286 286 286 286 286 286 286 286 285 285 285 285 285 285 285 285 285 285 285 285 285 286 286 286 286 286 286 286 286 286 286 286 286 286 286 286 286 286
287 286 286 286 286 286 285 285 285 285 285 285 285 285 285 285 285 285 285 285 285 285 285 285 285 285 285 285 285 285 285 285 285 285 285 285 286 286 286 286 286 286
286 286 286 285 285 285 285 285 285 285 285 285 285 285 285 285 285 285 285 285 285 285 285 285 284 284 285 284 284 284 285 285 285 285 285 285 285 285 285 285 286 286
286 286 285 285 285 285 285 285 284 284 284 284 284 284 284 284 284 284 285 284 285 285 284 284 284 284 284 284 284 284 284 284 284 284 285 285 285 285 285 285 285 285
285 285 285 285 284 284 284 284 284 284 284 284 284 284 284 284 284 284 284 284 284 284 284 284 284 284 284 284 284 283 283 283 283 283 283 283 284 284 284 285 285 285
284 284 284 284 284 283 283 283 283 283 283 283 283 283 283 283 283 283 283 283 283 283 283 283 283 284 284 283 283 283 283 282 282 282 282 282 283 283 283 284 284 284
283 283 283 283 283 283 282 282 282 282 282 281 281 281 281 282 282 282 282 282 282 283 283 283 284 284 284 284 283 283 283 282 282 282 282 282 282 282 283 283 283 283
283 283 283 283 282 282 281 281 281 281 281 280 280 281 281 281 282 282 282 282 282 282 282 282 283 284 283 283 282 282 281 280 280 280 280 281 281 281 282 282 283 283
283 283 282 282 282 281 281 280 280 280 280 280 280 280 281 281 281 281 281 281 281 280 280 281 282 282 282 281 280 280 279 278 277 278 278 279 280 280 281 281 281 282
282 282 282 281 281 281 280 280 280 280 280 280 280 280 280 280 280 280 280 280 280 279 278 279 280 280 279 278 277 277 276 276 276 276 276 277 278 279 279 280 280 281
282 282 281 281 281 280 280 281 281 281 280 279 279 279 279 279 279 279 279 278 278 278 276 276 277 278 276 274 274 274 273 273 273 274 274 275 276 277 277 278 278 279
281 281 281 280 280 280 280 280 280 280 280 279 278 278 279 278 278 277 278 277 276 275 274 273 274 275 273 271 271 272 271 271 271 272 272 273 274 275 275 275 276 277
281 280 280 280 280 280 280 280 280 279 279 278 278 277 277 277 276 275 276 275 273 272 271 270 271 272 271 270 270 270 269 269 270 270 271 271 272 273 273 273 274 275
280 280 280 280 280 280 279 279 279 279 278 278 277 277 276 276 275 273 273 273 271 269 269 269 268 269 269 268 267 268 268 269 269 269 270 270 271 271 271 272 272 273

ECMWFNIL_850_thetae_024.txt.gz
Theta_e
294 293 293 293 292 292 291 291 291 290 290 290 290 290 289 289 289 290 290 290 291 291 292 292 293 294 294 296 296 297 297 297 297 297 297 297 298 298 298 298 298 299
291 291 291 291 291 290 290 290 290 289 289 289 289 289 289 289 289 289 289 289 289 289 289 289 289 290 290 291 292 292 293 294 295 295 296 296 296 297 297 297 297 298
290 290 290 290 289 289 289 289 288 288 288 288 288 288 288 288 288 288 288 288 288 288 288 288 288 288 288 288 288 289 289 290 291 292 292 293 294 295 296 296 296 297
289 289 289 288 288 288 288 288 288 288 288 288 288 288 288 288 288 288 288 288 288 287 287 287 287 287 287 287 287 287 287 287 288 288 288 289 290 291 293 294 295 295
289 289 288 288 288 288 288 288 288 288 288 288 288 288 288 288 288 288 288 288 288 288 287 287 287 287 287 287 287 287 287 287 287 287 287 287 288 288 289 290 291 292
288 288 288 288 288 288 288 288 288 288 288 288 287 287 287 287 287 287 287 288 288 288 287 287 287 287 287 287 287 287 287 287 287 286 286 286 287 287 287 287 288 288
288 288 288 288 288 288 288 288 287 287 287 287 287 287 287 287 287 287 287 287 287 287 287 287 287 287 287 287 287 287 287 287 287 287 287 286 286 286 286 286 286 287
288 288 288 287 287 287 287 287 287 287 287 287 287 286 286 286 286 286 286 286 286 286 286 286 287 287 287 287 287 287 287 287 287 287 287 287 287 287 286 286 286 286
288 287 287 287 287 287 287 287 286 286 286 286 286 286 286 286 286 286 286 286 286 286 286 286 286 286 286 287 287 287 287 287 287 287 286 286 286 286 286 286 286 286
287 287 287 287 287 287 286 286 286 286 286 286 286 286 286 286 286 286 286 286 286 286 286 286 286 286 286 286 286 286 286 286 286 286 286 286 286 286 286 286 286 286
287 287 287 287 287 286 286 286 286 286 286 286 286 286 286 286 286 286 286 286 286 286 286 286 286 286 286 286 286 285 285 285 285 285 285 285 285 285 286 286 286 286
287 287 287 287 286 286 286 286 286 285 285 285 286 286 286 286 286 286 286 286 286 286 286 286 286 286 286 285 285 285 285 284 284 284 284 284 284 285 285 285 285 285
288 287 287 287 287 286 286 286 285 285 285 285 285 285 285 285 286 286 286 286 286 286 286 286 285 285 285 285 284 284 284 284 284 284 284 284 284 284 284 284 284 284
288 287 287 287 286 286 285 285 285 285 285 285 285 285 285 285 285 285 285 286 286 285 285 285 285 285 285 285 284 284 284 284 284 284 284 284 284 284 284 284 284 284
287 287 287 286 286 286 285 285 285 285 285 285 285 285 285 285 285 285 285 285 285 285 285 285 285 285 285 285 284 284 284 283 283 283 283 283 284 284 284 284 284 283
288 287 287 286 286 285 285 285 285 285 285 284 285 285 285 285 285 285 285 284 285 285 285 285 285 285 285 285 284 284 283 283 283 283 283 283 283 283 284 284 284 284
288 288 287 286 286 285 285 285 284 284 284 284 284 284 284 284 284 284 284 284 284 285 285 285 285 285 284 284 284 283 282 282 282 282 283 282 282 282 283 284 284 284
288 288 287 286 285 285 284 284 284 284 284 284 284 284 284 284 284 284 284 284 284 284 284 285 285 284 283 283 283 282 281 280 280 281 282 282 283 282 282 283 283 283
288 287 286 285 284 284 284 284 283 283 283 283 283 283 283 283 284 284 284 284 284 284 284 284 284 283 282 282 281 280 279 278 278 279 280 280 281 281 281 281 281 281
287 286 285 284 284 284 283 283 283 283 283 283 283 283 283 283 284 284 284 284 283 283 283 283 283 282 280 280 279 278 277 276 276 276 276 277 278 279 279 279 279 279
286 285 284 283 283 283 283 282 282 282 282 282 282 283 283 283 283 284 283 283 283 282 282 283 282 280 279 278 277 276 275 274 273 273 273 274 276 276 276 276 277 277
284 283 283 283 283 282 282 282 282 282 282 282 282 283 283 283 283 283 282 282 282 281 280 281 281 279 277 277 275 274 273 272 271 272 272 273 274 274 274 275 275 275
283 283 283 283 282 282 282 282 282 282 282 282 282 282 282 282 282 282 282 281 281 280 279 280 280 278 275 275 274 272 272 271 270 270 270 270 271 271 272 272 273 273
283 283 282 282 282 282 282 281 281 281 282 282 281 282 282 282 281 281 281 279 279 279 277 277 278 277 274 273 273 272 271 270 269 269 268 268 269 269 269 270 270 270
282 282 282 281 281 281 281 281 281 281 281 281 281 281 281 281 280 280 280 278 277 277 276 275 275 275 273 272 272 271 270 269 268 268 268 268 268 268 268 269 269 269
282 282 281 281 281 281 281 281 281 281 281 281 281 280 280 280 279 278 278 277 276 275 274 273 273 273 272 271 271 270 269 268 267 267 267 268 268 268 268 268 268 269

ECMWFNIL_850_thetae_027.txt.gz
Theta_e
294 293 293 293 293 292 292 292 291 291 291 290 290 290 290 289 289 289 289 289 289 289 289 289 289 289 289 289 289 289 288 288 288 288 288 288 288 288 288 289 290 290
292 292 291 291 291 291 291 291 291 290 290 290 290 289 289 289 289 288 288 288 288 288 288 288 288 288 288 288 288 288 288 288 288 288 288 288 288 288 288 288 288 288
290 290 290 290 290 290 290 290 290 290 290 290 289 289 289 289 289 288 288 288 288 287 287 287 287 287 287 287 287 287 287 287 287 288 287 287 287 287 287 287 287 287
289 289 289 289 289 289 288 288 288 288 288 288 288 288 288 288 288 288 288 288 288 288 288 287 287 287 287 287 287 287 287 287 287 287 287 287 287 287 287 287 287 287
288 288 288 288 288 288 288 288 288 288 288 287 287 287 287 288 288 288 288 288 288 288 288 288 287 287 287 287 287 287 287 287 287 287 287 287 287 287 287 287 287 287
288 288 288 288 288 288 288 288 288 287 287 287 287 287 287 287 287 287 287 287 287 287 287 287 287 287 287 287 287 287 287 287 287 287 287 287 287 288 287 287 287 287
288 288 288 287 287 287 287 287 287 287 287 287 287 287 287 287 286 286 287 287 287 287 287 287 287 287 287 287 287 287 287 287 287 287 287 287 287 288 287 287 287 287
287 287 288 287 287 287 287 287 287 287 287 287 287 286 286 286 286 286 286 286 286 286 286 286 286 287 287 287 287 287 287 287 287 287 287 288 288 288 288 287 287 287
288 288 288 287 287 287 287 287 287 286 286 286 286 286 286 286 286 286 286 286 286 286 286 286 286 286 286 286 286 287 287 287 287 287 287 287 287 287 287 287 287 287
288 288 287 287 287 287 287 287 287 286 286 286 286 286 286 286 286 286 286 286 286 286 286 286 286 286 286 286 286 286 286 286 287 287 287 287 287 287 287 287 287 287
288 288 288 287 288 287 287 287 287 287 286 286 286 286 286 286 286 286 286 286 286 286 286 286 286 286 286 286 286 286 286 286 286 286 286 286 286 286 286 286 286 287
288 288 288 288 288 288 287 287 287 287 287 286 286 286 286 286 286 286 286 286 286 286 286 286 286 286 286 286 286 285 286 286 286 286 286 286 286 286 286 286 286 286
288 288 288 288 288 288 288 288 287 287 287 286 286 286 286 286 285 285 285 285 286 286 285 286 285 285 285 285 285 285 285 286 286 286 286 286 286 286 286 286 286 285
288 288 288 288 288 288 288 288 288 287 287 286 286 285 285 285 285 285 285 285 285 285 285 285 285 285 285 285 285 285 285 285 285 286 286 286 286 286 286 285 285 285
289 289 289 288 288 288 288 288 288 288 287 286 285 285 285 285 285 285 285 285 285 285 285 285 285 285 285 285 285 285 285 285 285 285 285 285 285 286 286 286 285 285
289 289 289 289 288 288 288 288 288 288 287 286 285 285 285 285 284 284 284 284 284 285 285 284 284 285 285 284 284 284 284 284 285 285 285 285 285 285 285 285 285 285
289 289 289 288 288 288 288 288 288 288 287 286 285 285 285 284 284 284 284 284 284 284 284 284 284 284 284 284 284 284 283 283 284 284 284 284 284 284 285 285 285 284
289 289 289 288 288 288 288 288 288 287 286 285 285 285 285 284 284 284 284 283 283 284 284 284 284 284 284 284 284 283 282 282 282 283 283 283 283 283 283 283 282 282
289 289 288 288 288 288 288 287 287 287 286 285 284 284 284 284 283 283 283 283 283 283 284 284 284 284 284 283 283 282 281 281 281 281 281 282 282 281 280 280 279 278
289 288 288 288 288 287 287 287 286 286 285 284 284 284 283 283 283 283 283 283 283 283 284 284 284 284 283 283 282 282 281 280 280 280 280 280 279 278 277 277 276 276
288 288 288 288 287 287 287 286 285 284 284 284 283 283 283 283 283 283 283 283 283 283 283 284 283 283 282 282 281 281 280 279 279 279 279 278 277 276 275 275 275 274
288 288 288 287 287 287 286 285 284 283 283 283 283 283 283 282 282 282 282 283 283 283 283 283 283 282 281 281 281 280 279 279 278 277 277 276 275 274 274 274 273 272
288 287 287 287 287 286 285 284 283 283 283 283 282 282 282 282 282 282 282 282 283 282 282 282 283 281 280 280 280 278 277 277 276 275 274 274 274 273 273 272 271 269
287 287 287 286 286 285 284 283 283 283 282 282 282 282 282 282 282 282 282 282 282 282 281 281 282 281 279 279 278 277 276 275 274 274 273 273 273 272 271 270 270 269
287 286 286 286 285 285 284 283 283 282 282 281 281 281 281 281 281 282 282 282 281 281 280 280 280 280 279 278 277 276 275 274 273 272 272 272 272 272 271 270 269 269
286 286 285 285 284 283 283 282 282 282 281 281 281 281 281 281 281 281 281 281 281 280 280 279 278 279 278 277 276 275 274 273 272 272 272 272 271 271 270 269 269 269

ECMWFNIL_850_thetae_030.txt.gz
Theta_e
296 295 295 295 294 294 293 293 292 291 291 291 290 290 290 289 289 288 288 288 288 288 288 288 288 288 288 288 288 288 288 288 288 288 288 288 288 288 288 288 288 288
294 294 294 293 293 293 292 292 291 291 291 290 290 290 289 289 288 288 288 287 287 287 287 287 287 288 288 288 288 288 288 288 288 288 288 288 288 288 288 288 288 288
293 293 293 292 292 291 291 291 291 290 290 290 289 289 289 288 288 288 288 288 287 287 287 288 288 288 288 287 287 287 287 288 288 288 288 288 288 288 288 288 288 288
292 291 291 291 290 290 290 290 290 289 289 289 289 288 288 288 288 288 288 288 288 288 288 288 288 288 288 288 288 288 288 288 288 288 288 288 288 288 288 288 288 288
290 290 289 289 289 289 288 288 288 288 288 287 287 287 287 287 287 287 287 287 287 287 287 287 287 287 287 287 288 287 288 288 288 288 288 288 288 288 288 288 288 288
289 289 288 288 288 288 288 288 287 287 287 287 287 287 287 287 287 287 287 286 286 286 286 286 287 287 287 287 287 287 287 287 287 287 288 288 288 288 288 288 288 288
288 288 288 288 288 288 287 287 287 287 287 287 286 286 286 286 286 286 286 286 286 286 286 286 286 286 286 286 287 287 287 287 287 287 287 287 287 287 288 287 288 288
288 288 288 287 287 287 287 287 287 287 287 286 286 286 286 286 286 286 286 286 286 286 286 286 286 286 286 286 286 287 287 287 287 287 287 287 287 287 287 287 287 287
287 287 287 287 287 287 287 287 287 287 287 287 287 286 286 286 286 286 286 286 286 286 286 286 286 286 286 286 286 286 286 286 287 287 287 287 287 287 287 287 287 287
287 287 287 287 287 287 288 288 288 288 287 287 287 287 287 287 287 286 286 286 286 286 286 286 286 286 286 286 286 286 286 286 286 286 286 286 287 287 287 287 287 287
287 288 288 288 288 288 288 288 288 288 288 288 288 288 288 288 287 287 286 286 286 286 285 285 285 285 285 285 285 285 285 286 286 286 286 286 286 286 286 286 286 286
288 288 288 288 288 288 288 288 288 288 288 288 288 288 288 288 288 287 287 286 286 285 285 285 285 285 285 285 285 285 285 285 285 285 285 286 286 286 286 286 285 286
288 288 288 288 288 288 288 288 288 288 288 288 288 288 288 288 288 287 287 286 285 285 285 285 285 285 285 285 285 285 285 285 285 285 285 285 285 285 285 285 285 285
288 288 289 289 289 289 288 288 288 288 288 288 288 288 288 288 288 287 287 286 285 285 285 285 284 284 284 284 284 284 284 284 284 285 285 285 285 285 285 285 285 285
288 289 289 289 289 289 289 288 288 288 288 288 288 288 288 288 288 287 287 286 285 285 285 284 284 284 284 284 284 284 284 284 284 284 284 285 285 285 285 285 285 285
288 289 289 289 289 289 289 288 288 288 288 288 288 288 288 288 288 287 287 286 285 285 284 284 284 284 283 283 283 283 283 284 284 284 284 284 284 285 285 284 284 284
288 289 289 289 289 289 289 289 288 288 288 288 288 288 288 288 288 287 287 286 285 284 284 284 283 283 283 283 283 283 283 283 284 284 284 284 284 284 284 284 284 283
289 289 289 289 289 289 289 289 288 288 288 288 288 287 287 287 287 287 286 285 284 284 284 283 283 283 283 282 283 283 283 283 283 283 283 283 283 283 283 283 282 282
289 289 289 289 289 289 289 288 288 288 288 288 287 287 287 287 287 286 285 284 284 284 283 283 283 282 282 282 283 283 282 282 282 283 283 283 282 282 281 281 281 280
289 289 289 289 289 289 288 288 288 288 287 287 287 287 287 286 286 285 284 284 283 283 283 283 282 282 282 282 282 282 282 282 282 282 282 282 281 281 280 280 279 278
289 289 289 289 288 288 288 288 288 287 287 287 287 287 286 286 285 284 284 283 283 282 282 282 282 282 282 282 282 282 281 281 281 281 281 281 281 280 279 279 278 277
289 289 289 288 288 288 288 287 287 287 287 287 287 286 286 285 284 283 283 283 282 282 282 282 282 282 282 282 282 281 281 281 281 281 280 280 280 279 278 277 277 276
289 288 288 288 288 287 287 287 287 287 287 287 286 286 285 285 284 283 283 282 282 282 282 282 282 282 282 282 281 281 280 280 280 280 279 279 279 278 277 276 275 274
288 288 288 287 287 287 287 287 287 287 287 286 286 286 285 284 283 283 282 282 282 281 281 282 282 282 281 281 281 280 279 279 279 279 278 278 278 277 276 276 275 274
288 288 287 287 287 287 287 287 287 287 286 286 285 285 284 283 282 282 282 281 281 281 281 281 282 281 281 280 280 279 278 278 278 278 278 277 277 277 276 275 274 274
287 287 287 287 287 287 287 286 286 286 286 285 284 284 283 282 282 281 281 281 281 281 281 281 281 281 281 280 279 278 278 277 277 277 277 277 277 276 275 274 273 272

ECMWFNIL_850_thetae_033.txt.gz
Theta_e
296 295 295 295 294 294 294 294 293 293 293 292 292 292 291 291 290 290 289 289 289 288 288 288 288 288 288 288 288 288 288 288 288 288 288 288 288 288 288 288 288 288
295 295 294 294 294 294 293 293 293 293 292 292 292 291 291 290 289 289 289 288 288 288 288 288 288 288 288 288 288 287 287 287 287 287 287 287 287 287 288 288 288 288
294 294 294 293 293 293 293 292 292 292 291 291 290 290 290 289 289 289 288 288 288 288 288 288 288 288 288 288 288 288 288 288 288 288 288 288 288 287 287 287 287 287
294 293 293 293 292 292 292 291 291 290 290 290 289 289 289 289 288 288 288 288 288 288 288 288 288 288 288 288 288 288 288 288 288 288 288 287 287 287 287 287 287 287
293 292 292 291 291 291 290 290 289 289 289 288 288 288 288 288 288 287 287 287 287 287 287 287 287 287 287 287 287 287 287 287 287 287 287 287 287 287 287 287 287 287
292 291 290 290 290 289 289 288 288 288 288 288 287 287 287 287 287 287 287 287 286 286 286 286 286 286 286 286 286 286 286 286 286 286 286 286 286 287 287 287 287 287
290 290 289 289 288 288 288 288 288 287 287 287 287 287 287 287 287 287 287 287 287 286 286 286 286 286 286 286 286 286 286 286 286 286 286 286 286 286 286 286 286 286
289 289 288 288 288 288 288 288 288 287 288 288 288 288 288 288 288 287 287 287 287 287 287 286 286 286 286 286 286 286 286 286 286 286 286 286 286 286 286 286 286 286
288 288 288 288 288 288 288 288 288 288 288 288 288 288 288 288 288 288 288 288 288 288 287 287 286 286 286 285 285 285 285 285 285 285 285 285 285 286 286 286 286 286
288 288 288 288 287 288 288 288 288 288 288 288 288 288 288 288 288 288 288 288 288 288 287 287 287 286 286 285 285 285 285 285 285 285 285 285 285 285 285 285 285 285
288 288 287 287 288 288 288 288 288 288 288 288 288 288 288 288 288 288 288 288 288 288 288 287 287 286 286 285 285 285 285 285 285 285 285 285 285 285 285 284 284 284
288 287 287 287 288 288 288 288 288 288 288 288 288 288 288 288 288 288 288 288 288 288 288 288 287 286 286 285 285 285 284 284 284 284 284 284 284 284 284 284 284 284
287 287 287 287 288 288 288 288 288 288 288 288 288 288 288 288 288 288 287 287 287 287 287 287 287 286 286 285 285 284 284 284 284 284 284 284 284 284 284 284 284 284
287 287 287 287 288 288 288 289 288 288 288 288 288 288 288 288 288 288 287 287 287 287 287 287 287 286 285 285 284 284 284 284 284 284 284 284 284 284 283 283 284 284
287 287 287 288 288 289 288 288 288 288 288 288 288 288 288 288 288 288 288 287 287 287 287 287 286 286 285 284 284 284 283 283 283 283 283 283 283 283 283 283 283 284
287 287 287 288 288 288 288 288 288 288 288 288 288 288 288 288 288 288 287 287 287 287 286 286 286 285 284 283 283 283 283 283 283 283 283 283 283 283 283 283 283 283
287 287 288 288 288 288 288 288 288 288 288 288 288 288 288 288 288 287 287 287 287 286 286 286 285 284 283 283 283 282 282 282 283 283 283 283 283 283 283 283 283 283
287 287 288 288 288 288 288 288 288 288 288 288 288 288 288 288 287 287 287 287 287 286 286 286 285 284 283 282 282 282 282 282 282 282 282 282 282 283 283 283 283 283
287 288 288 288 288 288 288 288 288 288 288 288 288 288 288 287 287 287 287 287 286 286 286 285 284 283 282 282 282 282 281 281 282 282 282 282 282 282 282 282 282 282
287 287 288 288 288 288 288 288 288 288 288 288 288 288 287 287 287 287 287 286 286 285 285 285 283 282 282 282 281 281 281 281 281 282 282 282 282 282 282 282 281 281
288 288 288 288 288 288 288 288 287 287 287 287 287 287 287 287 287 287 287 286 286 285 285 284 283 282 281 281 281 281 281 281 281 281 282 282 282 282 281 281 281 280
288 288 288 288 288 288 288 287 287 287 287 287 287 287 287 287 287 287 286 286 285 285 284 283 282 281 281 281 281 281 281 281 281 281 281 281 281 281 281 280 280 279
289 288 288 288 288 288 288 287 287 287 287 287 287 287 287 287 286 286 286 285 285 284 284 282 282 281 281 281 281 281 281 281 281 281 281 281 281 280 280 279 279 278
289 289 288 288 288 288 287 287 287 287 287 287 287 287 287 286 286 286 286 285 285 284 283 282 281 281 281 281 281 280 280 280 280 281 281 280 280 280 279 279 278 278
288 288 288 288 288 287 287 287 287 287 286 286 286 286 286 286 286 286 285 285 284 283 281 281 281 281 280 280 280 280 280 280 280 280 280 280 279 279 278 278 278 278
288 288 288 287 287 287 287 286 286 286 286 286 286 286 286 286 286 285 285 284 283 282 281 281 281 281 280 280 280 280 279 279 279 279 279 279 278 278 278 278 278 278

ECMWFNIL_850_thetae_036.txt.gz
Theta_e
296 295 295 294 294 294 293 293 292 291 291 291 291 291 291 290 290 290 289 289 289 288 288 288 288 288 288 287 287 288 287 287 288 287 287 287 287 287 287 287 287 287
295 295 295 294 294 294 293 292 292 291 291 291 291 291 291 290 290 289 289 288 288 288 288 288 288 288 288 288 288 288 288 288 288 288 288 288 288 288 287 287 287 287
295 295 295 295 294 294 293 293 292 292 291 291 291 291 290 290 289 289 288 288 288 288 288 288 288 288 288 288 288 288 288 288 288 288 288 288 288 288 287 287 287 287
295 295 295 294 294 294 293 293 292 292 291 291 291 290 289 289 289 289 288 288 288 288 288 288 288 288 288 288 288 288 288 287 287 287 287 287 287 287 287 287 287 287
295 295 294 294 293 293 292 292 292 292 291 290 290 289 289 289 288 288 288 288 288 288 288 288 288 288 288 288 288 287 287 287 287 287 286 286 286 286 286 286 286 286
294 294 293 293 292 292 292 291 291 290 290 289 289 289 288 288 288 288 288 288 288 288 288 288 288 288 288 287 287 287 287 287 286 286 286 286 286 286 286 286 286 286
293 293 292 292 291 291 291 290 290 289 289 289 288 288 288 288 288 288 288 288 288 288 288 288 288 288 288 288 287 287 287 286 286 286 286 286 286 286 286 285 285 285
292 292 291 291 291 290 290 289 289 288 288 288 288 288 288 288 288 288 288 288 288 288 288 288 288 288 288 288 288 287 287 286 286 286 286 285 285 285 285 285 285 285
292 291 291 290 290 289 289 288 288 288 288 288 288 288 288 288 288 288 288 288 288 288 288 288 288 288 288 288 288 287 287 287 286 286 285 285 285 285 284 284 284 284
291 291 290 290 289 289 288 288 288 288 288 288 288 288 288 288 288 288 288 288 288 288 287 287 287 287 287 287 287 287 287 287 286 286 285 285 285 284 284 284 284 284
290 290 290 289 289 289 288 288 288 288 288 288 288 288 288 288 288 288 288 288 288 288 287 287 287 287 287 287 287 287 287 287 286 286 285 285 284 284 284 284 284 284
289 289 289 289 289 288 288 288 288 288 288 288 288 288 288 288 288 288 288 288 288 288 288 288 287 287 287 286 287 287 287 287 286 285 285 284 284 284 284 283 283 283
288 289 289 288 288 288 288 288 288 288 288 288 288 288 288 288 288 288 288 288 288 288 288 288 287 287 287 286 286 286 286 286 286 285 284 284 284 283 283 283 283 283
288 288 288 288 288 288 288 288 288 288 289 288 288 288 288 288 288 288 288 288 288 288 288 287 287 287 287 286 286 286 286 285 285 284 284 283 283 283 283 283 283 283
288 288 288 288 287 287 288 288 288 288 289 289 288 289 288 288 288 288 288 288 288 288 287 287 287 287 287 286 286 286 285 285 284 284 283 283 283 283 283 283 283 283
288 288 288 287 287 287 287 288 288 288 289 288 288 288 288 288 288 288 288 288 287 287 287 287 287 286 286 286 285 285 285 284 284 283 283 283 283 283 283 282 282 283
288 288 287 287 287 287 287 287 288 288 288 288 288 288 288 288 288 288 288 287 287 287 287 287 287 286 286 285 285 285 284 283 283 282 282 282 282 282 282 282 282 282
288 288 287 287 287 287 287 287 288 288 288 288 288 288 288 288 288 287 287 287 287 287 287 287 286 286 285 285 285 284 283 282 282 282 282 282 282 282 282 282 282 282
288 288 287 287 287 287 287 287 288 288 288 288 288 288 288 287 287 287 287 287 287 287 287 286 286 286 285 285 284 283 282 281 282 282 282 282 282 282 282 282 282 282
289 288 287 287 287 287 287 287 288 288 288 288 288 288 287 287 287 287 287 287 286 286 286 286 286 285 285 284 284 282 281 281 281 281 281 282 282 281 281 281 281 281
289 289 288 287 287 287 287 287 287 288 288 288 288 287 287 287 287 287 286 286 286 286 286 286 285 285 284 284 283 282 281 281 281 281 281 281 281 281 281 281 281 281
289 289 288 288 287 287 287 287 288 288 288 288 288 287 287 287 287 286 286 286 286 286 286 286 285 285 284 283 282 281 281 281 281 281 281 281 281 281 281 281 281 281
289 289 289 288 288 288 288 288 288 288 288 288 287 287 287 286 286 286 286 286 286 286 286 286 285 284 283 282 281 281 281 281 281 281 281 281 281 281 281 281 281 280
289 289 289 289 289 289 288 288 288 288 287 287 287 287 287 286 286 286 286 286 286 286 286 285 285 284 282 281 281 281 281 281 281 281 281 281 281 281 281 280 280 279
289 289 289 289 289 288 288 288 288 288 287 287 287 286 286 286 286 286 286 286 286 286 285 285 284 283 282 281 281 281 280 281 281 281 281 281 281 280 280 280 279 279
288 288 288 288 288 288 288 288 288 287 287 287 286 286 286 286 286 286 286 286 286 285 285 284 284 282 281 281 281 280 280 280 280 280 280 280 280 280 279 279 279 279

ECMWFNIL_850_thetae_039.txt.gz
Theta_e
297 297 296 296 295 295 294 294 294 293 293 293 292 292 292 291 291 291 290 290 290 289 289 289 289 288 288 288 288 288 288 288 288 288 288 288 288 288 288 288 287 287
297 296 296 296 295 295 294 294 294 293 293 293 292 292 292 291 291 291 290 290 289 289 289 289 289 288 288 289 289 289 289 289 289 289 289 289 289 289 289 288 288 288
297 296 296 295 295 295 294 294 294 293 293 293 292 292 292 291 291 290 290 289 289 289 289 289 289 289 289 289 289 289 289 289 289 289 289 289 289 288 288 288 288 287
296 296 296 295 295 294 294 294 294 294 293 293 292 292 292 291 291 290 290 289 289 289 289 289 289 289 289 289 289 289 289 289 289 289 289 289 288 288 288 287 287 287
296 296 295 295 294 294 294 294 294 294 293 293 292 292 291 291 290 289 289 289 289 289 289 289 289 289 289 289 289 289 289 289 289 289 289 288 288 288 287 287 287 286
296 296 295 294 294 294 294 294 294 293 293 293 292 291 291 290 289 289 289 289 289 289 289 289 289 289 289 289 289 289 288 288 288 288 288 288 288 287 287 287 286 286
295 295 295 294 294 294 294 294 293 293 293 292 291 290 290 289 289 289 289 289 289 289 289 289 289 288 288 288 288 288 288 288 288 288 288 288 287 287 287 286 286 286
294 294 294 294 293 293 293 293 293 292 292 291 290 290 289 289 289 289 289 289 289 289 289 288 288 288 288 288 287 287 287 287 287 287 287 287 287 287 287 286 286 285
293 293 292 292 292 292 292 292 291 291 291 290 290 289 289 289 289 289 289 289 289 288 288 288 288 288 288 288 287 287 287 287 287 287 287 287 287 287 286 286 285 285
292 292 291 291 291 291 290 290 290 290 290 289 289 289 289 288 288 288 288 288 288 288 288 288 288 288 288 288 287 287 287 287 287 286 286 286 286 286 286 285 285 284
292 291 290 290 290 290 290 289 289 289 289 289 289 288 288 288 288 288 288 288 288 288 288 288 288 288 288 288 288 288 287 287 287 286 286 286 286 286 285 285 284 284
291 290 289 289 289 289 289 289 289 289 288 288 288 288 288 288 288 288 288 288 288 288 288 288 288 288 288 288 288 288 288 287 287 286 286 286 286 285 285 284 284 283
290 289 289 289 289 289 289 288 288 288 288 288 288 288 288 288 288 288 288 288 288 288 288 288 288 288 288 288 288 288 287 287 287 286 286 286 285 285 284 283 283 283
290 289 289 288 288 288 288 288 288 288 288 288 288 288 289 289 289 289 288 288 288 288 288 288 288 288 288 288 288 287 287 287 287 286 286 285 285 284 283 283 283 283
289 289 289 288 288 288 288 288 288 288 288 288 288 288 289 289 289 289 288 288 288 288 288 288 288 288 288 287 287 287 287 287 287 286 285 285 284 283 282 282 282 283
289 289 288 288 288 288 288 287 287 288 287 288 288 288 289 289 289 288 288 288 288 288 288 288 288 287 287 287 287 287 287 287 286 286 285 285 284 283 282 282 282 282
290 289 288 288 288 287 287 287 287 287 287 288 288 288 288 288 288 288 288 288 288 288 288 288 287 287 287 287 287 287 287 286 286 285 285 284 283 282 282 282 282 282
290 288 288 288 287 287 287 287 287 287 287 287 288 288 288 288 288 288 288 288 288 288 288 287 287 287 287 287 287 286 286 286 285 285 285 284 282 282 282 282 282 282
289 288 288 288 287 287 287 287 287 287 287 287 287 288 288 288 288 288 288 288 288 287 287 287 287 287 287 286 286 286 286 285 285 285 284 283 282 282 282 282 282 282
289 288 288 288 287 287 287 287 287 287 287 287 287 287 287 288 287 287 287 287 287 287 287 287 287 286 286 286 286 286 286 285 285 284 283 282 281 281 281 281 281 281
290 289 289 288 288 287 287 287 287 287 287 287 287 287 287 287 287 287 287 287 287 287 287 287 286 286 286 286 286 286 285 285 284 284 282 281 281 281 281 281 281 281
291 290 290 290 289 288 288 288 288 287 287 287 286 287 287 287 287 287 287 287 287 287 287 287 286 286 286 286 286 285 285 284 284 283 282 281 281 281 281 281 281 281
292 292 291 291 290 289 289 289 289 288 287 287 287 287 287 287 287 287 287 287 287 287 287 286 286 286 286 286 285 285 284 284 284 282 281 281 281 281 281 281 281 281
293 292 292 291 291 290 289 289 289 288 288 288 288 288 288 287 287 287 287 287 287 287 286 286 286 286 286 285 285 285 284 284 283 282 281 281 281 281 281 281 281 281
293 292 292 291 290 290 289 289 289 289 289 288 288 288 288 287 287 287 287 287 287 286 286 286 286 286 285 285 285 284 284 283 282 281 281 281 281 280 280 280 280 280
293 292 291 290 290 289 289 289 289 289 288 288 288 288 288 287 287 287 287 287 286 286 286 286 285 285 285 285 284 284 283 282 281 280 280 280 280 280 280 280 280 279

ECMWFNIL_850_thetae_042.txt.gz
Theta_e
298 298 298 298 297 297 296 296 296 295 295 295 295 295 294 294 294 293 293 293 292 292 291 291 290 290 290 289 289 290 290 290 290 290 290 290 290 290 289 289 289 289
298 298 298 297 297 296 296 296 296 295 295 295 295 295 294 294 294 293 293 293 292 292 291 291 290 290 290 290 290 290 290 290 290 290 290 290 290 289 289 289 289 289
298 298 297 297 297 296 296 296 295 295 295 295 295 295 294 294 294 294 293 293 293 292 291 291 290 290 290 290 291 291 290 290 290 290 290 290 289 289 289 289 289 288
298 298 297 297 296 296 296 296 295 295 295 295 295 294 294 294 294 294 293 293 292 292 291 291 290 290 290 290 290 290 290 290 290 289 289 289 288 288 288 288 288 288
298 297 297 296 296 296 296 295 295 295 295 295 294 294 294 294 294 293 293 292 292 291 291 290 290 290 290 290 290 290 290 289 289 289 288 288 288 288 287 287 287 287
297 297 297 296 296 296 295 295 295 295 295 294 294 294 294 293 293 292 292 291 291 291 290 290 290 290 290 290 289 289 289 289 288 288 288 287 287 287 287 287 287 287
297 297 296 296 295 295 295 295 295 295 294 294 294 293 293 293 292 291 291 290 290 290 290 290 290 290 289 289 289 289 288 288 288 288 287 287 287 287 287 287 286 287
297 297 296 295 295 295 295 295 295 294 294 294 293 293 292 292 291 291 290 290 289 289 289 289 289 289 289 289 289 288 288 288 288 288 287 287 287 287 286 286 286 286
296 296 295 295 295 295 295 295 294 294 293 293 293 292 292 291 290 290 289 289 289 289 289 289 289 289 289 289 288 288 288 288 288 288 287 287 287 287 286 286 286 286
295 295 295 295 295 295 294 294 293 293 293 292 292 291 291 290 290 289 289 289 289 289 289 289 289 289 289 288 288 288 288 288 288 288 287 287 287 287 286 286 286 286
295 294 294 294 294 294 293 293 292 292 292 292 291 291 290 290 289 289 289 289 289 289 289 289 289 288 288 288 288 288 288 288 288 288 287 287 287 287 286 286 286 285
295 294 294 293 293 292 292 292 292 291 291 291 290 290 289 289 289 288 288 288 289 289 289 289 289 289 288 288 288 288 288 288 288 288 288 287 287 287 286 286 285 285
294 294 293 293 292 291 291 291 291 290 290 290 290 289 289 288 288 288 288 288 289 289 289 289 289 289 288 288 288 288 288 288 288 288 288 287 287 287 286 286 285 285
294 293 292 291 291 291 291 290 290 290 290 289 289 289 288 288 288 288 288 289 289 289 289 289 289 289 289 288 288 288 288 288 288 288 288 287 287 287 286 285 285 284
293 292 291 291 290 290 290 290 290 290 289 289 289 288 288 288 288 288 288 289 289 289 289 289 289 289 289 288 288 288 288 288 288 287 287 287 287 287 286 285 285 284
292 291 291 290 290 290 290 290 289 289 289 288 288 288 288 288 288 288 288 289 289 289 289 289 288 288 288 288 288 288 288 287 287 287 287 287 287 286 285 285 285 284
292 291 291 290 291 291 290 289 289 288 288 288 288 288 288 288 288 288 288 288 289 289 288 288 288 288 288 288 288 287 287 287 287 287 287 287 287 286 285 285 284 283
292 291 291 291 291 291 290 289 288 288 288 288 288 288 288 288 288 288 288 288 288 288 288 288 288 288 288 287 287 287 287 287 287 287 287 287 286 285 285 284 283 282
292 292 292 292 292 291 289 288 288 288 288 287 287 287 287 287 287 287 287 288 288 288 288 288 288 287 287 287 287 287 287 287 287 287 287 286 286 285 285 284 283 282
293 293 293 292 292 290 289 288 288 288 287 287 287 287 287 287 287 287 287 287 287 288 287 287 287 287 287 287 287 287 287 287 287 286 286 286 286 285 284 284 282 281
293 294 293 293 291 290 289 288 288 287 287 287 287 287 287 287 287 287 287 287 287 287 287 287 287 287 286 286 286 286 286 286 286 286 286 286 285 285 284 284 282 281
294 294 294 292 291 289 288 288 288 288 287 287 287 287 287 287 287 287 287 287 286 286 286 287 287 286 286 286 286 286 286 286 286 286 286 286 285 285 284 284 282 281
295 294 293 292 291 290 289 289 289 288 288 287 287 287 287 287 287 287 287 286 286 286 287 287 286 286 286 286 286 286 286 286 286 286 286 285 285 285 284 283 282 281
295 294 294 293 292 291 290 290 289 289 289 288 288 287 287 287 287 287 287 287 287 287 287 287 287 286 286 286 286 286 286 286 286 285 285 285 285 285 284 283 282 281
295 295 294 293 293 292 291 290 290 290 290 289 288 288 288 288 288 288 288 288 288 288 287 287 287 286 286 286 286 285 285 285 285 285 285 285 285 284 284 283 282 281
295 295 295 294 294 293 292 291 291 291 290 290 289 289 289 288 288 288 288 288 288 288 287 287 287 286 286 286 285 285 285 285 285 285 285 285 285 284 284 283 282 281

ECMWFNIL_850_thetae_045.txt.gz
Theta_e
299 299 299 299 298 298 298 298 297 297 297 296 296 296 296 296 295 295 295 294 294 294 294 294 293 293 293 292 292 292 292 292 292 291 291 291 291 291 290 290 289 289
298 298 298 298 298 297 297 297 297 297 297 296 296 296 296 295 295 295 294 294 294 294 294 294 293 293 293 292 292 292 292 292 292 291 291 291 291 291 290 289 289 288
298 298 298 298 298 297 297 296 296 296 296 296 296 296 295 295 295 294 294 294 294 294 294 294 293 293 292 292 292 292 292 292 291 291 291 291 291 290 289 289 288 288
298 298 298 297 297 297 297 297 296 296 296 296 296 295 295 295 294 294 294 294 294 294 294 294 293 292 292 292 292 292 291 291 291 291 291 290 290 289 289 288 288 287
298 297 297 297 296 297 297 297 297 296 296 296 295 295 294 294 294 294 294 294 294 294 293 293 292 292 292 291 291 291 291 291 290 290 290 290 289 289 288 287 287 287
297 297 297 296 296 296 296 296 296 296 296 295 295 294 294 294 294 294 294 294 294 293 292 292 292 292 291 291 291 291 290 290 290 290 289 289 288 288 287 287 287 287
297 297 296 296 296 296 296 296 296 295 295 295 294 294 294 294 294 294 294 293 293 292 292 291 291 291 291 291 290 290 290 290 289 289 289 288 288 288 287 287 287 286
297 297 297 296 296 296 296 296 296 295 295 295 294 294 294 294 294 294 293 293 292 292 291 291 291 291 291 290 290 290 289 289 289 289 288 288 288 287 287 287 287 286
297 297 296 296 296 296 296 296 295 295 295 294 294 294 293 293 293 293 293 292 292 291 291 291 290 290 290 290 289 289 289 289 289 289 288 288 288 287 287 287 287 286
296 296 296 296 296 296 296 295 295 295 294 294 293 293 293 293 293 293 292 291 291 291 290 290 290 290 290 289 289 289 289 289 289 288 288 288 288 288 287 287 287 286
296 296 296 296 296 296 296 295 295 295 294 294 293 293 293 293 293 292 292 291 290 290 290 289 289 289 289 289 289 289 289 289 288 288 288 288 288 288 287 287 287 286
296 296 296 296 296 296 295 295 295 294 294 293 293 293 293 293 292 291 291 290 290 290 289 289 289 289 289 289 289 289 289 289 288 288 288 288 288 288 287 287 287 286
296 296 295 295 295 295 295 294 294 294 293 293 292 292 292 292 292 291 290 290 289 289 289 289 289 289 289 289 289 289 289 289 289 288 288 288 288 287 287 287 287 286
295 295 295 295 295 294 294 293 293 293 292 292 291 291 291 291 291 290 290 289 289 289 288 288 289 289 289 289 289 289 289 289 289 288 288 288 288 287 287 287 287 286
295 294 294 294 294 293 293 292 292 292 291 291 291 291 291 290 290 289 289 289 288 288 288 288 289 289 289 289 289 289 289 289 289 288 288 288 287 287 287 287 287 286
294 294 294 294 293 293 292 292 291 291 291 290 290 290 290 289 289 289 289 288 288 288 288 288 288 289 289 289 289 289 288 288 288 288 288 288 287 287 287 287 287 286
294 293 293 293 293 292 292 291 291 290 290 290 290 289 289 289 289 289 288 288 288 288 288 288 288 288 289 289 289 288 288 288 288 288 288 288 287 287 287 287 286 286
294 293 293 293 292 292 291 291 290 290 290 290 289 289 289 288 288 288 288 288 288 288 288 288 288 288 288 288 288 288 288 288 288 288 288 287 287 287 287 287 286 286
293 293 293 292 292 291 291 290 290 290 290 290 289 288 288 288 288 288 288 288 288 288 288 288 288 288 288 288 288 288 287 287 287 287 287 287 287 287 286 286 286 286
293 293 293 292 292 291 291 290 290 290 290 289 288 288 288 288 288 288 288 287 288 288 288 288 288 288 287 287 287 287 287 287 287 287 287 287 287 286 286 286 286 285
293 293 293 292 291 291 290 290 291 290 289 289 288 288 288 288 287 287 287 287 287 287 287 287 287 287 287 287 287 287 286 286 287 287 287 287 287 286 286 286 286 285
294 293 293 292 291 291 291 291 291 290 289 288 288 288 287 287 287 287 287 287 287 287 287 287 287 287 287 286 286 286 286 286 287 287 287 287 287 286 286 286 286 285
294 293 293 292 291 291 291 291 291 290 289 288 288 288 287 287 287 287 287 287 287 287 287 287 287 287 287 286 286 286 286 287 287 287 287 287 287 286 286 286 285 285
294 293 292 292 291 291 292 292 291 290 289 289 288 288 287 287 287 287 287 286 286 286 286 286 286 286 286 286 286 286 286 287 287 287 287 287 286 286 286 286 285 285
294 293 293 292 292 292 292 291 291 290 290 289 288 288 287 287 287 287 287 286 286 286 286 286 286 286 286 286 287 287 287 287 287 287 287 287 286 286 286 286 285 285
294 293 293 293 293 292 292 291 291 290 290 289 288 288 287 287 287 287 287 287 287 287 287 287 287 287 287 287 287 287 287 287 287 287 287 287 286 286 286 286 285 285

ECMWFNIL_850_thetae_048.txt.gz
Theta_e
303 302 302 301 300 300 300 299 299 298 298 298 297 297 296 296 296 296 296 296 296 296 296 296 296 296 295 295 295 294 294 293 293 292 292 292 292 291 291 291 290 290
303 302 301 300 300 299 299 299 298 298 297 297 296 296 296 296 296 296 296 296 296 296 296 296 296 295 295 295 294 294 293 293 293 292 292 291 291 291 291 290 290 289
302 301 300 299 299 298 298 298 297 297 297 296 296 296 296 296 296 296 296 296 296 296 296 296 295 295 294 294 294 293 293 293 292 292 291 291 291 291 290 290 289 289
301 300 299 298 298 298 298 297 297 296 296 296 296 296 296 296 296 296 296 296 296 295 295 295 294 294 294 293 293 293 292 292 292 291 291 291 291 290 290 290 289 288
300 299 298 298 297 297 297 297 297 296 296 296 296 296 296 296 296 296 297 296 296 295 294 294 294 294 293 293 292 292 292 292 291 291 291 290 290 290 289 289 288 288
300 298 298 297 297 297 297 297 297 297 297 296 296 296 295 295 296 296 296 296 295 294 294 294 294 293 293 292 292 292 291 291 291 291 290 290 290 289 289 288 288 287
299 298 297 297 296 296 296 296 296 296 296 296 296 296 295 295 296 296 295 295 294 294 293 293 293 292 292 292 292 291 291 291 290 290 290 290 290 289 289 288 288 287
299 298 297 297 296 296 296 296 296 296 296 295 295 295 295 295 296 295 294 294 293 293 293 292 292 292 292 292 291 291 290 290 290 290 290 290 289 289 288 288 287 287
299 298 297 296 296 296 296 296 296 296 296 295 295 295 295 295 295 294 294 293 293 293 292 292 291 291 291 291 290 290 290 290 290 289 289 289 289 289 289 288 288 287
298 297 297 296 296 296 296 296 296 295 295 295 295 295 295 295 294 294 293 293 293 293 292 291 291 291 291 290 290 289 289 289 289 289 289 289 289 289 288 288 288 287
298 297 297 296 296 296 296 296 296 295 295 295 295 295 294 294 294 293 293 293 293 292 291 291 291 290 290 290 290 289 289 289 289 289 289 289 289 289 288 288 288 287
298 297 297 296 296 296 296 296 295 295 295 295 295 295 294 294 293 293 293 293 292 292 291 290 290 290 290 289 289 289 289 289 289 289 289 289 289 289 288 288 288 287
298 297 297 296 296 296 296 295 295 295 295 295 295 294 294 293 293 293 293 292 292 291 290 290 290 290 289 289 289 289 289 289 289 289 289 289 289 289 288 288 288 287
298 297 297 296 296 296 296 295 295 295 295 295 294 294 293 293 293 292 292 291 291 290 290 290 289 289 289 289 289 289 289 289 289 289 289 289 289 288 288 288 288 287
298 297 296 296 295 295 295 295 295 294 294 294 294 293 293 292 292 291 291 291 290 290 290 289 289 289 289 289 289 289 289 289 289 289 289 289 288 288 288 288 288 287
298 297 296 295 295 295 295 295 294 294 294 293 293 292 292 291 291 290 290 290 290 289 289 289 289 289 289 288 288 289 289 289 289 289 289 288 288 288 288 288 288 287
298 297 296 295 295 294 294 294 293 293 293 292 292 292 291 291 290 290 290 289 289 289 289 289 289 289 288 288 288 288 288 289 289 288 288 288 288 287 287 287 287 287
298 297 296 295 295 294 294 293 293 292 292 292 291 291 291 290 290 289 289 289 289 289 289 288 288 288 288 288 288 288 288 288 288 288 288 288 287 287 287 287 287 287
298 297 297 296 295 294 293 292 292 292 291 291 291 291 290 290 289 289 289 289 288 288 288 288 288 288 288 288 288 288 288 288 288 288 288 287 287 286 286 286 287 287
298 297 297 296 295 293 292 292 292 291 291 291 290 290 290 289 289 289 289 288 288 288 288 288 288 288 288 288 288 288 288 288 288 287 287 287 286 286 286 286 286 287
298 297 297 296 295 293 292 292 291 291 291 290 290 290 290 289 289 289 288 288 288 288 288 288 288 288 288 288 288 288 288 288 287 287 287 286 286 286 286 286 286 286
298 297 297 296 295 293 292 292 292 291 291 290 289 289 289 289 288 288 288 288 288 288 288 288 288 288 287 288 288 288 288 287 287 287 287 286 286 286 286 286 286 286
298 297 296 295 294 293 293 292 292 291 290 290 289 289 289 289 288 288 288 288 287 287 287 287 287 287 287 287 287 287 287 287 287 287 287 286 286 286 286 287 287 286
297 297 296 295 294 293 293 292 292 291 290 290 290 289 290 289 288 288 288 287 287 287 287 287 287 287 287 287 287 287 287 287 287 287 286 286 286 287 287 287 287 287
297 296 295 294 294 293 293 292 291 291 290 290 290 289 289 289 288 288 287 287 287 287 287 287 287 287 287 287 287 287 287 286 286 286 286 286 287 287 287 287 287 287
296 295 295 294 294 293 292 292 291 290 290 290 289 289 289 288 288 288 287 287 287 286 286 286 286 286 286 286 286 286 286 286 286 286 286 287 287 287 287 287 287 287

ECMWFNIL_850_thetae_051.txt.gz
Theta_e
310 310 310 311 311 311 308 303 301 300 299 298 298 298 298 298 297 297 297 297 297 297 298 298 298 298 298 297 297 297 297 297 296 295 295 294 294 293 293 292 292 291
311 311 311 311 310 309 305 302 301 299 298 298 298 298 298 298 297 297 297 297 297 297 298 298 298 297 297 297 297 297 296 296 295 295 294 293 293 292 292 292 291 291
311 311 310 309 308 305 302 301 299 298 298 297 297 297 298 297 297 297 297 297 298 298 298 298 298 297 297 297 296 296 296 295 294 294 293 292 292 292 291 291 291 290
311 311 309 307 304 303 301 300 298 297 297 297 297 297 297 297 297 297 298 297 297 298 298 297 297 297 297 296 296 296 295 294 293 293 292 292 291 291 291 291 290 290
310 310 307 304 303 302 300 299 298 297 297 296 297 297 297 297 297 297 298 298 297 297 297 297 297 296 296 296 295 295 294 293 292 292 291 291 291 290 290 290 290 290
309 308 305 303 302 301 299 298 297 297 296 296 297 297 297 297 297 297 298 298 297 297 296 296 296 296 295 295 295 294 293 292 292 292 291 290 290 290 290 290 290 289
308 306 304 302 301 300 298 297 297 296 296 296 296 296 296 296 297 297 297 297 297 297 296 296 296 295 295 294 294 293 293 292 292 291 291 290 290 290 290 290 289 289
307 305 303 302 301 299 297 297 296 296 296 296 296 296 296 296 296 296 297 297 296 296 296 295 295 295 294 294 294 293 292 292 291 291 290 290 290 289 289 289 289 289
306 304 302 301 300 298 297 296 296 296 296 296 296 296 296 296 296 296 296 296 296 295 295 295 294 294 294 293 293 292 292 291 291 290 290 290 290 289 289 289 289 289
306 303 301 300 299 298 297 296 296 296 295 295 295 295 295 295 295 295 295 295 295 295 295 294 294 293 293 293 292 292 291 291 290 290 290 290 289 289 289 289 289 289
307 303 301 300 299 297 296 296 295 295 295 295 295 295 295 295 295 295 295 295 295 295 294 294 293 293 293 293 292 291 291 290 290 290 290 289 289 289 289 289 289 289
307 304 302 300 299 297 296 295 295 295 295 295 294 294 294 295 295 295 295 295 294 294 294 293 293 293 293 292 291 291 290 290 290 290 290 289 289 289 289 289 289 288
308 305 303 301 299 297 296 295 295 294 294 294 294 294 294 294 294 295 295 295 294 294 293 293 293 292 292 291 290 290 290 290 290 289 289 289 289 289 289 289 289 288
308 305 303 301 299 297 295 295 294 294 294 294 294 294 294 294 294 294 294 294 294 293 293 292 292 292 291 290 290 290 290 289 289 289 289 289 289 289 289 289 288 288
308 305 303 301 300 298 296 295 294 294 294 293 293 294 294 294 294 294 294 294 293 293 292 292 291 291 291 290 290 289 289 289 289 289 289 289 289 289 289 289 288 288
307 304 303 302 300 298 296 295 294 294 294 293 293 293 293 293 293 293 293 293 293 293 292 292 291 291 290 289 289 289 289 289 289 289 289 289 289 289 289 288 288 288
306 304 303 301 300 298 296 295 294 293 293 293 293 293 293 293 293 293 293 293 292 292 292 291 291 291 290 289 289 289 289 288 288 288 289 289 288 289 288 288 288 287
306 303 302 301 300 298 296 295 294 293 293 293 293 292 292 292 292 292 293 292 292 291 291 290 290 290 289 289 289 289 288 288 288 288 288 288 288 288 288 288 288 287
305 303 302 301 300 298 296 295 294 293 293 293 292 292 292 292 292 292 292 292 291 291 290 290 290 289 289 289 289 288 288 288 288 288 288 288 288 288 288 288 287 287
304 302 302 301 300 298 297 295 294 294 293 292 291 291 291 291 291 292 291 291 291 290 290 289 289 289 289 288 288 288 288 288 288 288 288 288 288 288 288 287 287 287
303 302 301 301 300 298 297 296 295 294 293 292 291 291 291 291 291 291 291 291 290 290 289 289 289 289 288 288 288 288 288 288 288 288 288 288 288 288 288 287 287 287
303 302 301 301 300 299 298 297 296 295 294 292 291 291 291 291 291 291 290 290 289 289 289 289 288 288 288 288 288 288 288 288 288 288 288 288 288 288 287 287 287 287
303 302 301 301 300 299 299 297 296 295 294 293 292 291 291 291 291 290 290 289 289 289 288 288 288 288 288 288 288 288 288 288 287 288 288 287 287 287 287 287 287 287
302 301 300 300 299 299 298 298 297 296 295 294 292 291 291 291 290 290 289 289 289 288 288 288 288 287 287 287 287 287 287 287 287 287 287 287 287 287 287 287 287 287
299 298 298 298 298 298 298 298 297 296 295 293 292 291 291 290 289 289 289 288 288 288 288 287 287 287 287 287 287 287 287 287 287 287 287 287 287 287 287 287 286 286
299 299 299 299 299 298 298 297 296 295 294 293 292 291 290 289 289 288 288 288 288 288 287 287 287 287 286 286 286 287 287 287 287 287 287 287 287 286 286 286 286 286

ECMWFNIL_850_thetae_054.txt.gz
Theta_e
313 312 313 313 312 313 313 311 311 311 310 311 311 307 303 301 299 297 297 296 296 296 296 297 298 299 300 300 300 299 299 299 298 298 298 298 297 297 297 296 296 295
311 311 313 314 313 312 312 311 310 311 311 311 307 303 301 299 297 296 296 296 296 296 296 297 298 300 300 300 300 299 299 299 298 298 298 297 297 297 296 296 295 294
310 312 314 314 313 312 311 310 310 311 312 309 304 301 299 298 297 296 296 295 296 296 296 298 299 300 300 300 300 299 298 298 298 298 297 297 297 296 296 295 294 293
310 312 313 313 312 311 310 310 311 312 312 306 302 300 298 297 296 296 296 295 295 296 297 298 299 300 300 299 299 299 298 298 297 297 297 296 296 296 295 294 292 292
310 311 312 312 310 309 309 310 311 313 311 304 300 298 297 296 296 296 295 295 295 296 297 298 299 300 300 299 299 298 298 298 297 297 296 296 296 295 294 292 292 291
311 311 311 310 308 309 310 311 311 312 309 303 299 298 297 296 296 296 296 296 296 296 297 299 299 299 299 299 298 298 297 297 296 296 296 295 295 294 293 292 291 291
311 311 309 307 307 309 310 310 310 310 307 301 299 297 296 296 296 295 295 296 296 296 297 298 299 299 299 298 297 297 296 296 295 295 295 295 294 293 292 291 291 290
311 311 310 308 309 310 311 310 309 308 305 300 298 297 296 296 295 295 295 295 296 296 297 298 298 299 298 297 297 296 296 295 295 295 295 294 293 292 292 291 291 290
311 311 311 311 311 311 311 309 306 305 303 299 297 296 296 295 295 295 295 295 295 296 296 297 297 297 297 296 296 296 295 295 294 294 294 293 292 292 291 291 290 290
310 311 311 311 311 311 310 307 304 303 301 298 296 296 295 295 294 294 294 295 295 295 296 296 296 296 295 295 295 294 294 294 293 293 293 292 292 291 291 290 290 290
310 311 311 311 311 311 310 306 302 301 300 297 296 295 295 294 294 293 294 294 294 295 295 295 295 295 294 294 294 293 293 292 292 292 292 291 291 291 290 290 290 289
309 311 311 311 311 311 309 305 302 300 299 297 295 295 294 294 293 293 293 294 294 294 294 294 294 294 293 293 293 292 292 292 292 292 291 291 291 291 290 290 289 289
308 310 310 310 311 310 307 304 302 300 298 297 295 294 294 293 293 293 293 293 293 293 293 293 293 293 293 292 292 292 291 292 291 291 291 291 291 290 290 289 289 289
307 309 309 310 311 310 307 303 301 300 298 296 295 294 293 293 293 293 293 293 293 293 292 292 292 292 292 292 291 291 291 291 291 291 291 291 290 290 290 289 289 289
307 309 309 310 310 310 307 303 301 300 298 296 294 293 293 293 292 292 292 293 292 292 292 292 292 291 291 291 291 291 291 291 291 291 290 290 290 290 289 289 289 289
308 308 309 309 310 310 307 303 301 299 298 296 294 293 293 292 292 292 292 292 292 292 292 292 291 291 291 291 290 290 290 290 290 290 290 290 290 289 289 289 289 289
308 308 308 308 309 309 308 305 301 299 298 296 294 293 292 292 292 292 292 292 291 291 291 292 291 291 291 290 290 290 290 290 290 290 290 289 289 289 289 289 289 289
307 308 308 308 308 308 308 306 303 301 299 296 294 293 292 292 292 291 291 291 291 290 291 291 291 291 290 290 289 290 290 290 290 290 289 289 289 289 288 288 288 288
307 307 308 308 308 308 308 307 305 302 300 298 296 294 292 292 292 291 291 291 290 291 291 291 291 290 289 289 289 290 290 290 290 290 289 289 289 288 288 288 288 288
305 307 307 308 308 308 308 307 305 303 301 299 297 294 293 292 292 291 291 290 291 291 291 291 290 289 289 289 290 290 290 290 290 289 289 289 289 288 288 288 288 288
304 305 306 307 308 308 308 307 305 303 302 300 298 296 293 292 292 291 290 291 292 292 291 290 289 289 290 290 290 289 289 289 289 289 289 289 288 288 288 288 288 288
302 304 305 306 307 307 307 305 303 302 301 300 298 296 293 292 291 291 291 292 293 292 290 289 289 291 292 291 289 289 289 289 289 289 289 288 288 288 288 288 288 288
302 302 303 305 305 306 305 303 301 300 300 299 298 295 293 292 291 291 292 294 293 291 289 290 291 293 292 290 289 289 288 288 288 288 288 288 288 288 288 287 287 287
301 302 303 304 304 304 303 301 299 299 298 297 296 295 293 292 291 292 294 294 292 290 290 291 293 293 292 290 289 289 288 287 288 288 288 288 288 287 288 287 287 287
301 301 302 302 302 302 300 299 299 298 297 296 294 293 292 292 293 294 294 293 291 290 291 293 294 293 291 290 289 288 287 286 287 287 287 287 287 287 287 287 287 287
300 300 300 300 300 299 298 297 296 296 295 295 295 295 295 296 296 296 295 294 293 293 293 294 293 291 290 289 288 287 286 286 286 286 286 287 287 287 287 287 287 287

ECMWFNIL_850_thetae_057.txt.gz
Theta_e
310 311 312 311 313 316 317 316 316 315 314 314 312 312 313 313 314 315 316 315 309 303 299 297 297 296 296 297 298 298 298 297 297 298 298 299 299 298 298 298 297 297
310 311 313 314 314 315 316 315 313 312 313 313 313 311 311 312 313 315 315 312 306 301 298 296 296 296 296 297 297 298 297 297 298 298 298 298 298 298 298 297 297 297
310 311 314 316 316 316 315 313 312 312 313 314 312 311 310 310 312 314 313 309 304 299 297 296 296 295 296 296 297 297 297 297 298 298 298 298 298 298 298 297 297 297
310 311 314 316 316 315 313 312 312 312 314 313 311 310 310 310 310 312 311 307 302 298 296 295 295 295 295 296 297 297 297 297 298 298 298 298 298 297 297 296 296 296
310 311 313 314 314 313 312 311 311 312 312 312 310 309 310 310 311 311 309 304 299 297 295 295 295 295 295 295 296 296 297 297 297 297 298 298 298 297 296 296 296 295
310 311 312 312 313 312 310 310 311 312 312 311 311 310 309 311 311 310 307 301 297 296 295 295 294 295 295 295 296 296 296 297 297 297 297 297 297 296 295 295 295 295
310 310 310 311 311 310 309 311 312 312 312 311 310 309 309 311 311 308 303 299 296 295 294 294 294 294 295 295 296 296 296 296 297 297 297 296 296 295 295 295 294 294
310 310 309 309 310 309 310 311 312 312 311 309 309 309 310 311 310 305 301 297 295 295 294 294 294 294 294 295 295 296 296 296 296 296 296 296 296 295 294 294 294 293
310 310 309 310 310 310 310 311 311 311 310 308 308 309 310 310 308 303 299 296 295 294 294 294 294 294 294 295 295 295 296 296 296 296 295 295 295 294 294 293 293 292
310 310 309 309 310 310 309 310 310 309 308 307 308 310 310 309 306 300 297 295 294 294 294 293 294 294 294 294 294 295 295 295 295 295 295 295 294 293 292 292 292 291
309 309 308 308 309 311 310 310 309 308 307 308 309 310 310 308 304 298 296 295 294 294 294 293 293 293 294 294 294 294 294 294 294 294 294 294 293 292 292 291 291 291
309 309 307 306 308 310 311 310 310 309 308 309 309 309 310 308 302 297 295 294 294 294 293 293 293 293 293 293 294 294 293 293 293 293 293 292 292 291 291 291 291 290
308 309 308 306 307 308 309 310 310 309 309 310 310 309 309 307 301 296 294 294 294 293 293 293 293 293 293 293 293 293 293 293 293 293 292 292 291 291 291 291 291 290
308 308 308 307 306 306 308 309 309 310 310 310 309 308 307 306 301 295 294 294 293 293 293 293 293 293 292 292 292 292 292 292 292 292 292 291 291 291 291 290 290 291
307 308 307 307 306 306 307 308 309 310 310 309 309 307 305 304 300 295 293 293 293 293 293 292 292 292 292 292 292 292 292 292 292 291 291 291 291 291 290 290 290 290
307 307 307 307 306 306 306 308 309 309 309 309 308 305 303 303 300 295 292 292 292 292 292 292 292 292 292 292 291 292 292 291 291 291 291 291 291 290 290 290 290 290
306 306 306 306 306 306 306 308 309 309 309 308 306 304 302 301 299 295 292 292 292 292 292 292 292 291 291 291 292 292 292 290 290 291 291 290 290 290 290 291 290 290
305 305 305 305 306 305 306 307 308 309 309 308 305 303 301 300 299 295 292 291 291 291 291 291 291 291 291 291 292 292 290 290 291 291 291 290 289 290 291 292 291 289
304 304 305 305 305 305 306 307 308 308 308 308 305 302 300 300 298 296 293 291 291 291 291 291 291 290 290 291 292 290 289 290 291 291 290 289 290 291 292 292 290 289
304 303 304 304 305 305 305 306 307 308 308 307 306 302 300 299 298 296 293 292 291 291 291 290 290 290 290 291 290 289 290 292 291 289 289 289 291 292 292 291 290 289
303 302 303 303 304 305 305 306 307 307 307 307 306 304 301 298 297 296 294 292 291 291 291 290 290 289 290 289 288 289 292 293 290 288 289 291 292 292 291 290 290 289
302 301 302 302 302 303 305 306 306 307 307 306 305 304 302 299 296 295 293 292 291 291 290 290 289 289 289 288 288 291 293 291 289 288 290 292 292 292 291 290 289 289
301 300 300 301 301 302 303 305 305 306 306 305 304 303 302 300 297 295 293 292 290 290 289 289 289 289 288 288 290 293 293 290 289 290 291 292 292 291 291 290 289 289
299 299 299 300 300 301 302 303 304 304 305 304 302 302 301 300 298 296 294 291 289 289 289 289 289 288 288 290 293 294 293 290 290 291 292 292 292 291 290 289 289 288
298 298 298 298 299 299 300 301 302 303 302 302 300 299 298 297 296 295 292 290 289 289 288 288 287 287 289 293 295 294 292 291 291 292 292 292 291 290 289 288 288 287
297 297 297 298 298 299 299 300 300 300 299 298 297 296 295 294 292 291 290 289 288 287 287 286 287 289 292 295 295 293 292 291 292 292 292 291 290 289 288 287 286 286

ECMWFNIL_850_thetae_060.txt.gz
Theta_e
308 308 309 311 312 311 311 314 318 318 320 320 318 317 316 314 313 314 316 317 316 315 316 317 317 318 316 313 310 308 305 302 301 300 299 298 298 297 297 297 296 296
308 308 308 309 310 310 311 315 318 319 319 318 317 316 315 314 313 313 315 317 316 315 316 317 317 316 313 309 306 303 301 300 300 299 298 297 297 297 296 296 296 296
308 307 308 309 310 310 312 315 316 315 315 315 316 316 316 315 314 313 314 315 316 315 315 316 317 314 309 303 300 299 298 298 299 298 297 296 296 296 296 295 295 296
308 307 308 309 309 310 313 314 312 311 313 315 316 315 315 314 313 313 313 314 314 315 315 315 316 311 303 299 297 297 297 297 298 297 296 296 295 295 295 295 295 296
308 308 308 309 309 310 311 312 312 312 314 316 315 313 312 313 313 312 313 313 313 314 315 315 314 308 300 296 296 296 296 297 297 296 295 295 295 295 295 295 295 296
308 308 308 309 309 310 310 312 313 314 315 315 314 312 311 313 313 311 311 312 313 313 314 314 313 306 298 296 295 295 296 296 296 296 295 295 295 295 295 294 295 296
308 308 308 308 309 310 310 312 315 315 315 314 312 311 312 313 313 311 310 310 311 312 313 313 312 305 297 295 295 295 295 295 295 295 295 295 295 295 295 294 295 295
308 308 308 308 309 310 310 312 315 315 314 314 311 310 312 313 312 311 310 309 310 311 311 312 311 305 297 294 295 294 295 295 295 295 295 295 295 295 295 295 295 295
308 308 308 308 309 310 311 312 314 314 313 313 311 310 312 313 312 311 310 309 309 310 310 311 311 307 298 294 294 294 294 295 294 295 295 295 295 295 295 295 294 294
308 308 308 309 309 310 311 311 312 313 313 311 309 310 311 312 311 310 310 309 309 310 310 310 311 307 299 294 294 294 294 294 294 295 295 294 294 294 294 294 293 293
308 308 308 309 309 310 310 311 311 311 311 309 309 310 312 311 310 310 309 308 308 310 310 310 310 307 299 293 293 294 294 294 294 295 295 294 294 294 294 293 292 292
308 308 308 308 309 309 310 311 310 310 309 309 309 310 311 310 309 309 308 308 308 309 309 309 309 306 299 293 293 293 293 294 294 294 294 294 293 293 293 292 291 291
309 308 308 308 308 309 310 310 310 310 310 309 308 309 310 309 308 308 308 308 309 309 309 307 307 305 298 293 293 293 293 293 293 293 293 293 293 293 292 291 291 291
309 308 307 307 307 309 309 310 309 309 309 310 309 309 309 308 307 307 308 309 309 309 307 306 306 303 296 292 293 293 293 293 293 293 293 293 292 292 291 291 291 290
309 308 308 307 308 308 309 309 309 308 308 309 310 310 309 308 308 308 309 308 308 308 306 304 304 301 295 292 292 292 292 293 293 293 293 292 292 291 291 291 290 290
309 308 307 307 307 308 308 308 308 307 307 308 309 309 309 309 309 308 308 308 308 307 304 303 303 299 293 292 292 292 292 292 292 292 292 292 291 291 291 290 290 291
309 308 307 307 307 307 307 307 307 307 306 307 308 308 308 309 308 308 307 307 307 306 303 301 301 297 292 292 292 292 292 292 292 292 291 291 291 291 290 290 291 293
308 307 307 306 306 306 306 306 306 306 306 306 307 307 308 308 308 307 307 306 305 305 302 300 299 295 292 291 291 291 291 291 291 291 291 291 291 290 290 290 292 292
307 307 306 306 306 305 306 306 305 305 305 305 306 307 307 308 308 307 306 304 304 304 301 298 297 294 292 291 291 291 291 291 290 290 290 290 290 290 290 291 292 291
307 306 305 305 305 305 305 305 305 304 304 304 305 306 307 308 307 306 305 303 303 302 299 296 295 293 291 291 291 290 290 290 289 289 289 290 290 290 291 291 291 291
306 305 304 304 304 304 304 304 304 304 304 305 305 306 307 307 306 305 303 301 300 299 296 293 293 292 291 291 290 290 290 289 288 288 289 289 290 290 291 291 292 293
305 304 303 303 303 303 303 303 304 304 304 305 305 306 306 306 305 303 301 299 298 297 294 291 291 290 290 290 290 289 289 288 288 288 288 289 290 290 291 292 294 294
304 303 302 302 302 302 302 302 302 303 304 305 305 306 306 305 304 303 300 297 296 295 293 291 290 290 290 289 289 289 288 288 287 287 288 289 289 290 291 293 294 294
303 302 301 301 301 301 301 301 301 302 303 304 304 305 305 304 303 301 298 295 293 292 291 290 290 289 289 289 288 288 287 287 287 288 288 288 289 290 291 293 294 293
301 300 300 299 299 299 299 300 300 301 302 303 303 302 302 301 300 299 298 294 291 289 289 288 288 288 288 288 288 287 287 287 287 288 288 288 289 290 291 293 294 293
300 299 299 298 298 298 298 298 299 300 301 301 300 300 299 299 298 297 297 295 291 289 288 287 287 287 287 287 287 286 286 287 287 288 288 288 289 290 293 294 294 293

ECMWFNIL_850_thetae_063.txt.gz
Theta_e
310 310 309 309 309 309 309 311 312 312 313 317 319 321 322 321 320 319 320 320 320 319 317 316 315 317 317 317 318 319 320 319 319 319 318 317 316 312 309 309 307 304
311 310 310 309 310 308 308 310 310 310 314 317 320 322 321 319 318 319 320 320 318 317 315 314 315 316 317 318 319 318 318 318 318 318 317 316 315 312 310 310 307 304
312 311 310 310 310 309 308 309 308 311 316 319 320 320 318 317 318 319 319 318 316 314 313 314 315 316 317 319 319 318 317 317 316 316 316 315 313 311 310 310 307 304
312 311 310 310 310 309 308 308 307 310 316 320 319 316 314 316 318 319 318 317 315 313 313 314 316 316 317 318 318 317 316 316 316 315 315 314 312 310 310 309 306 303
311 311 311 310 310 309 308 308 307 309 315 318 315 313 314 317 318 318 317 316 315 314 313 314 315 316 317 317 317 316 315 315 315 314 313 311 311 310 310 309 306 303
311 311 311 311 310 309 308 307 306 307 311 313 311 312 316 318 316 315 316 316 316 315 313 313 314 315 317 317 316 316 315 314 314 313 312 311 310 310 310 309 306 301
312 311 311 311 310 309 308 307 306 306 308 310 311 313 315 314 313 314 315 315 315 314 313 313 313 315 316 316 316 315 314 314 313 311 310 310 310 310 309 308 304 300
311 311 311 311 310 309 308 307 306 307 308 310 313 314 312 311 313 314 314 313 313 314 314 313 313 315 315 315 315 314 314 313 310 306 304 306 307 308 308 306 302 298
312 311 311 311 310 309 308 307 307 308 308 310 312 313 312 313 314 314 314 312 311 313 314 312 312 314 314 314 314 314 314 312 306 299 298 300 304 306 306 304 300 296
313 312 312 311 310 309 308 308 308 308 309 309 310 312 313 314 314 313 312 311 311 313 313 312 311 312 312 313 313 313 313 309 301 296 297 300 303 304 303 301 297 294
314 313 312 311 310 309 308 308 308 308 309 309 310 311 313 314 314 313 311 310 311 313 313 311 310 310 310 311 311 312 312 307 298 294 296 299 301 302 300 298 295 294
316 314 313 312 310 309 309 308 308 308 308 308 309 311 313 314 314 312 311 310 311 312 312 310 310 309 309 309 310 310 311 308 299 293 295 297 299 299 297 295 294 293
316 315 314 312 311 309 309 308 308 308 308 308 309 311 313 313 313 312 310 310 311 312 311 310 310 309 309 309 309 310 311 309 301 294 294 295 296 296 294 293 293 293
316 315 314 312 311 309 308 308 307 308 308 308 309 310 312 312 311 310 309 309 311 311 310 309 309 309 308 308 308 309 309 309 304 295 292 294 294 293 293 292 293 292
315 314 314 312 311 309 308 308 307 308 309 309 309 310 311 311 310 309 308 309 310 310 309 308 307 307 308 307 308 309 308 306 303 295 292 293 293 292 293 292 292 292
314 314 313 312 311 309 308 307 307 307 309 309 310 310 311 310 310 309 309 309 310 309 308 307 307 307 308 308 308 308 306 303 300 294 292 293 292 292 292 292 292 291
314 313 313 312 310 309 307 307 307 307 308 309 310 310 311 310 310 310 309 309 309 309 308 308 308 307 307 307 307 307 304 301 298 293 291 292 292 292 292 292 291 291
313 313 312 311 310 309 307 306 306 307 307 308 310 310 310 310 309 308 309 308 308 308 308 308 308 307 306 306 305 305 302 299 295 292 291 292 292 292 292 292 291 290
313 313 312 311 310 308 307 306 306 306 307 307 309 310 309 309 308 307 307 307 307 307 308 308 307 306 306 304 304 304 301 296 292 291 291 291 291 291 291 291 290 290
313 313 312 311 309 308 306 306 305 305 306 307 308 308 308 308 307 306 306 307 307 307 307 307 306 305 305 303 301 301 298 294 291 290 291 291 291 291 291 290 290 289
313 312 311 310 309 308 306 306 305 305 305 306 307 307 307 306 306 305 306 306 306 306 306 306 305 304 303 301 299 298 295 291 290 290 290 290 290 290 290 289 289 289
312 311 310 309 308 307 306 305 304 304 304 305 305 306 306 305 304 304 305 305 306 306 305 304 304 302 300 298 297 294 291 289 289 289 289 289 289 289 289 289 290 291
311 310 309 308 307 306 305 304 303 303 303 304 304 305 305 305 304 304 305 305 305 304 304 303 301 300 297 296 295 292 289 288 289 289 288 289 289 289 289 289 290 291
309 308 306 306 305 304 303 303 302 302 302 302 303 304 304 304 304 304 304 304 304 303 302 299 298 296 295 294 294 291 288 288 288 288 288 288 288 288 289 289 290 290
307 306 305 304 303 303 302 302 301 301 301 301 302 303 303 303 304 303 303 302 301 301 299 296 295 294 292 292 292 290 288 288 288 288 287 287 287 288 288 288 289 290
306 305 304 303 303 302 301 301 300 300 300 300 301 301 302 302 302 301 301 300 300 299 297 295 293 291 290 289 289 288 288 287 287 287 286 287 287 287 287 288 289 290

ECMWFNIL_850_thetae_069.txt.gz
Theta_e
317 317 317 316 316 316 316 316 315 315 314 314 313 313 312 311 310 309 310 310 313 318 319 320 320 320 321 321 321 324 325 324 323 320 319 320 320 319 319 318 317 317
317 316 316 316 316 316 316 315 315 315 314 314 313 313 312 311 310 309 309 310 313 318 320 320 321 321 321 322 323 323 323 322 320 318 320 320 318 318 317 316 316 316
317 317 317 317 317 316 316 315 315 314 314 314 313 313 312 311 311 309 309 309 311 315 318 319 319 319 320 322 323 322 323 321 317 318 320 319 318 317 316 315 315 316
317 317 317 317 317 317 316 315 315 315 314 314 313 313 312 311 311 310 309 308 309 312 316 318 318 318 320 322 322 321 321 319 317 319 319 318 318 317 316 315 315 315
317 317 317 317 317 317 316 316 316 315 314 314 313 312 312 311 311 310 309 308 308 311 315 318 318 319 321 322 321 321 320 318 318 319 318 318 318 316 315 314 314 314
317 317 317 317 317 317 317 317 316 315 314 314 313 312 312 311 311 310 310 308 307 310 315 317 317 319 320 320 320 320 319 318 318 318 317 317 316 315 314 314 314 314
317 317 317 316 317 317 317 317 316 315 314 313 313 313 312 311 311 310 310 308 307 310 315 317 318 319 320 320 320 319 319 318 317 317 317 316 314 313 313 314 314 313
317 317 317 317 317 317 317 317 316 315 314 313 312 312 312 312 311 310 309 308 307 311 315 316 317 318 319 320 319 318 317 317 317 317 316 314 313 313 314 314 313 311
317 317 317 317 317 317 317 316 316 316 315 313 312 312 312 312 311 310 309 308 307 310 313 313 313 316 318 318 317 317 316 316 317 317 315 313 313 313 314 313 312 310
317 317 317 317 317 317 317 316 316 316 315 314 312 311 311 311 311 310 309 308 307 308 309 311 312 315 316 316 316 315 315 315 316 316 315 313 313 313 313 313 312 310
317 317 317 317 317 316 316 316 316 316 315 314 312 311 310 310 310 309 309 308 307 306 308 310 313 314 315 316 315 314 314 315 316 315 315 314 313 312 313 313 312 310
317 317 317 316 316 316 316 316 316 315 315 314 312 311 310 309 309 309 309 308 307 306 307 309 312 313 314 314 312 312 313 315 315 315 315 314 313 312 312 312 311 309
317 316 316 316 316 316 316 316 316 315 315 314 312 310 309 309 309 308 308 308 307 306 306 308 311 312 312 312 311 312 313 314 314 313 313 312 312 311 311 311 309 307
316 316 316 316 316 316 316 316 316 315 315 314 312 311 310 309 308 308 308 307 307 306 305 307 309 310 310 310 311 312 313 313 312 312 311 311 311 311 310 310 308 306
316 316 316 315 315 315 316 316 315 315 315 314 312 311 310 308 308 307 307 307 306 306 305 306 307 308 309 310 312 313 313 312 311 310 310 311 310 310 309 308 308 307
316 316 315 315 315 315 315 315 315 315 314 313 312 311 309 308 307 307 307 306 306 305 305 306 306 307 310 311 312 312 312 311 310 310 310 310 309 308 307 307 307 305
316 316 315 315 315 315 315 315 315 314 314 313 312 310 309 308 307 307 306 306 305 305 305 306 306 308 310 311 312 312 310 310 310 310 310 309 308 307 307 306 305 304
315 315 315 315 315 315 315 314 314 314 313 313 311 310 308 308 307 306 306 306 305 305 305 306 307 309 310 311 311 310 309 309 309 309 308 307 307 307 307 306 305 303
315 315 315 314 314 314 314 314 313 313 313 312 310 309 307 307 306 306 305 305 304 304 305 306 308 309 310 310 309 309 308 308 309 308 307 307 307 307 306 306 305 302
315 314 313 314 314 314 314 313 313 312 312 311 309 307 307 306 305 305 305 305 304 304 305 307 308 309 310 310 309 308 307 307 308 307 306 306 306 306 306 305 303 300
315 313 313 313 313 313 313 313 312 312 311 309 308 306 306 305 305 304 304 304 303 303 304 306 307 308 309 309 309 308 307 307 307 306 305 305 305 304 303 302 300 298
314 313 313 313 313 313 312 312 311 311 310 308 307 305 305 304 304 304 303 303 303 302 303 306 307 308 308 308 307 306 306 306 305 305 305 305 304 303 301 299 297 296
313 313 312 312 312 312 311 311 311 310 308 307 305 305 304 304 304 303 302 302 303 303 305 306 307 307 307 306 306 305 305 305 305 304 304 304 303 301 298 295 294 294
312 311 311 311 311 311 310 310 310 308 307 306 304 304 303 303 303 302 302 302 303 304 306 306 306 306 306 305 305 305 305 305 305 304 303 303 301 297 294 293 293 293
311 311 311 311 310 310 310 309 309 307 306 304 303 303 302 302 302 301 301 302 303 304 305 305 305 304 304 304 304 304 304 304 304 303 302 301 298 294 292 292 292 291
310 310 311 310 310 310 309 309 307 306 305 303 302 302 301 301 301 300 301 302 303 304 304 304 303 303 303 303 303 303 303 303 303 302 301 299 295 293 292 291 290 289

ECMWFNIL_850_thetae_072.txt.gz
Theta_e
317 317 317 317 317 316 316 316 316 316 315 315 315 315 314 314 313 312 312 311 311 310 310 309 312 316 321 323 323 324 323 319 317 320 322 321 319 321 322 323 323 321
317 316 316 316 316 316 316 316 316 316 316 316 315 315 314 314 313 312 312 312 311 311 310 310 309 311 317 322 324 325 324 320 319 321 320 319 320 321 322 322 322 321
316 316 316 316 316 316 316 316 316 316 316 316 316 316 315 315 314 313 312 311 311 311 310 310 309 309 312 317 320 321 320 319 321 322 320 321 322 322 322 321 321 321
316 316 316 316 316 316 316 316 316 316 316 316 316 316 316 315 315 314 313 312 311 311 311 310 309 309 309 313 316 317 317 318 320 320 320 321 322 322 322 321 320 320
316 316 316 316 316 316 316 316 316 316 316 316 316 316 316 316 315 314 314 313 312 311 311 310 309 309 309 312 315 317 319 320 319 319 319 320 321 321 321 320 320 320
316 316 316 316 316 316 316 316 316 316 316 316 316 316 316 316 315 315 314 314 312 311 311 311 310 309 308 310 313 316 317 317 317 318 319 319 320 320 319 320 320 319
316 316 316 316 316 316 316 316 316 316 316 316 316 316 316 316 315 315 315 314 313 312 311 310 310 309 307 307 311 314 315 315 316 317 318 319 319 319 319 319 319 318
316 316 316 316 316 316 316 316 316 316 316 315 316 315 315 316 315 315 315 314 313 312 311 310 310 309 307 306 309 313 314 316 317 317 318 318 318 318 319 318 318 318
316 316 316 316 316 316 316 316 316 316 316 315 315 315 315 315 315 315 315 314 314 312 311 310 309 308 307 306 309 312 315 316 316 316 317 318 317 318 318 318 318 318
316 316 316 316 317 316 316 316 316 316 316 316 315 315 315 314 314 314 314 314 314 313 311 310 309 308 307 307 308 311 314 315 315 315 316 317 317 317 317 317 317 316
316 316 316 316 316 317 317 316 316 316 316 316 315 315 314 314 314 314 314 314 313 313 312 310 309 308 307 307 309 312 314 315 316 316 316 316 316 316 315 315 316 315
316 316 316 316 316 316 316 316 316 316 315 315 315 315 314 314 314 313 313 313 313 312 311 310 309 308 307 307 310 312 313 314 315 315 315 315 314 314 314 314 315 314
315 315 316 316 316 316 316 316 316 315 315 315 315 314 314 314 314 313 313 312 312 311 311 310 309 308 307 306 308 310 312 312 313 314 314 314 313 313 313 314 314 314
315 315 315 315 315 315 315 315 315 315 315 315 314 314 314 314 313 313 312 312 312 311 310 309 308 308 307 306 307 308 310 311 312 313 313 313 312 312 312 313 314 313
314 314 314 314 315 314 315 315 315 315 315 315 315 314 314 314 313 312 312 312 311 311 310 309 308 308 307 306 306 307 309 310 311 311 312 311 311 311 312 313 313 312
314 314 314 314 314 314 314 314 314 315 315 315 315 314 314 314 312 312 311 311 311 310 310 309 308 308 307 306 305 306 307 309 309 310 310 309 309 310 312 312 312 311
314 314 314 314 314 314 314 314 314 314 314 314 314 314 313 313 312 311 311 311 310 310 309 309 308 307 307 305 304 305 307 308 308 308 308 309 310 310 311 311 311 310
314 314 314 314 314 314 314 314 314 313 313 313 313 313 313 312 311 311 310 310 310 309 309 308 307 307 306 305 304 304 306 307 307 308 309 310 310 311 311 310 310 310
314 314 314 314 314 314 314 314 314 314 313 312 313 313 312 312 311 311 310 310 309 309 308 308 307 307 306 304 304 304 305 306 306 308 309 310 310 310 310 310 309 309
314 313 313 313 314 314 314 314 313 313 312 312 312 312 312 312 311 310 310 309 309 308 307 307 306 306 305 304 303 304 305 305 307 308 309 309 309 309 309 309 309 308
313 313 313 313 313 313 313 313 313 312 311 311 311 311 311 311 310 310 309 309 308 307 307 306 305 305 304 304 304 305 305 306 307 308 308 308 308 308 308 308 307 306
313 313 313 313 312 312 312 312 312 312 311 310 310 310 310 310 309 309 308 308 307 306 306 305 304 304 303 304 305 305 306 306 307 307 307 307 307 307 307 307 306 306
313 312 313 313 312 311 311 311 311 311 310 309 309 309 309 309 308 308 307 307 306 305 304 303 302 302 302 303 304 305 305 306 307 307 307 307 306 306 306 305 305 304
313 313 312 312 312 311 311 310 310 309 309 308 308 308 308 307 306 306 306 305 304 303 302 301 301 301 301 302 303 304 304 305 307 307 306 306 305 305 304 303 303 301
313 312 312 312 311 311 310 310 309 309 308 307 307 306 306 305 305 304 304 303 302 301 300 300 300 301 301 301 303 304 304 305 305 304 304 303 303 303 302 302 301 298
312 311 311 311 311 310 309 309 309 308 308 307 306 305 305 304 304 303 303 302 301 300 300 299 300 301 302 302 303 303 302 303 303 302 302 302 302 301 301 300 298 295

ECMWFNIL_850_thetae_075.txt.gz
Theta_e
316 316 316 316 316 316 316 315 315 315 315 315 315 315 315 315 314 314 314 313 313 313 313 313 312 312 312 312 312 313 313 313 314 315 317 318 320 321 322 323 322 322
316 316 316 317 317 316 316 316 315 315 315 315 315 315 315 314 314 314 314 313 313 313 312 312 312 311 311 311 310 310 310 311 314 317 318 319 319 319 321 321 321 322
317 316 316 317 316 316 316 315 315 315 315 315 315 315 315 315 314 314 314 313 313 313 312 312 311 311 311 310 310 310 309 310 312 317 319 320 320 320 321 320 321 322
317 317 317 316 316 316 315 316 316 315 315 315 315 315 315 314 314 314 314 313 313 313 312 312 311 311 311 310 310 310 310 309 309 313 317 319 319 320 321 320 321 321
316 316 316 316 316 316 315 316 315 315 315 315 315 315 314 314 314 314 314 314 313 313 313 312 311 311 311 310 310 310 311 310 309 309 313 317 318 318 319 320 319 318
315 316 316 316 316 316 315 316 315 315 315 315 315 315 315 315 314 314 314 314 313 313 313 313 312 312 311 310 310 310 310 311 309 308 310 314 316 317 317 318 317 316
315 315 315 315 316 315 315 315 315 316 316 315 315 315 315 315 314 315 314 314 314 313 313 313 313 313 312 311 310 310 310 310 310 308 308 311 313 315 315 316 315 316
315 315 315 315 315 315 315 315 315 315 315 315 315 315 315 315 315 315 314 314 314 314 313 313 313 313 312 312 311 311 310 310 310 309 307 308 311 313 314 315 316 316
315 315 314 315 315 315 316 315 315 315 315 315 315 315 315 315 315 315 314 314 314 314 314 314 313 313 312 312 312 311 310 310 309 309 307 307 309 311 313 314 315 315
315 315 314 314 315 315 315 315 315 315 315 315 315 315 315 315 315 314 314 314 314 314 314 314 313 313 312 312 311 311 310 310 309 308 307 306 307 309 311 312 313 314
314 315 314 315 314 315 315 315 315 315 314 314 314 314 314 314 314 314 314 314 314 314 314 313 313 312 311 311 311 310 310 309 309 308 307 306 307 309 311 312 313 314
314 314 314 314 314 314 314 314 315 314 314 314 314 314 314 314 314 314 314 314 314 314 313 313 313 312 311 311 311 310 310 309 309 309 308 307 307 308 310 312 313 314
314 314 314 314 314 314 314 314 314 314 314 314 314 314 314 314 314 314 314 314 314 314 313 313 312 312 312 312 311 310 310 309 309 309 308 307 307 309 310 312 313 314
314 314 314 314 314 314 314 314 314 314 314 314 314 314 314 314 314 313 313 313 313 313 313 313 312 312 312 312 312 311 310 309 309 309 307 306 308 310 311 313 313 313
314 314 314 314 314 314 314 314 314 314 314 314 314 314 314 314 313 313 312 312 312 313 313 313 313 312 312 312 312 311 310 309 309 308 307 306 307 309 310 311 312 311
314 314 314 314 314 314 314 314 313 313 313 313 314 314 314 314 314 313 312 311 311 311 312 312 312 312 312 312 311 310 309 308 308 308 306 305 305 307 308 309 310 310
313 313 313 313 314 314 314 314 313 313 313 313 313 313 314 314 314 313 312 311 311 311 311 311 311 311 311 310 310 309 308 307 307 307 306 305 305 305 306 308 309 309
313 313 313 313 313 313 314 314 314 313 314 314 313 313 313 313 313 313 313 312 310 310 310 310 310 310 310 310 309 308 307 306 306 306 305 304 304 305 306 307 308 308
313 313 313 313 312 313 313 313 313 313 313 313 313 313 313 313 313 313 312 311 310 309 309 310 310 309 309 309 308 307 306 305 305 305 304 303 303 304 305 307 307 307
311 312 312 312 312 312 313 313 313 313 313 313 313 313 312 312 312 312 311 311 309 309 309 309 309 308 308 307 307 306 305 304 304 304 303 303 303 304 305 306 306 306
310 311 311 311 312 312 312 312 313 313 313 313 312 312 312 312 311 311 311 310 309 308 308 308 308 308 307 307 306 305 304 303 303 302 302 302 303 304 305 305 305 306
310 311 311 311 312 312 312 312 312 312 312 312 312 312 312 311 311 310 310 310 309 308 308 308 308 307 306 306 304 303 302 302 301 301 301 302 303 304 304 305 305 306
310 310 311 311 311 311 312 312 311 312 311 311 311 311 311 311 310 309 309 309 308 308 308 308 307 306 305 304 303 302 301 301 301 301 302 303 303 304 305 305 305 306
310 310 310 310 310 311 311 311 311 311 311 311 310 310 310 309 309 308 308 308 307 307 307 306 306 305 304 303 302 301 300 300 300 301 302 303 304 304 305 305 305 305
308 309 309 309 310 310 310 310 310 310 310 310 310 310 309 309 308 307 307 307 306 306 305 305 304 303 302 301 300 300 299 299 300 301 302 303 304 304 305 305 305 305
308 308 308 309 309 309 309 309 309 309 309 309 308 308 308 308 307 307 306 306 305 304 304 303 303 302 301 300 299 299 299 299 299 300 301 302 303 304 304 304 304 304

ECMWFNIL_850_thetae_078.txt.gz
Theta_e
315 315 315 315 315 315 315 315 315 315 315 315 315 315 315 315 315 315 314 314 314 314 314 314 314 314 314 314 315 316 316 316 315 316 317 318 317 317 316 316 315 315
315 314 315 315 315 315 315 315 315 316 316 315 315 315 315 315 315 314 314 314 314 314 314 313 313 313 313 313 313 313 313 313 313 314 314 315 315 315 315 316 316 315
315 315 315 315 315 315 315 315 315 316 315 315 315 315 315 315 314 315 314 314 314 314 314 314 313 313 313 312 312 312 312 312 311 311 312 312 312 312 312 312 312 313
315 315 315 314 315 315 315 315 315 315 315 315 315 314 315 315 314 314 314 314 314 314 314 313 313 313 313 312 312 312 312 312 311 311 311 311 311 310 310 310 310 311
314 315 315 314 315 314 314 315 315 315 315 315 315 314 314 315 314 314 314 314 314 314 314 314 314 314 313 312 312 312 312 312 311 311 311 311 311 310 310 311 310 309
314 315 315 314 315 314 314 315 315 315 315 315 315 315 315 314 314 314 314 314 314 314 314 314 314 314 313 313 313 313 313 312 312 311 311 311 311 310 310 310 310 309
314 314 314 314 314 314 314 314 314 315 315 315 315 315 314 314 314 314 314 314 314 314 314 314 314 314 314 314 314 313 313 313 312 312 312 312 311 311 311 310 309 308
314 314 314 314 314 314 314 314 314 314 314 315 315 314 314 314 314 314 314 314 314 314 314 314 314 314 314 314 314 314 314 313 313 312 312 312 311 311 311 310 309 308
314 314 314 314 314 314 314 314 314 314 314 314 314 314 315 314 314 314 314 314 314 314 314 314 314 314 314 314 314 314 314 313 313 312 312 312 311 312 311 310 310 309
314 314 314 314 314 314 314 314 314 314 314 314 314 314 314 314 314 314 314 315 314 314 314 314 314 314 314 314 313 313 313 313 313 312 312 312 311 311 310 310 309 309
314 314 314 314 314 314 314 314 314 314 314 314 314 314 314 314 314 314 314 314 314 314 314 314 314 313 313 313 313 313 313 312 312 312 311 311 311 310 310 309 308 308
313 314 314 314 314 314 314 314 314 314 314 314 314 314 314 314 314 314 314 314 314 313 314 313 313 313 313 312 312 312 312 312 312 311 311 311 310 310 310 309 308 308
311 312 313 313 313 313 313 313 313 313 313 314 314 314 314 314 314 314 314 314 314 314 314 313 313 313 313 312 312 311 311 311 311 311 311 310 310 309 309 309 308 307
309 310 310 311 312 312 312 312 312 313 313 313 313 313 313 313 314 314 314 313 314 314 314 314 314 313 313 312 312 311 311 310 311 311 310 309 309 309 308 308 308 307
308 309 309 309 310 310 311 311 311 312 312 311 312 312 312 313 313 313 313 313 313 313 313 313 313 313 313 313 312 311 310 310 310 310 310 309 309 308 308 308 307 307
307 308 308 308 309 309 309 310 310 311 311 311 311 311 311 312 312 312 313 313 313 313 313 313 313 312 313 312 312 311 310 310 310 310 309 309 308 308 308 307 307 307
306 306 306 307 308 308 309 309 310 310 311 311 311 311 311 312 312 312 312 312 313 313 313 313 312 312 311 311 311 310 309 309 309 309 309 308 308 308 308 307 306 306
304 304 305 305 306 307 307 308 308 309 310 310 311 311 311 311 311 311 311 311 312 312 312 312 312 311 311 310 310 309 309 309 309 309 308 308 308 307 307 307 305 305
303 303 303 304 304 304 305 306 307 307 308 309 310 310 311 311 311 311 311 311 311 311 311 312 312 311 310 310 309 309 308 308 308 308 308 307 307 306 305 305 303 303
302 302 302 302 303 303 303 304 305 305 306 307 308 309 309 310 310 310 310 310 310 310 311 311 311 311 310 309 309 308 308 307 307 307 307 306 306 304 304 303 302 301
302 302 302 302 302 303 303 303 304 304 305 306 306 307 308 309 309 310 310 310 310 309 310 310 310 310 309 309 308 307 307 306 306 306 306 305 304 303 303 302 301 300
301 301 302 302 302 302 303 303 304 304 304 305 305 306 306 307 308 309 309 310 310 309 309 309 309 308 307 307 307 307 306 306 306 305 305 304 303 302 302 301 301 300
300 300 301 301 301 302 302 303 303 304 305 305 305 305 306 306 307 307 308 308 309 308 308 308 308 307 306 305 305 305 305 305 305 304 304 303 302 301 301 300 300 299
300 299 299 300 300 300 301 302 303 303 304 305 305 305 305 306 306 307 307 307 307 307 307 307 307 306 305 304 304 304 303 304 304 303 303 302 301 301 300 300 299 299
299 299 299 299 299 299 300 301 302 303 303 304 304 304 305 305 306 306 307 307 306 306 305 305 305 305 304 303 303 302 302 302 302 301 301 301 300 300 299 298 299 299
298 298 298 299 299 299 300 301 302 303 304 304 304 304 304 305 306 306 306 306 305 305 304 303 303 303 303 302 302 301 301 300 300 300 300 299 299 299 298 298 298 299

ECMWFNIL_850_thetae_081.txt.gz
Theta_e
314 314 314 314 314 314 314 314 314 314 314 314 314 314 314 313 313 313 313 314 314 314 314 314 314 314 314 314 314 314 314 315 315 316 317 319 320 321 321 320 319 318
314 314 314 314 314 314 314 314 314 314 314 314 314 314 314 314 313 314 314 314 314 314 314 314 314 314 314 314 313 313 313 313 313 313 314 315 315 316 317 317 317 316
314 314 314 314 314 314 314 314 314 314 314 314 314 314 314 314 314 314 314 314 314 314 314 313 314 313 313 313 313 313 313 313 313 313 313 312 313 313 313 313 313 313
314 314 314 314 314 314 314 314 314 314 314 314 314 314 314 314 314 314 314 314 314 314 313 314 314 313 313 313 313 313 313 313 313 313 313 313 312 312 312 312 312 311
314 314 314 314 314 314 314 314 314 314 314 314 314 314 314 314 314 314 314 314 314 314 314 314 313 313 314 313 313 313 313 313 313 313 313 313 312 312 312 311 312 311
314 314 313 313 314 313 313 314 313 314 314 314 314 314 314 314 314 314 314 314 314 314 314 314 314 314 313 313 313 313 313 313 313 313 313 313 312 312 312 312 311 311
313 314 314 313 313 313 313 313 313 314 314 314 314 314 314 314 314 314 314 314 314 314 314 313 314 313 313 313 313 313 313 313 313 313 312 313 312 312 312 312 311 311
313 313 313 313 313 313 314 313 313 314 313 313 313 313 313 313 314 314 314 314 314 313 313 313 313 313 313 313 312 312 313 313 312 312 312 312 312 312 312 311 311 311
311 311 311 312 312 312 313 313 313 313 313 313 313 313 313 313 313 313 313 313 313 313 314 313 313 313 313 313 313 313 313 313 312 312 312 312 311 311 311 311 311 311
310 310 310 310 310 310 310 310 311 312 312 312 312 312 313 312 312 312 312 313 313 313 313 313 313 313 313 313 313 313 313 313 313 312 312 312 312 311 311 310 311 311
310 309 309 309 308 308 308 308 309 309 309 310 311 311 311 311 312 312 312 312 312 312 312 312 312 313 313 313 313 313 313 313 313 313 313 312 312 312 311 310 310 310
309 308 308 307 307 307 306 307 307 307 307 308 308 309 309 310 310 310 311 311 311 311 312 312 312 312 312 313 313 312 312 312 313 312 312 312 312 311 311 310 310 310
307 307 306 306 305 305 305 305 305 305 305 305 306 306 306 307 308 309 310 310 311 311 311 311 311 311 312 312 312 312 312 312 312 312 312 312 312 311 311 310 310 310
305 305 305 304 304 304 304 304 304 304 303 303 303 304 304 304 305 306 307 308 309 310 310 311 311 311 311 311 311 312 312 312 312 311 311 311 311 311 310 310 309 309
304 304 303 303 303 303 303 303 303 303 303 302 302 303 303 303 303 304 305 305 306 307 308 309 310 310 310 311 311 311 311 311 311 311 311 311 311 311 310 310 309 309
302 302 302 302 302 302 302 302 302 302 302 301 302 302 302 302 302 303 303 304 304 305 305 306 307 308 309 309 310 310 310 310 311 311 310 310 310 310 310 309 309 309
301 301 301 301 301 301 301 301 301 301 301 301 301 301 301 301 301 302 302 303 303 303 304 305 305 306 306 307 308 308 309 309 310 310 310 310 309 309 309 309 309 308
301 301 300 300 300 300 300 300 300 300 300 300 300 300 300 300 300 301 301 301 302 302 302 303 304 305 305 306 306 307 307 307 308 308 309 309 309 309 308 308 308 308
300 300 300 300 300 300 300 300 300 300 300 300 300 300 300 300 300 300 300 301 301 301 302 302 303 304 304 305 305 305 305 306 306 307 307 308 308 308 307 307 307 306
300 300 300 300 300 300 300 300 300 300 300 300 299 300 299 300 299 300 300 300 300 300 300 301 301 302 303 304 304 304 305 305 305 305 306 306 307 307 307 306 306 305
299 299 299 299 299 299 299 299 299 299 299 299 299 299 299 299 299 299 299 300 300 300 300 300 300 301 302 303 304 304 304 304 304 304 305 305 305 305 305 305 305 304
298 298 298 298 298 298 298 298 298 298 298 298 298 298 298 298 298 299 299 299 299 299 299 299 300 300 301 302 304 304 304 304 303 304 304 304 304 304 304 304 304 303
297 297 297 297 297 297 297 297 297 297 296 296 296 297 297 297 297 297 297 297 298 299 300 300 300 300 301 302 303 304 304 303 303 303 303 303 303 303 303 302 302 301
296 296 296 296 296 296 296 296 296 296 296 296 296 296 296 296 295 296 296 296 296 297 299 300 300 300 301 302 303 303 303 303 302 302 302 302 302 302 301 300 300 300
296 296 296 295 295 295 295 295 295 295 295 295 295 295 295 295 295 295 295 295 295 295 297 298 300 300 300 301 302 302 302 302 301 301 301 301 301 300 299 298 298 298
295 295 295 295 295 294 294 294 294 294 294 294 294 294 294 294 294 295 295 294 295 294 295 296 298 300 300 300 301 301 301 300 300 300 300 299 299 298 297 297 297 297

ECMWFNIL_850_thetae_084.txt.gz
Theta_e
314 314 314 314 314 314 314 314 314 314 314 314 314 314 314 314 314 313 313 313 313 313 313 313 314 314 314 314 314 314 314 314 314 314 314 315 315 316 315 315 315 316
314 314 314 314 313 314 314 314 314 314 313 314 313 313 313 313 313 313 313 313 313 313 313 313 313 313 313 313 313 313 313 313 313 313 314 314 314 314 314 314 314 315
314 313 313 313 313 313 313 313 313 313 313 313 313 313 313 313 313 313 313 313 313 313 313 313 313 313 313 313 313 313 313 313 313 313 313 313 313 313 313 313 313 313
313 313 313 313 313 313 313 313 313 313 313 313 313 313 313 313 313 313 313 313 313 313 313 312 312 312 312 312 312 312 312 312 313 313 313 313 313 313 313 312 313 313
313 313 313 313 313 313 313 313 313 313 313 313 313 313 313 313 313 313 313 313 313 313 313 313 313 312 312 312 312 312 312 312 312 312 312 312 312 312 312 312 312 312
313 313 313 313 313 313 313 313 313 313 313 313 313 313 313 313 313 313 313 312 313 313 313 313 313 313 313 313 312 312 312 312 312 312 312 312 312 312 311 311 311 311
312 311 311 311 311 311 311 311 311 311 311 311 311 311 311 312 312 312 312 312 312 312 312 312 312 312 312 312 313 313 313 313 313 312 313 313 312 312 312 311 311 311
310 310 310 309 309 309 309 309 309 308 309 309 309 309 309 309 310 310 310 310 311 311 311 311 311 311 311 312 312 312 312 312 312 312 312 312 312 312 312 312 311 311
309 308 308 307 307 307 307 307 306 306 306 306 306 306 306 306 306 307 307 308 308 309 309 310 310 311 311 311 311 311 311 311 312 312 312 312 312 312 312 312 312 312
307 307 306 306 306 306 305 305 305 304 304 304 304 304 304 304 304 304 304 304 305 305 306 307 308 308 309 310 310 311 311 311 311 311 311 311 311 312 312 312 312 311
306 306 305 305 305 304 304 304 303 303 303 303 302 302 302 302 302 302 302 302 302 303 303 303 304 305 305 306 307 307 308 309 309 310 310 311 311 311 311 311 311 311
305 305 305 305 304 304 303 303 302 302 302 302 301 301 301 301 301 301 301 301 301 301 302 302 302 302 303 303 303 304 304 305 306 306 307 308 309 309 310 310 310 310
305 304 304 304 303 303 302 302 302 301 301 301 301 301 301 300 300 300 300 300 300 300 300 300 301 301 301 301 301 302 302 302 303 303 304 304 305 306 307 308 309 309
303 303 303 302 302 302 302 301 301 301 301 301 300 300 300 300 300 300 299 299 299 299 299 299 299 300 300 300 300 301 301 301 301 302 302 303 303 303 304 305 306 307
302 302 301 301 301 301 301 301 301 300 300 300 300 300 299 299 299 299 299 299 299 299 299 299 299 299 299 299 300 300 300 300 301 301 301 302 302 302 303 303 304 305
301 301 301 301 301 300 300 300 300 300 299 299 299 299 299 299 299 299 299 299 299 299 298 299 299 299 299 299 299 299 300 300 300 300 300 301 301 301 302 303 303 304
300 300 300 300 300 300 299 299 299 299 299 299 299 298 298 298 298 298 298 298 298 298 298 298 298 298 298 298 299 299 299 299 300 300 300 300 300 301 301 302 303 303
300 300 299 299 299 299 298 298 298 298 298 298 298 297 297 297 297 297 297 297 297 297 297 297 297 297 297 297 297 297 298 298 299 299 299 299 300 300 300 301 302 303
299 299 298 298 298 298 298 298 297 297 297 297 297 297 297 297 297 297 296 296 296 296 296 296 296 296 296 296 296 296 296 296 297 298 298 299 299 299 299 300 302 302
298 298 297 297 297 297 297 297 297 297 297 296 296 296 296 296 296 296 296 296 296 296 296 296 296 295 295 295 295 295 295 295 295 296 297 297 298 299 299 299 301 302
297 297 297 297 297 297 297 296 296 296 296 296 296 296 296 296 296 296 296 295 295 295 295 295 295 295 294 294 294 294 294 294 294 295 295 296 297 298 299 299 300 301
297 297 297 297 296 296 296 296 295 295 295 295 295 295 295 295 295 295 295 295 295 295 294 295 295 294 294 294 294 294 294 294 294 294 294 295 295 297 298 299 299 300
297 296 296 296 295 295 295 295 295 295 295 295 295 295 295 295 295 295 295 295 295 294 294 294 294 294 293 293 293 294 295 295 295 295 294 295 295 296 297 298 299 300
296 295 295 295 295 294 294 294 294 294 294 294 294 294 294 294 294 294 294 294 294 294 294 294 294 294 293 292 293 295 296 296 296 296 295 295 296 296 297 298 299 299
294 294 294 294 293 293 293 293 293 293 293 293 293 293 293 293 293 293 294 294 293 293 293 293 293 293 293 292 292 295 297 298 297 297 296 296 297 298 298 299 299 299
293 293 293 292 292 292 292 292 292 292 292 292 292 292 292 292 292 292 293 293 293 293 293 293 293 293 293 292 292 295 297 298 298 298 297 297 298 298 298 299 299 299

ECMWFNIL_850_thetae_087.txt.gz
Theta_e
314 314 314 314 313 314 313 313 313 313 313 313 313 313 313 313 313 313 313 313 313 313 312 312 312 312 312 312 313 313 313 314 314 314 315 316 317 317 317 317 317 317
314 314 314 314 313 313 313 313 313 313 313 313 313 313 313 313 313 313 313 313 313 313 313 313 312 312 312 312 312 312 312 312 313 313 313 313 313 314 314 314 315 315
313 313 313 313 313 313 313 313 313 313 313 313 313 313 313 313 313 313 313 313 313 313 313 313 313 312 312 312 312 312 312 312 312 312 312 312 312 312 312 312 312 312
313 313 313 313 313 313 313 313 313 313 313 313 313 312 312 312 312 312 312 312 312 312 312 312 312 312 312 312 312 312 312 312 312 312 311 311 311 311 311 311 311 311
313 313 313 313 313 313 312 312 312 312 311 311 311 310 310 310 310 310 310 310 310 310 311 311 311 311 311 311 311 311 312 311 311 311 311 311 311 311 311 311 311 311
313 312 312 311 311 311 310 310 309 309 309 308 308 308 307 307 307 307 307 307 307 307 307 308 308 309 309 309 310 310 310 310 311 311 311 311 311 311 311 311 311 311
311 310 310 309 309 309 308 308 307 307 306 306 305 305 305 304 304 304 304 304 304 304 304 304 304 304 305 305 306 306 306 307 307 308 308 308 308 309 309 309 309 309
309 309 308 308 308 307 307 306 306 305 304 304 303 303 303 303 303 302 302 302 302 302 302 301 302 302 302 302 302 302 302 303 303 303 303 303 303 304 304 304 305 305
308 307 307 306 306 305 305 304 303 303 303 302 302 302 302 301 301 301 301 301 300 300 300 300 300 300 300 300 300 300 300 300 300 300 300 300 300 301 301 301 301 301
306 305 305 304 304 304 303 302 302 302 301 301 301 301 301 300 300 300 300 300 300 299 299 299 299 299 299 299 299 299 299 299 299 299 299 299 299 299 299 299 300 300
304 304 303 303 303 302 302 301 301 301 301 300 300 300 300 300 300 299 299 299 299 299 299 299 298 298 298 298 298 298 298 298 298 298 298 298 298 298 299 299 299 299
303 303 303 302 302 301 301 301 301 301 300 300 300 300 300 299 299 299 299 298 298 298 298 298 298 297 297 297 297 297 297 297 297 297 297 297 297 297 297 297 298 298
303 302 302 302 301 301 301 301 301 300 300 300 300 299 299 299 299 298 298 298 298 297 297 297 297 297 297 297 297 297 296 296 296 296 296 297 296 296 296 296 296 296
302 302 302 301 301 301 301 301 300 300 300 299 299 298 298 298 298 298 297 297 297 297 297 297 297 297 296 296 296 296 296 296 296 296 296 296 296 296 296 296 296 296
301 301 301 301 301 300 300 300 299 299 299 298 298 298 298 297 297 297 297 297 297 297 297 297 297 296 296 296 296 296 296 296 296 296 296 296 296 296 295 295 295 295
301 300 300 300 299 299 299 299 298 298 298 298 297 297 297 297 297 297 296 296 296 296 296 296 296 296 296 296 295 295 295 295 295 295 295 295 295 295 295 295 294 294
300 299 299 299 299 298 298 298 298 297 297 297 297 297 296 296 296 296 296 296 296 296 296 296 296 296 296 295 295 295 295 295 295 295 295 294 294 294 294 294 294 294
299 299 298 298 298 298 297 297 297 297 296 296 296 296 296 296 296 296 296 296 296 296 296 296 295 295 295 295 295 294 294 294 294 294 294 294 294 293 293 293 293 293
298 298 298 297 297 297 297 297 296 296 296 296 296 296 296 296 296 295 295 295 295 295 295 295 295 295 295 295 294 294 294 293 293 294 294 294 293 293 293 292 293 293
298 297 297 297 297 296 296 296 296 296 296 296 295 295 295 295 295 295 295 295 295 295 295 295 295 295 294 294 294 294 293 293 293 293 293 293 293 292 292 292 292 293
297 297 297 297 296 296 296 296 296 295 295 295 295 295 295 295 294 294 294 294 294 294 294 294 294 294 294 294 293 293 292 292 292 292 292 292 292 292 292 292 292 294
297 297 296 296 296 296 296 295 295 295 295 295 294 294 294 294 294 294 294 294 294 294 294 294 294 294 293 293 293 292 291 291 291 291 291 292 292 292 292 292 292 294
296 296 296 296 295 295 295 295 295 294 294 294 294 294 294 293 293 293 293 293 293 293 293 293 293 293 292 292 292 291 291 291 291 291 291 291 291 291 291 292 292 293
296 295 295 295 295 294 294 294 294 293 293 293 293 293 293 293 293 293 293 293 293 292 292 292 292 293 292 292 291 291 290 290 290 290 290 290 290 291 291 292 292 292
295 295 294 294 294 293 293 293 293 292 292 292 292 292 292 292 292 292 292 292 292 292 292 291 292 292 292 291 291 291 290 290 290 290 290 290 290 290 291 292 292 292
294 294 294 293 293 293 292 292 292 292 292 291 291 291 291 291 291 291 291 291 291 291 291 291 291 291 291 291 291 291 291 290 290 290 289 290 290 290 291 291 292 292

ECMWFNIL_850_thetae_093.txt.gz
Theta_e
314 314 313 313 313 313 313 313 313 313 313 313 313 313 313 312 312 312 311 311 310 310 309 309 308 307 307 307 306 306 306 305 305 305 304 304 304 303 302 302 302 301
313 313 313 313 313 313 313 313 313 313 313 313 313 312 312 311 310 309 308 308 307 306 305 305 304 303 303 303 302 302 301 301 301 300 300 300 299 299 299 298 298 298
313 313 313 313 313 313 313 313 313 313 313 312 311 310 309 308 307 306 305 304 304 303 303 303 302 301 301 301 300 300 299 299 299 298 298 298 298 297 297 297 297 297
313 313 313 313 313 313 313 313 312 312 311 310 308 307 306 305 304 304 303 303 303 303 302 302 301 300 300 300 299 299 298 298 298 298 297 297 297 297 297 297 297 297
313 313 313 313 313 313 312 312 310 309 308 307 306 305 304 303 302 302 302 302 302 301 301 301 300 300 299 299 298 298 298 297 297 297 297 297 297 297 297 296 296 296
313 313 313 313 312 311 310 309 308 307 306 305 304 303 303 302 301 301 301 301 301 301 300 300 299 299 298 298 298 297 297 297 297 297 297 297 297 296 296 296 296 296
313 313 312 311 310 309 308 307 306 305 304 304 303 302 302 301 301 301 301 300 300 299 299 299 298 298 298 297 297 297 297 297 297 297 296 296 296 296 296 296 296 296
312 311 310 309 308 307 306 306 305 304 303 303 302 301 301 301 301 300 299 299 299 298 298 298 298 297 297 297 297 297 297 296 296 296 296 296 296 296 296 296 296 296
310 309 309 308 307 306 305 304 304 303 302 302 301 301 301 300 300 299 298 298 298 298 298 297 297 297 297 297 296 296 296 296 296 296 296 296 296 296 295 295 295 295
309 308 307 306 305 305 304 303 303 302 302 301 301 300 300 299 299 299 298 298 297 297 297 297 297 296 296 296 296 296 296 296 296 296 296 295 295 295 295 295 295 295
308 307 306 305 304 304 303 302 302 302 301 301 300 299 299 299 299 298 298 297 297 297 297 296 296 296 296 296 296 296 296 295 295 295 295 295 295 295 294 294 294 294
306 305 304 304 303 303 302 302 301 301 300 300 299 299 299 299 298 297 297 297 296 296 296 296 296 296 296 296 295 295 295 295 295 295 295 294 294 294 294 294 294 294
305 304 303 302 302 302 301 301 301 300 300 300 299 299 298 298 297 297 296 296 296 296 296 296 296 295 295 295 295 295 295 295 295 294 294 294 294 294 294 294 293 293
303 302 302 301 301 301 300 300 300 299 299 299 299 298 298 297 297 296 296 296 296 296 295 295 295 295 295 295 295 295 294 294 294 294 294 294 294 294 293 293 293 293
302 301 301 300 300 300 300 300 299 299 299 298 298 298 297 297 296 296 296 296 296 295 295 295 295 294 294 294 294 294 294 294 294 294 293 293 293 293 293 293 292 292
301 301 300 300 300 299 299 299 298 298 298 297 298 297 297 296 296 296 296 295 295 295 295 294 294 294 294 294 294 294 293 293 293 293 293 292 292 293 292 292 292 292
301 300 300 300 300 299 299 298 298 298 298 298 297 297 296 296 296 295 295 295 295 294 294 294 293 293 293 293 293 293 292 292 292 292 292 292 292 292 292 292 292 292
300 300 300 299 299 298 298 298 298 298 298 297 297 296 296 296 295 295 295 294 294 294 293 293 293 293 293 293 292 292 292 292 292 292 292 292 292 292 292 291 292 292
300 299 299 298 298 298 298 298 298 298 297 297 296 296 295 295 295 295 294 294 294 293 293 293 293 292 292 292 292 292 292 292 291 291 291 291 291 291 291 291 291 291
299 298 298 298 298 298 298 298 298 297 297 296 296 295 295 295 294 294 293 293 293 293 293 292 292 292 292 292 292 292 291 291 291 291 291 291 291 291 291 291 291 290
298 298 297 297 298 298 298 298 297 297 296 296 295 295 295 294 294 293 293 293 293 293 293 292 291 291 291 291 291 291 291 291 291 291 291 291 291 291 290 290 290 290
297 297 297 298 298 298 298 298 297 296 295 295 294 294 294 293 293 293 292 292 292 292 292 292 291 291 291 291 291 290 291 291 290 291 291 291 291 291 290 290 290 289
297 297 298 298 298 298 297 297 296 295 295 294 294 293 293 292 292 292 292 292 292 292 291 291 291 291 291 291 290 290 290 290 290 290 291 291 291 291 290 289 289 289
297 297 298 298 298 297 296 295 295 294 294 293 293 292 292 292 292 292 292 292 291 291 291 291 291 290 290 290 290 290 289 289 289 289 290 290 290 290 290 289 289 288
297 298 298 298 297 296 295 294 293 293 293 292 292 292 292 292 292 292 291 291 291 291 290 290 290 290 290 290 290 289 289 289 289 288 288 289 289 289 289 289 288 288
297 297 297 297 296 295 294 293 293 292 292 291 291 291 291 291 291 291 291 291 290 290 290 290 290 290 290 289 289 289 289 288 288 287 287 287 288 288 288 288 288 287

ECMWFNIL_850_thetae_096.txt.gz
Theta_e
323 322 321 320 318 316 315 314 313 312 312 312 312 313 313 312 312 311 310 309 308 307 306 305 304 303 303 303 302 302 301 301 300 299 299 298 298 297 297 297 296 296
317 316 316 316 315 314 313 312 312 312 312 312 313 312 312 311 310 308 307 306 305 304 303 303 302 302 301 301 300 300 299 299 299 298 298 297 297 297 297 296 296 296
314 314 314 314 313 312 312 312 312 312 312 312 312 311 310 308 307 305 304 304 303 303 302 302 301 301 300 300 299 299 298 298 298 298 297 297 297 297 296 296 296 296
314 313 313 312 312 312 312 312 312 313 312 312 310 309 307 306 305 304 303 303 302 302 301 301 300 300 299 299 299 298 298 298 297 297 297 297 296 296 296 296 296 296
313 312 312 312 312 312 312 312 312 312 311 309 308 307 305 305 304 303 303 302 302 301 301 300 300 299 299 298 298 298 297 297 297 297 296 296 296 296 296 296 296 296
312 312 312 312 312 312 312 312 311 310 308 307 306 305 304 304 303 302 302 302 301 301 300 300 299 299 298 298 298 297 297 297 296 296 296 296 296 296 296 295 295 295
312 312 312 312 312 312 312 310 309 308 306 305 305 304 303 303 302 302 301 301 301 300 300 299 299 298 298 297 297 296 296 296 296 296 296 296 295 295 295 295 295 295
312 312 312 312 312 311 310 308 307 306 305 304 304 303 302 302 302 301 301 300 300 300 299 299 298 297 297 297 296 296 296 296 296 295 295 295 295 295 295 295 295 295
312 312 312 311 310 309 307 306 305 305 304 303 302 302 302 301 301 300 300 300 299 299 299 298 297 297 297 296 296 296 296 295 295 295 295 295 295 295 295 294 294 294
312 312 311 310 308 307 306 305 304 303 303 302 301 301 301 300 300 299 299 299 299 298 297 297 297 296 296 296 296 295 295 295 295 295 295 295 295 294 294 294 294 293
312 311 309 308 307 305 304 303 303 302 302 301 301 300 300 299 299 299 299 298 298 297 297 297 297 296 296 296 295 295 295 295 295 294 294 294 294 294 293 293 293 293
310 309 308 306 305 304 303 303 302 302 301 301 300 299 299 299 299 298 298 297 297 297 297 297 296 296 295 295 295 295 294 294 294 294 294 294 293 293 293 293 293 293
309 307 306 305 304 303 302 302 302 301 301 300 299 299 299 299 298 298 298 298 298 297 297 296 296 295 295 295 295 294 294 294 294 294 293 293 293 293 293 293 293 293
307 306 305 303 303 302 302 301 301 301 300 299 299 299 299 299 299 299 299 299 298 297 296 296 295 295 294 294 294 294 294 294 293 293 293 293 293 292 292 292 292 293
306 305 303 302 302 301 301 301 300 300 299 299 299 299 299 299 299 299 299 298 297 296 295 295 294 294 294 294 294 294 293 293 293 293 292 292 292 292 292 292 292 293
305 304 303 302 301 301 300 300 299 299 299 298 299 299 300 300 300 299 298 297 296 295 295 294 294 294 293 293 293 293 293 292 292 292 292 292 292 292 292 292 292 292
304 303 302 301 301 300 300 299 299 298 298 299 299 300 300 300 300 299 298 296 295 294 294 293 293 293 293 293 292 292 292 292 292 292 292 292 292 292 292 292 292 292
303 302 301 300 300 299 299 299 298 298 298 299 299 300 300 299 299 298 297 295 294 294 293 293 293 293 293 292 292 292 292 292 292 292 292 292 292 292 292 292 292 293
302 301 300 300 299 299 298 298 298 298 299 299 299 299 299 299 298 297 295 294 293 293 293 293 292 292 292 292 292 292 291 292 292 291 291 291 291 291 292 292 292 292
301 300 299 299 299 298 298 298 298 298 298 299 299 299 298 298 297 295 294 293 293 292 292 292 292 292 292 291 291 291 291 291 291 291 291 291 291 292 292 292 292 291
300 300 299 299 299 298 298 298 298 298 298 298 299 298 298 297 295 294 293 293 292 292 292 292 292 291 291 291 291 291 291 291 291 291 291 291 291 292 291 291 291 291
299 299 299 298 298 298 297 298 298 298 298 298 298 298 297 295 294 294 293 292 292 292 291 291 291 291 291 290 291 291 291 291 291 291 291 292 292 291 291 291 290 290
299 298 298 298 297 297 297 297 298 298 298 298 298 297 296 295 294 293 292 292 291 291 291 291 290 290 290 290 290 290 291 291 291 291 291 291 291 291 291 290 290 289
298 298 298 297 297 297 297 297 297 298 298 297 297 296 295 294 293 292 292 291 291 291 290 290 290 290 290 290 290 290 290 290 291 291 291 291 291 291 291 290 289 288
298 297 297 296 296 297 297 297 297 297 297 296 296 295 294 293 292 291 291 291 290 290 290 290 290 290 290 290 290 290 290 290 290 290 290 291 291 291 291 290 289 288
297 297 296 296 296 296 297 297 297 297 296 296 295 294 293 292 292 291 291 290 290 289 289 289 289 289 289 289 289 289 289 289 289 289 289 290 290 289 290 290 289 288

ECMWFNIL_850_thetae_102.txt.gz
Theta_e
326 327 327 326 325 326 325 324 324 323 322 321 320 319 318 316 313 312 312 312 311 310 307 305 304 303 303 302 302 301 301 300 299 299 298 298 297 297 297 296 296 296
325 326 326 325 325 325 325 324 323 323 322 321 321 319 318 314 312 311 312 311 309 307 305 303 303 303 302 302 301 301 300 300 299 298 298 297 297 297 296 296 296 296
325 324 323 324 325 324 323 324 324 323 322 322 321 319 316 313 311 312 311 309 306 304 303 303 303 302 302 301 301 300 300 299 298 298 297 297 297 296 296 296 296 295
324 324 323 323 324 322 322 323 324 323 322 322 320 318 314 312 311 311 309 306 304 303 303 303 302 302 301 301 301 301 300 299 298 297 297 297 296 296 296 296 295 295
323 324 324 323 323 323 322 323 323 322 321 320 319 315 312 311 311 310 307 304 303 303 302 302 302 301 301 301 301 300 299 298 297 297 297 297 296 296 296 295 295 295
322 324 325 324 324 324 322 321 322 321 320 319 316 312 311 311 310 307 304 303 303 302 301 301 301 301 301 301 300 299 298 298 298 298 297 296 296 296 296 295 295 295
322 323 323 323 323 324 322 320 320 320 318 317 313 311 311 310 307 304 303 302 302 301 301 301 301 301 301 300 299 298 298 299 298 297 297 296 296 296 295 295 295 294
320 321 321 322 322 322 322 320 319 319 317 314 311 311 311 307 304 303 302 301 301 300 300 300 301 301 300 299 298 299 299 299 298 297 296 296 296 296 295 295 295 294
320 321 321 321 321 321 320 319 319 318 315 311 311 311 308 304 302 302 301 301 300 300 300 300 300 300 299 299 300 300 299 298 297 296 296 296 296 295 295 295 294 294
320 321 320 320 319 319 319 318 317 315 312 311 311 309 305 303 302 301 300 300 300 300 300 300 300 299 299 300 300 299 298 297 297 296 296 296 296 295 295 295 294 293
318 318 318 318 317 318 318 317 314 311 311 311 309 306 303 302 301 300 300 299 299 299 300 300 299 300 301 300 299 298 297 297 296 296 296 296 295 295 295 294 293 293
317 317 317 317 317 317 316 313 311 311 311 309 306 303 302 301 301 300 300 299 299 299 299 299 300 301 300 300 298 298 297 297 296 296 296 295 295 295 294 293 293 292
315 315 316 316 316 315 312 311 311 311 309 307 304 301 301 301 300 300 299 299 299 299 299 299 300 300 300 299 298 297 297 296 296 296 295 295 295 294 293 293 292 292
314 315 315 315 314 312 311 311 310 309 307 304 302 300 300 300 299 299 298 298 299 299 299 299 300 300 299 299 298 297 297 296 296 296 295 295 294 293 293 292 292 291
313 314 313 312 311 311 310 310 309 308 305 302 301 300 299 299 298 298 298 298 298 299 299 299 299 299 299 298 297 297 296 296 296 295 295 294 294 293 292 292 291 291
313 312 311 311 311 310 310 310 308 306 303 301 300 300 299 298 298 297 297 298 298 299 299 299 299 299 298 298 297 296 296 296 295 295 295 294 294 293 292 292 291 291
311 311 311 311 311 310 310 309 306 304 301 301 300 299 299 298 297 297 297 297 298 299 299 299 299 299 298 297 297 296 296 295 295 295 294 294 293 293 292 291 291 291
311 311 311 311 310 310 309 307 304 302 300 300 299 299 298 297 297 297 297 297 298 299 299 299 299 298 298 297 297 296 295 295 295 294 294 294 293 292 292 291 291 290
311 311 311 311 310 309 308 305 302 301 300 299 299 298 297 297 297 296 297 297 298 299 299 299 298 298 297 297 296 295 295 295 294 294 294 293 293 292 291 291 290 290
311 311 310 310 310 308 306 303 301 300 299 298 298 297 297 297 296 296 297 298 298 298 298 298 297 297 296 296 295 295 295 294 294 294 293 293 292 291 291 290 290 290
311 311 310 310 309 307 305 302 300 299 298 298 297 297 296 296 296 296 297 298 298 298 297 297 297 296 295 295 295 294 294 294 294 294 293 292 292 291 290 290 289 289
310 310 310 309 308 307 304 301 299 298 298 297 297 296 296 295 295 296 297 297 297 297 297 296 296 295 295 295 295 294 294 294 294 293 293 292 291 290 290 289 289 289
310 310 310 309 308 306 303 300 298 297 297 297 297 296 295 295 295 296 297 297 297 297 296 295 295 294 294 294 294 294 294 294 294 293 293 292 291 290 289 289 289 289
310 310 309 308 307 305 302 300 298 297 297 296 296 295 295 295 295 296 297 297 296 296 295 294 294 294 294 294 294 294 294 294 294 293 292 292 290 289 289 289 289 288
310 309 309 308 307 304 301 299 297 297 296 296 295 294 294 295 295 296 296 296 296 295 294 294 293 293 294 294 295 295 295 294 293 293 292 291 290 289 289 288 288 288
309 309 308 307 305 303 300 298 297 296 296 295 295 294 294 295 295 295 296 295 294 294 293 293 292 293 295 296 296 296 295 294 293 292 292 290 289 289 288 288 288 288

ECMWFNIL_850_thetae_105.txt.gz
Theta_e
322 323 324 326 327 328 328 328 327 327 325 323 323 321 320 323 323 320 316 314 312 311 311 311 309 306 304 303 302 301 301 301 300 300 299 298 298 298 297 297 297 297
321 324 325 326 327 328 328 327 327 326 325 323 323 321 321 322 321 318 316 313 311 311 311 309 306 304 303 302 301 301 301 300 300 299 299 298 298 298 297 297 297 297
322 324 325 326 327 328 328 327 326 325 325 324 323 322 321 321 319 317 314 311 311 311 309 306 304 302 302 301 301 301 300 300 299 299 299 298 298 298 298 297 297 296
322 324 325 326 327 327 327 326 325 325 325 324 323 322 321 320 318 316 313 311 311 309 306 304 302 301 301 301 301 301 300 300 299 299 299 299 299 298 297 297 296 296
323 324 325 327 327 326 326 325 324 326 325 324 323 322 320 319 319 315 311 311 310 307 304 302 301 301 301 301 301 300 300 299 299 300 301 300 298 298 297 296 296 296
324 325 326 327 327 326 325 323 324 326 324 323 323 323 320 319 318 314 311 310 308 304 302 301 301 301 300 301 301 300 299 299 301 302 301 299 298 297 296 296 296 295
322 323 324 326 326 326 324 323 323 323 322 323 324 322 320 320 318 313 310 309 306 302 301 301 300 300 300 301 300 299 299 301 302 302 300 298 297 296 296 296 296 295
316 316 318 323 326 325 324 324 323 322 321 324 324 321 319 319 316 312 310 307 303 301 301 300 300 300 300 300 299 299 301 303 302 301 299 298 297 296 296 296 295 295
313 312 316 322 324 324 324 324 323 323 322 323 323 321 319 317 314 310 309 305 301 301 301 300 300 299 299 299 299 300 302 302 301 299 298 297 296 296 296 295 295 295
312 313 317 321 322 324 326 325 324 325 324 321 321 320 318 314 311 309 307 303 301 301 300 299 299 299 298 299 300 302 302 301 299 298 297 296 296 296 296 295 295 295
311 313 319 321 321 324 326 325 324 325 323 320 319 319 316 312 310 308 304 301 300 300 299 299 298 298 298 299 301 302 301 299 298 297 296 296 296 296 295 295 295 295
313 315 320 322 322 323 324 322 323 324 322 319 318 318 315 311 309 307 302 300 300 299 298 298 298 297 298 300 301 301 300 298 297 296 296 296 296 296 295 295 295 294
318 319 320 320 320 321 322 322 322 322 321 319 319 317 313 310 308 305 301 300 299 298 297 297 297 298 299 300 300 300 298 297 296 296 296 296 295 295 295 295 295 294
317 318 319 320 321 321 322 322 321 319 319 319 318 315 311 309 307 303 300 300 298 297 297 297 297 298 299 300 300 299 297 296 296 296 296 295 295 295 295 294 294 294
315 315 316 318 320 320 320 319 318 318 319 318 315 311 309 307 304 301 300 300 298 297 296 296 297 298 299 299 298 297 297 296 296 296 295 295 295 294 294 294 293 293
316 317 317 318 318 318 317 317 318 318 318 314 310 309 308 305 301 300 299 299 298 297 296 296 298 298 298 298 297 297 296 296 296 295 295 295 294 294 294 293 293 293
314 316 318 318 318 317 317 317 318 316 314 310 309 309 307 303 300 299 298 297 297 297 297 297 298 298 298 297 297 296 296 296 295 295 295 294 294 294 293 293 293 292
312 313 314 315 315 315 316 316 315 312 310 309 309 308 304 301 299 298 298 297 296 296 296 297 297 297 297 297 297 296 295 295 295 295 295 294 294 294 293 293 292 292
313 313 313 314 314 315 315 314 312 310 309 309 309 306 302 300 299 298 298 297 296 296 296 296 296 296 296 296 296 295 295 295 295 295 295 294 294 293 293 293 292 292
314 314 314 314 314 313 313 311 310 309 309 309 307 304 301 299 299 298 297 296 295 295 296 296 296 296 296 296 295 295 295 295 295 295 294 294 294 293 293 293 292 292
313 313 313 313 313 311 311 310 310 309 309 308 306 303 300 299 298 298 297 296 295 295 295 295 295 296 295 295 295 295 295 294 294 294 294 293 293 293 293 293 292 292
312 312 312 312 311 310 310 310 310 309 309 308 305 301 299 298 298 297 296 295 295 294 295 295 295 295 295 294 294 294 294 294 294 294 293 293 293 293 293 293 292 291
311 311 311 311 310 310 310 310 310 309 309 307 304 301 299 298 297 296 295 295 294 294 294 294 294 295 294 294 294 294 294 294 293 293 293 293 293 294 293 293 292 291
311 310 310 310 310 310 310 310 310 309 308 306 303 300 298 298 297 296 295 294 294 293 294 294 294 294 294 294 293 293 294 294 293 293 294 294 294 294 293 292 291 290
310 310 310 310 310 310 310 310 309 309 307 305 301 299 298 297 296 295 294 293 293 293 293 293 293 293 293 293 293 294 294 294 294 295 296 296 295 294 292 291 290 289
310 310 310 310 310 309 309 309 308 308 306 303 300 298 296 296 295 294 293 293 293 293 293 293 292 292 293 292 293 294 295 296 297 298 297 297 295 293 291 290 289 288

ECMWFNIL_850_thetae_108.txt.gz
Theta_e
315 317 318 320 320 322 324 326 329 330 330 329 328 326 325 325 325 323 321 320 319 319 318 316 315 313 312 311 308 305 303 302 302 302 301 300 300 299 300 300 300 300
315 317 318 320 321 323 325 326 328 329 329 329 329 327 325 326 326 322 320 319 317 317 317 315 313 311 311 309 305 303 302 302 302 301 301 300 300 300 301 301 300 299
316 317 319 319 321 323 325 326 327 329 329 328 329 328 325 325 325 322 320 320 320 319 317 313 311 311 309 306 303 301 301 301 301 300 300 300 301 302 302 300 299 298
316 318 319 320 322 324 326 327 328 329 329 329 328 328 326 325 325 322 320 321 322 321 316 311 310 310 306 303 301 301 301 301 300 299 300 302 302 302 301 299 298 297
316 318 320 322 324 326 328 328 328 328 329 328 327 328 327 326 325 322 320 321 321 319 314 310 310 307 304 301 300 300 301 301 299 299 301 303 302 300 299 298 297 297
316 318 321 323 325 327 328 328 328 328 327 327 327 327 325 325 325 323 320 320 319 316 311 310 308 305 301 301 300 300 300 299 299 301 303 302 300 299 298 297 297 297
316 318 321 323 326 327 328 328 328 328 326 326 328 326 324 324 325 323 320 320 319 314 310 309 306 302 301 300 299 300 299 298 299 301 302 301 299 298 297 297 297 297
316 319 322 324 325 327 328 328 328 327 326 326 325 324 325 325 325 323 320 320 317 312 310 308 303 300 300 299 299 300 299 299 301 301 300 299 298 297 297 297 297 296
318 320 323 324 325 326 327 327 327 327 326 325 323 324 326 325 323 322 321 319 316 312 309 305 301 300 300 299 299 299 298 300 301 300 299 298 297 297 297 296 296 295
318 320 322 324 324 325 325 325 326 326 327 326 323 325 327 323 322 323 321 319 317 312 307 303 300 299 299 298 298 298 298 299 299 299 298 297 296 296 296 296 295 295
315 316 318 319 320 321 321 323 325 325 327 326 324 325 325 322 323 323 321 319 317 312 305 301 300 299 298 298 298 298 299 298 297 297 297 296 296 296 296 296 295 295
312 313 314 314 315 314 315 319 323 325 327 326 325 325 322 321 324 323 321 319 315 310 303 300 299 298 298 298 297 299 300 298 296 296 296 295 296 296 296 295 295 294
312 312 313 312 312 311 313 319 323 325 327 325 324 323 321 321 323 323 321 318 313 307 302 299 298 298 297 297 297 299 299 298 296 295 295 295 295 296 296 295 295 294
311 311 311 312 312 312 315 319 321 322 324 324 323 323 323 322 321 321 319 315 310 305 300 298 298 297 297 297 297 298 298 296 295 295 295 295 295 296 295 295 295 294
309 310 311 311 310 313 317 319 320 321 322 323 324 324 323 322 319 318 317 313 307 303 299 297 297 297 297 297 297 298 296 295 295 295 295 295 296 296 295 295 295 294
308 310 315 315 313 317 322 322 321 322 321 321 322 323 322 321 319 318 316 312 306 301 298 297 297 296 296 296 297 297 295 295 295 294 295 296 296 296 295 295 294 294
309 310 317 320 318 319 320 319 319 321 320 319 320 322 322 321 320 318 315 310 304 300 298 297 296 296 296 296 295 295 294 294 294 294 295 296 295 295 295 294 294 294
312 313 316 319 319 319 318 318 319 320 321 320 320 321 320 319 319 317 313 308 302 299 298 297 296 296 295 295 295 295 294 294 294 294 295 295 295 295 295 294 294 293
312 316 317 316 316 317 318 319 319 319 320 320 319 319 318 318 318 315 310 305 301 298 297 296 296 295 295 295 295 294 294 294 294 295 295 295 295 295 294 294 293 294
311 315 317 316 316 317 317 318 318 318 318 318 317 317 317 318 316 311 307 304 299 297 297 296 295 295 295 295 294 294 294 294 294 295 295 295 294 294 294 293 294 295
311 312 313 313 315 318 318 317 317 317 317 317 316 317 317 315 312 309 306 302 298 297 296 295 295 295 294 294 294 293 294 294 294 294 294 294 294 293 293 294 295 296
311 312 312 312 313 315 315 316 316 316 316 316 316 316 315 311 309 307 304 300 297 297 296 295 295 294 294 294 293 293 293 294 294 294 294 294 293 293 293 295 296 297
312 311 312 312 312 313 313 314 314 314 315 315 315 314 311 309 307 306 302 298 297 296 295 295 294 294 294 294 293 293 293 293 293 293 293 293 292 293 295 297 297 298
312 312 312 313 313 314 314 314 314 314 315 314 313 310 309 308 307 304 300 297 296 296 295 295 294 294 294 294 293 293 293 293 293 293 292 292 293 295 297 298 298 298
311 311 312 312 313 313 314 315 314 314 313 312 310 308 308 307 305 302 299 297 295 295 295 294 294 294 294 293 293 293 292 292 292 292 292 293 295 297 299 299 299 298
310 310 310 310 310 311 313 314 313 312 311 310 309 308 307 306 304 301 298 296 295 295 294 294 293 293 293 293 292 292 292 292 292 292 292 295 298 299 299 300 299 298

ECMWFNIL_850_thetae_111.txt.gz
Theta_e
313 315 317 319 321 323 323 321 320 321 321 321 322 324 325 324 322 322 323 323 323 323 321 320 318 317 318 318 318 317 316 314 311 306 302 302 302 301 300 301 302 302
313 314 316 317 319 320 320 320 319 319 319 319 320 324 326 325 324 324 324 324 324 323 322 320 319 320 320 319 318 317 315 311 307 303 302 302 301 300 301 302 302 301
312 313 314 315 316 317 316 317 318 318 319 319 320 323 326 326 327 326 326 325 324 323 322 321 320 320 319 318 317 316 313 308 303 301 301 301 300 300 302 303 301 300
312 313 313 314 315 315 315 316 317 317 319 319 320 324 326 327 327 327 327 326 324 324 323 320 319 318 317 316 315 314 309 304 301 300 301 301 300 301 303 302 300 299
312 313 313 314 315 315 315 316 316 317 318 318 321 325 326 327 327 327 327 327 325 324 323 320 318 317 318 315 313 311 306 301 300 300 301 300 300 303 303 301 300 299
313 313 313 314 315 315 316 316 316 317 317 319 322 325 326 326 326 327 328 328 326 324 323 321 318 318 319 316 311 308 304 300 300 300 299 300 301 303 301 300 299 298
313 313 313 313 314 315 316 317 317 318 319 321 324 325 326 326 326 326 327 328 327 325 324 321 319 320 321 317 310 306 301 299 300 300 299 300 302 301 300 299 299 298
313 313 313 313 314 315 317 318 320 321 322 323 325 326 326 326 326 326 327 328 327 326 324 321 319 320 321 316 310 304 300 299 299 299 299 301 302 301 299 298 298 297
312 312 313 313 314 316 318 320 321 323 324 325 326 327 327 327 327 326 327 328 327 325 324 321 319 319 318 314 308 302 299 299 299 298 299 301 301 300 298 297 297 297
312 312 312 313 314 316 319 322 323 324 324 326 327 327 328 327 326 326 328 328 326 325 323 320 319 319 316 311 306 301 299 299 298 297 299 300 299 298 297 296 296 297
312 313 313 313 314 316 319 322 324 324 324 326 328 328 328 327 325 326 328 327 325 324 323 320 320 318 314 308 303 299 298 298 297 297 298 298 298 297 296 296 296 296
313 313 314 315 316 318 321 323 324 325 325 326 327 328 328 328 326 324 324 325 325 323 322 320 319 317 312 306 301 298 298 297 296 297 298 298 297 296 295 295 296 296
312 313 313 314 316 319 322 323 324 325 325 325 326 328 328 328 327 323 321 323 324 322 321 321 319 315 310 304 299 297 297 297 296 297 297 297 296 295 295 295 295 295
312 312 312 312 314 316 318 321 323 324 325 325 326 327 326 327 327 323 322 324 324 322 321 320 319 315 308 302 298 297 297 296 296 297 297 296 295 295 295 295 295 295
311 311 312 312 312 313 314 316 318 320 322 323 324 325 325 326 326 323 322 323 323 321 321 321 319 315 307 300 298 297 296 296 296 297 297 296 295 295 294 294 294 294
311 311 311 311 311 312 312 313 313 315 316 317 320 322 322 324 326 324 323 323 321 320 321 320 319 314 305 299 298 297 296 296 297 297 296 295 295 294 294 294 294 294
311 311 310 310 310 310 311 311 311 312 312 313 317 320 321 323 324 325 324 323 321 320 320 320 318 312 303 298 297 296 296 296 296 297 295 294 294 294 294 294 294 294
310 309 309 309 309 310 310 309 310 312 313 315 318 320 321 323 323 323 323 322 320 320 319 318 316 309 301 297 297 296 295 295 295 296 295 294 294 294 294 294 294 294
310 309 309 308 309 313 315 313 312 315 317 318 319 320 321 321 322 322 322 321 320 320 318 316 312 305 299 297 296 295 295 295 294 294 294 294 294 294 294 294 294 294
310 309 309 308 309 314 318 317 317 319 320 319 320 320 320 320 320 321 320 320 319 319 318 316 310 303 298 297 296 295 295 294 294 294 293 293 293 294 294 294 294 294
311 310 309 309 311 314 316 319 319 319 318 317 318 319 320 319 319 320 319 319 319 318 318 316 310 302 298 296 295 295 294 294 294 293 293 293 293 293 293 293 293 294
312 311 309 309 312 314 316 317 317 317 317 318 318 319 320 319 319 319 319 318 318 317 317 315 309 301 297 296 295 295 294 294 293 293 293 293 293 293 293 293 293 294
312 312 311 309 311 314 317 316 316 315 316 317 318 319 319 318 318 317 317 317 317 317 317 314 307 300 297 296 295 294 294 294 293 293 293 293 292 293 293 293 293 295
311 311 312 310 310 312 314 315 315 315 316 316 317 317 317 317 316 316 316 316 315 316 315 312 305 299 296 295 295 294 294 293 293 293 293 292 292 292 293 293 293 295
311 311 311 311 311 311 312 312 312 314 315 316 316 316 316 316 315 315 315 315 315 314 312 308 303 298 296 295 294 294 294 293 293 292 292 292 292 292 292 292 293 296
311 311 310 311 311 311 311 312 312 312 313 313 313 314 314 314 314 313 313 314 314 312 309 305 301 297 295 295 294 294 293 293 292 292 292 292 292 292 292 292 294 296

ECMWFNIL_850_thetae_117.txt.gz
Theta_e
317 317 317 317 317 317 318 318 318 318 318 318 318 318 317 318 319 320 321 322 323 323 323 323 323 323 324 324 324 323 324 324 324 323 321 318 316 316 321 322 319 317
317 318 319 319 318 318 318 318 319 319 319 318 318 318 319 319 320 321 322 323 323 323 323 323 323 324 324 324 324 323 323 323 323 322 321 319 318 318 319 320 319 318
317 318 319 318 318 317 318 319 320 320 320 320 320 320 320 320 320 321 322 323 324 324 324 324 324 325 325 324 325 324 323 321 320 320 320 319 320 320 320 321 320 320
317 317 317 317 317 318 320 321 321 321 321 321 321 321 321 321 321 322 322 324 325 325 325 325 325 325 325 325 325 325 322 320 319 319 319 319 320 321 321 321 320 320
317 317 317 317 318 319 321 322 322 322 323 323 322 322 322 322 322 322 323 324 325 326 326 326 326 326 326 325 325 324 320 319 319 319 319 320 320 319 319 319 318 319
317 318 320 320 321 322 323 323 323 324 324 324 324 324 324 323 323 323 324 325 326 326 326 327 327 327 326 326 325 323 321 320 320 319 319 319 318 317 317 317 317 318
316 318 321 322 324 324 324 324 325 325 326 326 326 325 325 324 324 324 324 325 326 327 326 326 327 326 326 326 325 324 323 322 322 320 319 319 318 318 318 317 317 315
313 315 318 321 323 324 324 325 325 326 326 326 326 326 325 325 325 325 325 326 326 326 325 325 325 326 327 327 327 325 324 324 323 321 320 319 319 320 319 318 316 309
311 312 314 316 319 321 322 323 324 324 325 325 325 325 325 325 325 325 326 326 326 325 324 323 323 324 326 327 327 326 325 324 324 323 321 319 319 319 318 317 313 303
310 310 312 313 315 318 320 321 323 323 324 324 325 325 325 325 325 325 325 325 325 324 323 322 322 324 326 327 327 327 326 324 324 323 321 318 317 316 316 315 309 299
310 310 311 312 314 316 318 320 321 322 323 324 324 324 324 324 324 323 323 324 324 323 322 321 322 324 326 327 327 327 325 323 323 324 321 318 316 314 314 313 305 297
310 310 310 311 312 314 316 318 319 320 321 322 322 322 322 322 323 323 324 324 323 322 321 322 323 325 326 327 327 326 324 322 323 324 321 318 317 314 312 309 302 296
311 311 311 311 311 312 314 316 317 318 319 320 321 321 322 323 323 324 323 322 320 320 322 324 325 326 327 326 326 326 325 323 323 323 321 319 318 315 312 306 299 296
312 312 312 312 312 312 312 312 313 314 315 316 317 318 320 321 322 322 322 322 322 321 322 325 326 326 326 326 325 325 326 324 324 323 321 319 318 317 312 304 298 296
311 311 311 311 311 311 312 312 312 312 313 315 316 318 319 320 322 323 324 324 324 323 322 324 325 326 326 325 324 324 325 324 323 322 320 319 318 317 311 302 296 296
311 311 311 311 311 311 311 311 311 312 312 313 315 316 317 318 319 321 322 322 322 323 323 324 324 325 326 325 324 324 324 323 323 321 321 319 319 318 312 301 295 295
311 311 311 311 311 311 311 311 311 311 311 311 313 314 315 317 319 320 321 322 322 324 324 324 324 325 325 323 323 324 323 323 323 321 321 319 318 318 313 302 295 295
312 312 312 312 312 312 311 311 311 310 310 310 311 312 314 316 317 319 320 321 322 322 323 324 324 323 323 322 322 323 323 322 321 321 320 319 316 315 312 302 295 295
312 311 312 312 312 312 312 311 311 310 310 310 310 311 312 312 313 315 318 319 320 321 322 322 322 322 322 322 323 323 322 321 320 320 320 319 315 313 310 302 295 295
311 311 312 312 312 312 312 311 311 310 310 309 309 310 310 310 310 312 315 317 319 320 321 322 321 320 321 321 322 321 321 320 319 319 320 318 315 312 308 301 296 295
311 311 311 312 312 312 312 312 312 311 310 309 309 308 308 309 310 311 312 314 315 316 317 318 319 319 319 320 320 319 318 318 318 318 318 317 314 311 307 301 296 295
310 311 311 312 312 312 312 312 312 311 310 310 310 309 309 310 312 312 313 313 313 314 315 317 319 320 320 320 319 317 317 317 317 317 317 317 314 310 305 299 295 295
310 311 311 312 312 311 312 311 311 311 310 309 311 312 312 313 315 315 316 316 316 317 317 318 319 320 320 320 318 317 316 317 317 317 316 316 314 309 303 298 295 294
310 310 311 312 311 311 311 311 311 310 310 310 311 313 314 315 316 317 317 317 318 319 319 319 319 319 319 318 317 317 317 317 317 316 315 314 312 307 301 296 294 294
310 310 311 311 311 311 311 311 310 309 310 310 312 314 315 315 315 316 316 317 317 318 318 318 318 317 317 317 316 316 316 316 316 316 314 312 309 305 299 295 293 293
310 310 311 311 311 311 310 310 309 309 309 310 311 313 314 314 314 315 315 316 317 317 318 318 318 317 317 316 316 315 315 315 315 314 314 312 309 304 299 295 293 293

ECMWFNIL_850_thetae_123.txt.gz
Theta_e
319 319 319 318 318 317 318 318 317 317 317 316 316 316 315 316 316 317 318 319 321 322 323 324 324 324 325 325 325 326 326 326 326 326 326 326 325 325 325 324 324 324
319 318 318 318 317 317 317 318 318 318 317 317 317 317 317 317 317 318 318 319 320 321 323 324 324 325 325 325 326 326 326 326 326 326 326 326 326 325 325 325 324 324
318 318 317 317 315 315 316 317 318 318 317 317 317 317 318 319 320 320 320 321 321 322 323 324 324 324 325 325 326 326 326 326 326 326 326 326 326 326 325 325 325 324
319 318 318 317 316 316 316 318 318 317 318 318 318 319 319 320 321 322 322 322 323 323 323 324 324 324 325 325 326 326 326 326 326 326 325 326 326 326 325 325 324 324
319 319 319 318 318 318 318 319 318 318 319 319 319 320 320 321 322 323 323 323 324 324 324 324 324 325 325 325 325 326 326 325 325 325 325 325 325 326 326 325 324 325
320 320 319 319 319 320 320 320 319 319 320 320 321 321 321 322 323 323 324 324 325 325 325 326 326 326 325 325 325 325 325 325 325 325 325 325 325 325 326 325 324 324
320 320 320 320 320 320 320 320 320 320 320 321 322 322 322 323 324 324 325 326 326 326 326 326 326 326 326 326 326 326 326 325 325 325 325 325 325 325 326 325 325 324
320 321 321 321 321 321 321 320 320 320 321 322 323 322 323 324 324 325 325 326 326 326 326 326 326 326 326 326 326 325 325 325 325 325 325 325 325 324 325 324 323 324
320 320 321 321 321 321 320 320 320 321 322 323 323 323 324 324 325 325 326 326 326 325 325 325 326 326 326 326 325 325 325 324 324 324 324 324 322 320 320 321 322 324
318 319 319 320 319 319 319 319 320 320 321 321 321 322 322 322 323 325 326 326 325 325 325 325 325 325 325 325 324 324 324 323 322 321 322 323 323 321 321 322 324 324
315 316 316 317 316 316 316 316 316 315 315 316 316 318 319 320 323 326 326 325 324 324 324 323 323 324 325 325 324 324 324 323 323 322 321 322 324 325 324 323 324 325
313 313 313 313 313 312 312 311 311 311 311 312 313 315 317 320 322 322 322 322 322 322 323 323 322 323 324 324 323 323 323 324 325 326 325 324 323 323 323 322 322 322
312 312 311 311 311 310 310 310 310 310 310 310 311 313 315 316 317 317 318 320 321 322 322 321 320 322 324 324 323 322 321 322 324 326 326 324 322 321 320 319 319 319
311 311 311 311 310 310 310 310 310 310 309 310 310 311 311 312 313 314 316 317 319 321 321 321 321 323 324 323 322 322 320 321 323 324 323 321 319 319 319 319 320 321
311 311 310 310 310 310 310 310 310 309 309 310 310 310 310 311 311 311 312 314 316 318 321 323 324 325 325 322 321 322 322 324 324 321 319 318 318 319 321 322 323 323
311 311 311 310 311 311 310 310 310 310 310 310 310 311 311 310 310 311 313 317 318 318 319 321 321 321 322 322 322 323 324 325 322 319 317 318 320 322 323 322 322 322
311 311 311 311 311 311 311 311 311 311 311 311 311 311 311 311 311 311 314 319 321 321 321 322 321 320 321 322 322 322 322 321 320 319 319 319 320 322 321 321 321 321
311 311 311 311 311 311 310 310 310 310 310 310 310 310 311 311 311 311 312 315 318 318 318 319 319 319 321 321 320 319 319 320 320 320 320 320 321 321 320 320 321 320
310 310 310 310 310 310 310 310 310 310 310 310 310 310 311 311 311 311 312 312 313 314 314 314 314 314 316 318 318 316 317 318 320 320 320 320 320 320 320 320 320 320
310 310 310 310 310 311 311 311 311 311 311 311 311 311 311 311 310 311 311 311 311 311 311 311 312 312 313 314 315 315 315 317 318 319 320 320 319 320 321 321 320 320
310 310 310 310 310 310 311 311 311 311 311 311 311 311 311 310 310 310 310 310 309 308 308 309 312 313 313 314 316 317 318 318 317 318 319 319 319 320 321 320 319 320
311 311 310 310 310 310 310 311 311 311 311 311 311 311 311 310 310 310 310 309 309 308 308 309 311 313 314 315 316 317 317 316 315 316 318 318 319 319 319 319 319 319
312 311 311 310 310 310 310 310 310 311 311 311 311 311 311 310 310 310 310 309 309 309 309 309 309 310 311 310 311 312 313 315 316 317 317 317 318 317 317 318 318 317
312 311 310 310 310 310 310 310 310 311 311 311 311 311 311 311 310 310 310 309 309 308 308 308 308 308 308 308 310 311 313 314 315 315 315 315 315 315 316 317 317 315
312 310 310 310 309 309 309 310 310 310 311 311 311 311 311 311 310 310 310 309 308 307 307 308 307 308 308 309 310 310 311 311 312 313 315 315 315 315 316 316 316 315
312 311 310 310 309 309 309 309 310 310 310 311 311 311 311 311 310 310 309 309 308 308 309 309 309 309 310 311 311 312 312 312 313 314 316 316 316 315 315 315 315 314

ECMWFNIL_850_thetae_129.txt.gz
Theta_e
323 322 320 319 319 319 319 318 318 318 318 317 317 316 316 316 317 318 318 318 319 319 319 319 319 319 320 320 322 323 324 325 325 324 323 323 322 321 321 321 322 323
322 322 321 319 319 319 319 319 319 319 319 318 318 318 318 318 318 318 319 319 319 319 320 320 320 320 320 320 320 320 321 322 323 324 324 324 324 324 323 324 324 324
321 321 321 319 318 319 319 319 319 319 319 319 319 319 319 319 319 319 320 320 320 320 320 320 320 321 321 321 321 321 320 320 321 323 324 324 324 324 324 324 324 324
320 321 320 320 319 318 319 319 319 319 320 320 320 320 320 320 320 321 321 321 321 321 321 321 321 321 322 322 322 322 321 320 321 322 322 323 323 322 322 322 323 323
319 320 320 320 319 319 319 319 319 319 320 320 320 321 321 321 322 322 322 322 322 322 321 321 321 322 322 323 323 323 322 322 322 321 321 321 321 321 321 321 322 323
319 319 319 319 319 318 319 319 319 320 320 320 321 321 322 322 323 323 323 323 323 323 322 322 322 322 323 323 324 323 323 323 323 322 321 321 321 321 322 322 323 323
319 318 318 318 318 318 319 319 319 320 320 320 321 322 323 323 323 324 324 324 324 323 323 323 323 323 323 324 324 323 323 322 322 322 322 323 322 322 322 322 322 321
319 318 318 318 318 318 318 318 319 319 319 321 322 322 323 324 324 324 324 325 324 324 323 323 323 323 324 324 323 322 321 321 322 323 323 324 324 324 323 323 322 322
318 318 318 318 317 318 318 318 318 319 320 321 322 322 323 324 324 324 325 325 324 324 324 324 323 324 323 323 322 321 322 322 323 323 323 323 324 324 323 322 322 322
318 317 318 318 318 318 318 318 318 319 320 321 322 323 323 324 324 324 325 325 324 324 323 323 323 323 322 322 321 320 321 321 322 322 323 323 323 322 321 322 322 323
317 317 317 317 317 317 316 316 317 318 319 320 321 322 323 324 324 324 324 324 324 323 323 323 323 321 321 321 320 320 321 322 323 324 324 323 322 322 322 324 323 322
316 316 316 315 315 315 315 315 315 316 317 318 319 321 322 323 324 324 324 323 323 322 322 322 320 320 320 319 317 319 323 324 325 324 324 323 322 322 323 323 322 321
314 314 314 314 314 314 314 314 314 315 316 317 318 320 322 322 323 323 322 322 322 322 322 321 320 320 320 317 316 321 324 324 323 324 323 323 322 322 322 322 322 322
312 312 312 311 312 312 313 313 313 314 314 315 317 318 319 320 320 321 321 321 321 321 320 319 317 317 318 319 321 325 325 324 324 323 322 321 322 322 321 320 320 321
312 311 311 311 310 311 312 312 312 312 312 313 314 314 315 317 318 319 319 319 319 318 317 315 314 316 320 323 326 326 324 323 322 320 320 320 322 322 321 318 318 319
312 311 311 311 310 310 310 311 311 311 311 311 311 311 312 314 315 316 316 315 315 314 314 316 319 321 324 324 323 321 320 320 319 317 319 321 322 323 322 319 319 319
311 311 311 311 311 310 310 310 310 310 310 310 310 310 310 311 312 312 312 311 312 312 313 317 319 320 319 318 317 316 318 321 319 316 318 321 321 321 320 320 321 321
312 311 311 311 311 310 311 310 310 310 310 310 310 309 309 309 310 310 309 309 310 311 312 312 313 313 312 313 318 320 319 320 319 317 319 322 320 318 319 321 322 322
313 311 310 311 311 310 311 311 310 310 310 310 310 309 309 309 309 309 309 309 309 310 310 309 310 311 310 311 317 321 319 317 318 319 321 322 319 317 317 319 321 322
314 312 311 310 310 310 310 310 310 311 310 310 310 310 310 309 309 309 309 309 309 309 309 309 310 310 310 309 312 314 315 314 315 317 319 321 321 319 317 317 320 321
314 313 311 310 310 310 310 310 310 310 310 310 310 310 310 310 310 310 310 309 309 309 309 310 310 309 311 312 312 312 314 315 316 316 316 318 319 319 317 317 318 319
314 313 312 311 311 311 310 310 310 310 310 310 310 310 310 310 310 310 310 310 310 310 310 310 310 311 312 314 316 316 317 318 319 319 318 316 316 316 317 317 317 317
315 313 312 311 312 312 312 311 311 310 310 309 310 310 309 310 310 310 310 310 310 310 310 310 310 310 311 312 314 316 316 316 317 317 316 315 315 315 316 316 316 315
315 313 312 312 312 312 312 312 312 312 311 310 310 310 310 310 310 310 310 310 310 310 310 310 310 310 310 310 310 311 312 313 313 312 312 313 313 314 314 314 315 315
315 313 312 312 312 312 312 312 313 313 312 311 310 310 310 309 310 310 310 310 310 310 310 310 310 310 310 310 310 309 310 311 311 311 311 312 313 313 313 313 314 315
313 313 312 312 312 312 313 314 314 314 312 312 311 310 310 309 309 309 309 310 310 310 310 310 310 310 309 309 309 309 310 310 310 311 311 312 312 312 313 314 314 315

ECMWFNIL_850_thetae_132.txt.gz
Theta_e
321 322 322 323 322 322 321 321 321 321 320 319 319 319 318 317 317 317 318 318 318 319 319 320 321 321 321 322 322 323 323 323 325 326 327 327 326 324 322 321 320 319
320 320 321 321 322 322 322 322 322 321 321 320 319 319 320 319 319 319 319 320 321 321 321 322 322 322 322 322 323 322 322 322 322 323 324 325 325 326 326 324 323 321
320 320 320 320 321 321 321 321 321 321 322 321 320 320 320 320 320 320 321 322 322 322 323 324 323 322 322 322 323 322 321 321 321 321 322 322 322 324 325 325 325 324
319 319 319 320 320 319 320 320 320 321 321 322 321 320 320 321 321 321 322 322 323 324 324 324 324 323 323 323 323 322 321 321 320 321 321 321 320 321 323 323 324 324
319 319 319 319 319 319 319 319 320 320 321 321 321 321 321 322 322 323 323 322 323 324 324 324 324 324 324 323 323 322 321 321 321 321 322 321 320 320 321 321 321 322
319 319 320 320 319 319 319 319 319 319 320 321 321 322 322 322 323 324 323 323 323 324 324 324 324 325 324 324 323 323 322 322 321 322 322 322 321 321 320 320 320 320
318 319 319 319 319 318 318 318 318 319 320 321 321 322 322 323 323 323 323 323 324 324 324 325 325 325 324 324 323 323 322 322 322 322 323 323 322 322 321 320 319 319
317 318 318 319 319 319 318 318 318 318 319 320 321 321 322 322 323 323 323 323 324 324 324 324 324 324 324 324 324 323 323 323 323 323 323 323 322 322 322 321 319 319
317 316 317 317 318 319 318 319 318 318 319 320 320 321 321 322 322 322 323 324 324 324 324 324 324 324 324 324 324 324 324 323 323 323 323 322 322 321 321 321 320 321
315 315 316 316 317 318 319 319 318 318 318 319 320 320 321 321 322 322 323 324 324 323 323 324 323 323 324 324 324 324 324 323 323 322 322 322 321 320 321 322 323 323
315 315 316 316 316 317 318 318 318 318 318 318 319 319 320 320 321 322 322 323 323 323 323 323 323 324 325 324 324 324 323 322 321 321 321 321 320 321 321 322 322 322
315 316 316 316 316 316 316 317 317 317 317 317 317 318 318 319 319 320 321 321 322 323 323 324 324 325 324 324 324 323 322 321 320 320 320 320 321 322 321 321 321 322
314 314 314 314 315 315 315 315 315 315 315 315 316 316 316 316 317 317 318 320 322 323 324 324 324 324 324 324 324 323 322 321 320 321 321 320 320 321 321 321 323 323
313 313 313 312 312 312 312 313 313 313 314 314 314 314 314 314 315 315 317 319 321 323 324 324 324 324 324 323 322 322 322 320 320 320 320 319 320 322 323 323 324 324
314 313 313 312 312 311 311 311 311 311 311 312 312 313 313 313 314 316 318 319 321 322 323 324 324 323 323 322 322 321 320 320 320 318 317 319 322 323 324 324 325 324
313 313 313 313 312 312 311 311 311 310 310 310 311 312 312 313 314 316 318 320 321 322 323 324 324 323 323 321 321 320 319 321 322 319 318 321 323 323 324 324 324 323
313 314 315 316 315 313 312 311 311 310 310 310 310 310 311 312 313 315 316 318 320 322 323 323 323 323 322 321 321 320 318 318 320 320 321 323 323 323 324 324 322 321
313 313 315 316 316 315 314 312 311 310 310 310 310 309 309 310 311 312 314 316 319 320 321 322 322 321 320 320 320 318 316 317 321 322 323 324 323 322 321 321 321 321
311 312 314 315 316 316 315 313 312 311 310 310 310 310 310 309 309 310 311 313 316 318 319 319 320 320 319 318 317 316 318 321 323 324 323 323 322 320 318 319 321 321
311 311 312 313 314 315 315 314 313 312 311 310 310 310 310 309 309 309 309 310 311 313 315 316 317 317 316 316 316 318 322 324 323 323 321 319 318 319 319 319 319 320
312 311 311 312 312 314 314 314 314 312 311 310 310 310 310 310 310 309 309 309 309 310 311 312 311 311 312 315 317 319 321 321 319 319 318 317 318 320 320 319 319 320
315 314 312 311 311 313 314 315 315 313 311 311 310 310 310 310 310 310 310 309 309 309 309 309 309 309 311 313 314 314 315 315 314 316 319 320 320 320 320 319 320 321
318 317 316 313 311 312 314 316 315 313 311 311 311 311 310 310 310 310 310 310 309 309 309 309 309 309 309 310 310 311 311 310 311 315 319 321 320 319 318 318 319 320
318 318 318 316 312 310 312 315 315 314 312 311 312 312 311 311 311 310 310 310 309 309 310 309 309 309 308 309 309 309 309 310 311 313 315 317 317 316 315 314 316 318
317 318 318 318 315 311 311 313 314 314 312 312 312 312 312 312 312 311 311 310 310 309 309 309 309 309 309 310 309 309 311 313 314 313 314 314 314 315 315 316 316 316
316 317 317 318 317 313 310 311 313 313 313 312 312 312 312 312 312 312 311 311 310 310 309 309 310 310 310 311 311 311 312 314 316 317 316 316 316 317 318 318 317 316

ECMWFNIL_850_thetae_135.txt.gz
Theta_e
321 320 321 320 320 321 321 321 321 321 321 321 321 321 320 320 319 319 319 319 319 318 317 317 318 320 322 324 325 326 327 327 327 327 327 327 327 327 326 325 325 323
320 320 320 320 320 319 319 319 319 320 320 321 321 322 321 321 321 320 320 320 320 320 320 320 319 320 321 322 322 324 324 324 324 324 325 325 325 325 325 325 325 325
320 320 320 320 320 320 319 318 318 319 319 320 321 321 322 323 322 321 321 321 321 321 321 322 322 322 322 322 322 323 323 323 323 323 323 324 323 323 323 323 324 325
319 319 320 320 319 320 319 318 318 319 319 319 320 320 321 322 322 322 321 322 322 322 322 323 323 323 323 323 323 324 324 324 323 323 324 324 322 322 323 323 323 323
318 318 319 319 319 319 319 319 319 319 319 318 319 319 319 320 321 320 321 321 322 323 323 323 324 324 324 324 324 324 324 324 324 324 324 324 323 323 323 323 323 322
318 319 319 319 319 319 318 319 319 318 318 318 318 319 319 319 319 319 320 321 322 322 323 324 324 325 325 324 324 324 325 325 324 324 325 324 323 323 323 323 322 322
319 319 319 319 318 318 318 317 318 318 318 318 318 318 319 320 320 320 319 321 322 323 323 323 324 325 325 324 324 325 325 325 324 324 324 324 323 323 323 323 322 322
319 319 319 318 318 317 317 317 317 317 318 318 318 318 319 321 323 322 320 320 322 323 323 323 323 324 325 325 325 325 324 325 324 324 324 324 324 324 323 323 323 322
319 318 318 317 317 317 317 316 316 316 317 317 318 318 319 320 322 322 322 320 321 323 323 322 322 323 324 324 324 325 325 324 324 324 324 324 324 324 323 323 323 322
317 317 317 316 317 316 316 316 315 315 316 316 316 317 318 320 320 321 321 320 320 322 322 321 321 321 322 323 324 324 324 324 324 325 324 324 324 323 323 323 323 322
316 315 315 315 315 315 315 315 315 315 315 315 316 316 317 319 319 319 319 319 319 320 320 320 320 321 322 323 323 323 323 324 325 325 325 324 324 323 323 322 322 322
314 313 313 313 314 314 314 315 315 315 315 315 315 316 316 317 318 318 318 319 319 320 320 320 321 322 323 324 324 324 324 325 325 325 324 324 323 323 323 323 322 321
313 313 313 312 312 313 313 313 314 314 314 314 314 314 315 315 316 316 317 318 319 321 321 322 322 323 324 324 324 324 324 325 324 324 324 323 323 322 321 321 320 320
313 313 313 313 312 312 312 311 312 312 312 312 312 312 312 313 313 314 315 317 318 320 321 322 323 324 324 324 324 324 324 324 324 323 323 323 323 322 321 321 320 319
313 313 312 312 312 311 311 311 311 311 311 311 311 311 311 311 311 311 312 314 315 316 318 320 322 323 323 323 324 324 324 323 323 323 322 322 322 323 323 323 321 319
317 316 315 313 312 312 311 311 310 310 310 310 311 311 311 311 310 310 310 311 312 313 314 317 318 319 319 321 322 322 323 323 323 323 322 323 323 322 322 322 320 320
319 319 318 316 314 312 311 311 310 310 310 310 311 311 311 311 310 310 310 310 310 310 311 313 314 314 315 317 319 321 322 322 322 323 323 322 322 321 321 321 318 318
319 319 320 319 316 314 312 311 310 310 310 310 311 312 312 312 312 312 311 310 309 309 309 310 310 311 313 314 316 318 320 321 322 322 322 322 322 322 321 320 319 318
319 319 319 320 319 316 314 312 311 310 310 310 311 311 312 313 314 313 311 310 310 309 310 310 309 309 310 311 313 316 318 320 321 321 322 322 321 322 320 319 321 321
318 319 319 319 319 319 317 315 314 312 311 310 310 311 312 313 314 313 311 310 310 310 310 310 309 309 309 309 312 315 317 319 320 321 322 321 321 322 320 317 318 320
318 318 318 319 319 319 319 318 317 316 313 311 311 311 312 313 314 314 313 311 310 310 310 310 310 309 309 309 311 314 317 318 319 320 320 321 322 323 319 315 317 320
318 318 318 318 318 318 318 318 318 318 317 314 312 311 311 312 314 315 314 311 310 310 310 310 310 309 309 309 310 313 317 319 319 320 320 320 319 319 318 318 320 322
316 317 318 318 318 318 318 318 318 319 319 317 314 312 310 311 312 314 313 312 310 310 310 310 310 310 309 309 309 311 314 317 318 319 320 318 316 317 320 321 321 322
314 315 316 318 318 318 318 318 318 319 319 319 317 314 311 310 311 312 313 312 311 311 311 311 310 310 309 309 309 309 310 312 313 313 314 316 317 319 321 321 320 320
312 313 314 315 316 317 318 318 318 318 318 319 318 316 312 310 310 311 312 313 312 311 311 311 311 310 310 309 309 309 308 309 310 311 312 315 317 318 319 319 318 316
312 312 312 312 313 314 315 316 317 318 318 318 318 318 315 311 310 310 311 312 312 312 311 311 311 311 310 310 309 309 309 308 309 311 312 312 312 314 314 313 313 315

ECMWFNIL_850_thetae_138.txt.gz
Theta_e
320 320 320 320 320 320 320 321 322 323 323 323 322 322 322 322 322 322 322 322 321 321 321 321 321 320 320 319 319 320 323 324 325 326 325 325 325 326 326 326 326 326
320 320 320 320 320 320 320 319 319 320 321 321 321 322 323 324 325 325 324 324 323 323 323 322 322 322 322 321 321 321 321 322 323 324 326 326 327 327 327 328 328 328
318 319 319 319 319 319 319 318 319 319 319 320 320 321 322 324 325 326 326 325 325 324 324 324 323 323 323 323 323 323 322 321 321 321 323 325 325 325 325 326 327 327
316 317 318 318 319 319 319 319 318 318 319 319 320 321 322 323 325 326 326 326 325 325 325 325 324 324 324 324 323 323 323 323 322 322 323 323 323 323 323 324 325 325
316 316 316 317 318 318 319 318 318 317 318 319 319 319 321 322 323 325 326 326 325 325 325 325 325 325 325 324 324 324 324 324 323 323 323 323 323 322 322 323 324 324
315 316 316 316 317 318 318 318 317 317 318 318 318 318 319 320 321 322 323 324 324 325 325 325 325 325 325 325 325 324 324 324 324 324 324 323 323 322 322 323 323 324
315 315 315 316 317 317 318 318 318 318 317 317 317 317 317 318 319 320 321 322 323 323 324 324 324 325 324 325 325 325 325 325 325 324 324 324 324 323 323 323 323 324
316 314 315 316 317 317 318 318 318 317 317 317 317 316 316 317 318 319 320 321 322 322 323 323 324 324 324 325 325 325 325 325 325 324 324 324 324 324 323 323 324 324
318 315 314 314 315 317 317 317 317 316 316 316 316 316 315 316 317 318 320 321 321 321 321 322 323 324 324 325 325 325 325 325 325 325 325 324 324 324 323 323 323 323
319 317 315 313 313 314 314 315 315 315 315 315 314 314 315 315 316 318 319 320 321 320 321 322 323 323 324 325 325 325 324 325 325 325 325 325 325 324 324 323 323 323
319 318 317 314 312 312 313 313 313 313 313 313 313 313 314 314 315 317 318 319 319 320 320 322 322 323 323 324 324 324 324 324 324 324 325 325 325 324 324 324 324 323
318 318 318 316 313 312 311 312 312 312 312 312 312 313 313 313 314 315 317 318 319 320 321 321 321 322 323 323 323 323 323 323 323 324 324 324 324 323 323 323 323 323
318 318 319 318 316 314 313 312 312 311 311 311 311 311 311 312 313 314 316 317 318 319 319 320 320 321 322 322 322 322 323 323 323 323 323 323 323 322 322 322 322 322
318 318 318 318 318 318 317 316 315 313 312 310 310 310 310 310 310 311 313 315 316 317 317 319 320 321 320 320 321 321 321 322 322 322 322 322 322 322 322 322 322 321
317 318 318 318 318 319 319 319 318 316 313 311 311 310 309 310 309 309 310 311 313 313 314 315 317 317 317 317 318 320 321 321 321 321 321 321 322 322 322 322 321 321
317 318 318 318 318 318 319 319 319 318 315 313 312 311 310 310 310 310 310 310 311 312 312 313 313 313 313 312 313 315 317 319 320 321 321 321 321 321 321 321 321 321
317 317 318 318 318 318 318 318 319 319 318 315 312 311 310 310 309 310 310 310 311 312 312 313 313 312 311 310 310 311 312 314 317 318 319 320 321 321 321 321 321 322
317 317 317 318 318 318 318 318 318 318 319 317 314 313 311 310 310 310 310 310 310 311 312 313 313 313 311 310 310 310 311 312 314 316 317 318 319 320 320 321 321 322
316 316 316 316 317 318 318 318 318 318 318 318 317 315 314 312 311 310 310 311 310 311 312 312 312 312 311 310 309 309 310 311 312 315 316 317 318 319 320 320 321 322
313 313 314 314 315 317 317 317 318 318 318 318 318 317 316 315 314 312 310 310 310 311 311 311 313 313 311 310 309 309 309 309 310 312 315 316 318 319 319 320 321 321
311 311 312 312 313 314 315 316 317 317 318 318 318 318 318 318 317 315 313 311 310 310 311 312 313 313 311 310 309 309 309 308 308 310 313 314 316 317 318 319 320 321
312 311 311 311 311 312 312 313 314 315 316 317 317 318 318 318 318 318 317 315 313 311 310 312 313 313 311 310 310 309 309 309 308 309 310 311 313 315 317 318 319 320
312 312 312 311 311 311 311 312 312 312 313 315 316 317 317 318 318 318 318 318 317 315 312 311 312 313 312 310 310 309 309 309 309 308 308 309 310 312 314 316 318 318
311 311 312 312 311 311 311 311 311 311 312 312 313 315 316 317 317 317 318 318 318 318 316 313 312 312 312 312 310 309 309 309 309 309 308 308 308 309 311 313 315 317
311 311 311 311 311 311 311 311 311 311 311 311 312 312 313 314 315 316 317 317 317 318 317 316 314 312 311 312 311 310 309 309 309 309 308 309 309 308 309 310 312 315
310 311 311 311 311 311 311 311 311 311 312 312 311 311 311 312 313 313 315 316 316 317 317 317 315 313 311 310 310 309 309 309 309 308 309 309 309 308 308 308 310 312